GFSSGP_prec_cthk_000.txt.gz
RH
4 4 9 11 12 15 18 19 21 31 42 42 42 42 46 51 51 53 50 51 48 43 43 46 52 55 55 59 64 59 53 54 51 55 52 54 54 52 51 51 45 39 42 49 53 54 50 50 50
4 10 13 13 15 18 19 24 33 36 40 44 45 47 48 54 51 50 52 53 50 44 42 43 43 42 41 42 43 42 38 43 42 42 39 40 44 43 42 43 39 36 41 46 50 50 47 50 50
10 13 14 17 19 20 22 28 40 43 42 48 50 52 53 55 52 50 46 44 40 37 37 38 36 37 36 36 35 33 32 35 34 33 33 32 33 35 38 39 38 33 31 38 39 43 46 48 46
13 14 16 21 23 25 25 32 38 41 41 43 45 45 43 42 41 38 36 32 31 30 32 33 31 30 30 30 30 29 29 29 29 29 25 22 18 20 22 22 19 18 22 27 33 38 42 43 44
13 14 18 23 23 25 26 28 30 29 30 32 34 37 33 30 30 31 30 29 29 28 31 30 31 31 32 34 32 29 27 24 22 23 22 20 20 19 18 19 21 22 24 25 27 31 37 41 41
12 15 19 19 19 20 22 20 19 22 24 27 28 25 27 29 30 31 33 32 28 28 28 29 31 33 29 25 26 25 21 23 25 25 26 25 22 21 22 22 21 20 21 23 26 30 30 29 31
13 15 17 16 17 16 14 12 11 13 16 19 21 25 23 32 35 34 36 35 34 31 28 30 32 34 31 28 25 23 21 19 20 23 25 18 17 18 18 17 15 12 11 14 17 18 19 22 26
12 14 16 17 17 14 13 12 12 12 15 17 18 24 27 25 30 33 34 39 34 26 35 37 37 37 32 24 18 13 13 14 17 19 18 14 14 16 14 11 8 9 10 10 12 12 11 11 13
14 16 17 13 13 12 11 11 10 9 11 11 13 15 16 18 23 25 28 29 25 30 36 33 29 22 17 14 12 10 10 12 16 19 18 18 20 22 19 15 13 14 13 13 12 12 13 14 15
13 14 13 12 10 9 8 8 8 9 10 12 12 12 13 16 20 22 26 22 21 26 27 26 29 23 18 16 14 12 11 15 20 23 25 24 24 23 23 21 21 20 18 17 16 15 15 16 17
12 12 11 8 8 9 10 10 9 9 10 11 11 14 17 19 20 22 24 23 23 27 28 32 33 25 22 20 21 19 18 22 27 30 29 29 27 26 25 25 25 25 24 23 23 21 20 21 21
9 11 11 11 9 8 10 12 10 12 11 12 15 16 18 22 23 25 25 26 28 28 32 37 30 26 24 25 27 27 27 29 32 34 34 33 33 32 32 31 31 30 29 29 29 28 27 26 26
12 15 17 17 16 15 14 16 16 17 16 15 17 20 21 23 22 25 29 32 33 33 35 35 30 29 29 28 28 28 29 32 35 38 39 40 41 41 40 38 38 38 37 37 36 35 33 30 28
14 15 18 19 19 17 17 17 18 17 16 16 17 18 20 21 21 25 26 28 29 31 32 32 30 31 32 33 33 34 36 38 40 41 43 45 45 44 43 42 42 41 41 42 42 42 40 38 36
17 18 18 19 19 19 19 19 18 18 19 18 16 18 19 20 22 23 26 28 30 33 38 37 37 38 39 37 37 38 39 38 39 40 42 44 44 44 43 43 42 42 43 43 43 43 43 43 43
18 18 20 20 21 21 20 20 19 19 19 20 17 17 20 22 23 26 28 30 33 36 39 39 41 41 41 41 43 43 44 43 42 41 41 41 41 42 43 43 44 45 46 46 47 47 47 47 48
20 18 19 21 22 24 22 21 19 19 19 20 19 19 23 26 28 28 29 32 36 42 43 43 43 43 44 47 47 46 46 46 45 42 42 42 41 42 43 44 46 47 48 48 48 49 49 50 51
20 18 19 19 21 24 24 22 22 21 22 22 20 22 24 28 29 30 32 34 36 41 44 46 48 47 49 51 51 50 50 49 47 45 44 44 45 45 45 46 47 49 49 49 49 50 50 52 52
20 21 23 20 21 23 25 26 22 21 23 24 24 25 25 27 30 31 34 35 38 42 47 49 50 52 54 55 55 55 54 51 49 48 46 47 48 49 50 48 48 50 51 53 53 52 52 52 53
21 23 22 22 23 26 28 27 23 23 24 25 26 27 28 29 30 32 34 38 42 47 52 54 54 59 59 60 58 57 56 56 55 55 52 49 48 47 49 50 50 49 50 51 52 53 55 55 56
23 22 24 26 27 29 30 28 28 26 26 27 29 30 31 32 33 37 40 43 46 51 57 61 61 61 60 60 61 59 56 57 56 56 55 54 50 47 47 49 51 51 52 51 51 52 53 54 53
27 24 26 28 31 34 32 34 33 32 30 31 32 34 34 35 38 42 45 49 51 54 57 59 60 59 59 58 57 56 55 55 56 57 54 52 50 48 48 49 51 54 57 56 55 55 60 60 60
29 28 27 29 33 35 37 37 35 35 34 35 37 38 38 39 43 47 50 53 55 55 57 60 62 61 58 57 58 57 56 58 55 52 48 48 47 49 48 48 48 47 49 50 53 59 61 62 64
29 29 30 36 39 44 41 42 40 39 40 42 41 40 42 47 50 53 57 59 61 62 63 63 63 61 58 59 61 62 61 55 50 49 45 42 39 36 35 36 37 38 41 43 50 58 60 66 66
34 34 41 45 52 51 42 42 39 40 44 44 44 48 50 53 55 58 60 62 65 65 66 67 68 65 63 63 62 60 59 58 52 45 38 35 34 32 30 30 30 33 36 41 47 56 62 63 74
40 42 52 47 61 56 45 46 47 47 47 49 52 53 56 58 61 63 65 68 67 67 68 71 70 71 69 63 58 56 55 53 47 41 38 36 36 35 30 32 34 38 43 48 56 61 68 72 90
44 50 49 58 64 64 51 46 49 50 52 51 53 56 58 60 63 67 69 69 70 72 74 72 70 69 67 63 62 61 56 49 47 46 41 41 42 43 44 46 50 56 55 59 70 78 88 86 88
46 47 54 60 68 67 57 50 51 53 52 54 56 57 60 63 66 67 69 71 71 70 69 70 69 67 65 64 60 53 55 54 47 42 39 42 46 48 52 56 57 64 66 70 71 80 80 77 82
50 55 56 57 66 73 78 61 52 53 53 55 56 59 61 64 67 68 69 68 71 72 71 71 69 64 56 57 57 60 60 50 42 37 38 40 44 45 51 58 65 74 78 80 77 77 83 81 77
50 53 54 62 62 73 75 61 50 55 56 56 58 59 61 66 68 69 72 74 76 71 67 65 61 61 57 58 62 65 61 53 49 44 41 43 50 57 60 72 85 84 84 85 86 84 81 78 73

GFSSGP_prec_cthk_006.txt.gz
RH
6 6 9 10 12 18 25 26 32 39 38 39 36 37 38 38 40 55 48 39 40 50 58 57 55 53 56 58 57 51 43 45 47 48 48 46 42 42 44 44 42 40 42 43 44 40 38 44 47
6 9 10 10 15 22 29 28 36 37 38 37 35 37 39 41 43 43 41 38 41 43 47 49 42 40 42 40 40 41 41 42 41 40 38 34 29 28 30 31 30 32 34 35 33 28 25 27 34
10 10 11 13 18 26 29 31 37 38 37 40 38 39 38 40 37 36 34 31 32 33 33 31 30 31 32 33 33 36 36 35 33 30 27 24 25 25 25 25 28 27 22 19 19 22 25 28 32
11 11 13 20 22 28 30 35 35 37 39 40 38 37 32 32 30 31 28 24 24 27 30 24 24 27 27 28 28 28 30 31 28 25 24 25 25 25 24 23 22 23 22 22 23 27 30 33 32
12 15 20 24 24 23 31 35 39 37 36 37 30 28 27 32 30 28 27 24 25 25 23 25 27 28 30 30 29 28 27 24 23 21 19 20 21 16 17 18 19 19 20 20 20 23 27 29 31
15 20 24 26 26 27 28 29 28 25 26 26 27 26 29 30 28 28 24 24 24 22 23 27 27 25 24 24 24 22 19 19 16 16 18 19 14 14 17 18 16 11 9 10 11 15 18 18 20
19 22 24 24 25 23 20 19 24 23 23 23 21 25 26 30 30 26 25 25 23 26 25 27 25 22 21 19 15 11 12 13 14 17 19 15 13 15 17 17 15 11 11 12 13 14 14 12 11
18 19 20 20 17 15 14 12 14 17 18 16 18 22 23 26 26 26 25 26 27 30 33 30 26 18 14 12 9 8 9 11 13 17 19 18 18 20 22 22 19 18 17 15 14 14 14 14 13
19 19 16 15 15 13 12 11 8 10 15 14 16 23 23 24 23 28 28 28 32 34 33 29 21 16 16 16 14 11 11 14 17 20 23 25 28 26 27 26 24 24 24 24 24 23 19 16 14
16 18 15 14 13 10 8 8 7 10 11 12 14 13 18 19 22 26 31 30 29 34 33 25 22 19 20 22 24 25 24 28 27 28 27 30 30 31 31 30 29 29 31 30 30 30 29 29 30
17 16 14 13 8 7 7 7 7 9 11 12 15 17 22 24 24 29 35 32 34 36 31 29 29 24 26 29 33 35 34 34 36 34 36 39 38 42 43 44 44 43 40 42 40 39 41 37 36
15 12 11 8 6 8 11 10 12 11 12 14 18 23 26 33 33 32 32 39 39 37 33 33 34 28 29 33 37 40 42 43 44 47 43 47 47 48 48 48 47 47 47 45 47 47 42 41 40
11 11 11 11 13 12 13 13 17 15 15 16 18 22 25 31 32 33 33 38 41 37 38 39 40 31 33 35 42 43 44 46 44 47 48 45 45 45 44 43 43 43 44 45 46 46 45 42 42
12 14 15 17 18 16 16 17 17 17 17 16 17 20 26 27 28 30 33 38 43 43 48 46 45 36 36 40 41 45 45 47 47 47 45 40 41 44 43 43 43 43 46 45 45 47 45 45 43
15 17 17 18 20 20 18 19 18 18 19 20 19 19 25 27 28 30 32 39 47 49 49 49 46 40 41 43 46 47 51 50 51 49 44 43 43 45 42 45 45 45 45 44 46 45 44 43 45
16 16 18 18 20 21 20 24 20 21 21 20 22 21 23 26 32 34 39 44 46 47 47 50 45 43 44 47 50 53 55 55 57 53 49 47 47 45 44 48 46 45 44 45 45 45 44 44 43
14 14 13 18 19 21 21 22 22 20 20 21 21 22 23 27 35 40 39 40 42 44 45 49 45 47 48 50 54 55 57 59 58 56 53 51 49 48 47 45 45 45 44 42 42 43 43 43 43
16 16 17 16 17 17 20 21 19 20 20 22 24 23 24 28 37 35 36 39 40 40 46 53 48 48 51 56 56 58 60 58 58 56 53 52 52 49 48 48 46 47 48 46 46 44 44 46 44
17 18 19 18 20 22 23 21 21 22 23 24 25 23 26 31 33 37 38 35 37 41 48 55 53 52 57 60 61 64 62 61 61 61 58 56 54 52 52 51 50 47 47 46 43 44 44 43 47
18 19 19 21 22 25 24 25 23 24 25 27 29 28 29 31 34 36 37 39 42 46 51 56 56 59 63 66 66 66 67 65 64 64 64 63 62 60 53 48 44 43 41 39 39 39 39 41 45
20 21 24 24 24 25 25 28 26 26 28 29 30 31 34 35 36 39 42 43 46 51 57 60 64 66 66 67 68 68 68 68 67 66 63 63 60 54 49 43 38 34 34 35 34 35 35 39 40
23 24 26 24 25 27 26 32 30 29 30 32 34 36 37 39 41 44 48 52 54 58 62 65 66 66 65 66 66 67 67 67 65 65 66 64 56 51 44 38 36 34 35 38 38 39 40 42 38
31 29 28 26 26 28 29 29 36 33 34 35 36 38 40 42 46 51 55 59 63 64 63 63 63 64 64 65 67 69 69 67 70 71 65 57 51 43 42 41 39 36 35 36 33 32 37 37 38
30 29 30 32 34 39 35 31 37 35 36 38 40 42 45 48 50 55 58 60 59 62 64 64 66 68 69 71 71 72 73 77 72 65 58 50 47 51 50 44 39 37 35 34 32 32 31 32 36
31 30 36 44 44 43 35 33 39 37 39 42 44 47 51 54 57 57 60 64 65 66 65 67 73 75 77 81 81 82 78 70 62 53 50 50 52 49 45 38 37 36 35 37 40 42 44 43 41
36 36 41 44 43 40 35 36 42 39 42 44 46 51 56 59 59 64 65 65 65 65 67 68 73 80 82 78 71 67 63 58 56 56 55 53 51 48 41 40 42 47 48 50 52 58 60 62 62
38 40 39 44 53 48 36 39 40 42 46 48 52 55 57 59 59 57 58 60 61 63 68 70 66 65 63 63 63 59 58 56 56 53 54 56 53 48 45 49 53 54 57 61 61 64 70 76 81
36 38 43 40 55 41 31 36 43 48 52 52 55 57 58 57 58 60 63 66 67 67 63 62 63 66 64 64 63 61 59 60 59 58 53 50 51 54 55 56 62 63 66 65 69 76 82 89 92
41 43 41 40 45 47 48 35 43 51 50 50 52 55 57 59 62 64 62 62 62 62 65 66 67 67 69 66 66 65 63 57 49 49 50 54 59 58 61 67 68 70 71 82 87 92 97 96 95
43 45 44 46 50 55 58 47 45 49 52 55 58 58 58 61 65 66 67 66 68 70 71 73 73 70 68 70 66 61 52 54 50 58 63 69 64 65 60 65 68 77 82 91 94 98 97 95 92

GFSSGP_prec_cthk_009.txt.gz
RH
10 9 10 11 12 19 38 42 43 44 39 42 33 42 46 50 52 68 64 40 44 54 51 52 51 50 49 55 56 51 47 41 41 43 44 43 41 38 36 35 36 39 40 38 39 39 41 37 30
9 9 10 12 17 29 40 35 45 49 36 30 30 33 41 38 38 43 42 38 46 53 56 47 44 44 49 50 44 38 38 39 40 37 34 30 27 26 26 26 28 30 33 34 26 23 21 21 23
8 10 12 14 24 27 42 39 45 35 32 38 34 38 41 42 39 41 31 31 37 46 44 36 35 33 29 29 29 32 33 32 32 29 25 24 23 23 23 23 20 20 22 22 20 20 23 26 29
9 9 10 17 34 36 37 44 39 32 36 38 39 42 38 37 34 30 26 29 36 37 28 23 22 22 24 26 28 28 29 30 27 24 21 18 20 19 18 16 18 19 19 20 21 23 26 27 28
10 14 23 30 37 35 44 42 38 50 47 41 33 42 40 36 34 29 26 30 27 28 23 20 22 25 27 27 27 26 25 23 19 18 17 18 18 16 14 16 18 16 13 13 12 12 15 20 22
13 23 30 34 40 36 39 39 36 39 39 31 34 40 47 34 32 28 25 25 25 26 26 25 25 24 21 20 22 20 17 16 16 15 17 19 16 14 15 17 17 13 10 10 10 12 13 14 12
21 33 31 38 32 27 27 25 26 25 28 28 29 39 34 34 29 27 26 24 24 26 33 30 25 18 16 14 11 9 11 12 13 16 20 21 17 17 20 22 20 18 16 16 15 13 12 13 13
23 30 31 30 26 23 18 17 24 25 31 23 28 29 31 36 26 25 25 24 30 32 36 34 29 24 23 14 7 6 8 11 14 19 21 22 23 25 24 26 24 23 23 23 23 22 22 20 15
17 24 23 20 19 14 11 12 10 14 18 20 20 33 29 29 25 27 26 28 32 36 35 35 28 24 23 25 18 18 17 19 22 25 26 29 42 40 42 36 30 28 28 29 28 28 28 28 30
20 20 20 15 15 13 10 10 8 13 16 13 15 18 31 26 25 27 26 30 35 37 36 33 28 22 23 27 31 34 34 40 39 40 44 53 49 48 44 44 42 41 41 39 42 40 38 41 45
21 24 15 14 11 8 7 8 7 12 12 14 17 18 28 24 25 32 37 42 39 43 40 37 27 26 29 34 39 46 48 46 48 50 51 52 51 57 56 56 54 51 47 49 48 50 50 47 44
21 18 14 12 7 8 9 10 10 13 14 14 19 27 30 31 34 37 45 45 47 51 47 39 33 28 30 40 48 49 53 49 50 50 51 51 51 52 51 50 48 48 50 49 49 49 49 45 43
15 12 11 7 6 9 11 11 16 12 14 14 20 27 32 36 40 36 45 46 51 53 53 53 46 34 39 41 49 49 51 54 50 54 51 48 46 48 49 49 48 47 48 51 48 47 47 45 44
13 13 13 12 13 12 14 16 16 19 16 16 17 25 35 38 37 40 43 47 54 52 57 56 59 49 45 45 48 53 53 55 57 56 52 49 50 49 48 48 50 48 46 45 45 45 43 41 40
12 15 16 16 17 19 15 20 18 19 18 18 18 22 34 40 38 38 44 48 55 56 61 66 62 54 46 47 52 55 55 54 57 58 55 51 49 50 47 49 51 50 48 46 46 45 45 45 42
17 21 25 21 18 20 19 34 24 20 20 21 23 22 23 35 37 40 43 45 49 58 61 64 63 54 48 52 54 58 60 59 62 62 57 55 51 51 50 49 48 48 45 47 47 45 48 48 47
18 28 20 23 18 21 21 33 28 23 20 20 23 25 23 30 42 47 46 47 50 55 58 63 63 52 53 55 59 62 63 63 65 62 62 60 56 57 55 54 53 52 51 49 48 46 45 46 45
27 21 18 21 22 17 20 22 25 21 18 19 22 25 28 27 43 50 50 45 48 51 52 62 66 55 56 60 61 64 66 67 69 68 65 63 61 59 56 57 56 54 51 51 49 47 47 45 45
16 18 21 22 20 18 22 22 22 21 23 24 25 26 27 29 45 47 40 39 43 47 54 63 63 55 58 63 66 69 69 71 72 70 67 66 64 60 58 58 55 52 48 44 38 36 34 35 37
19 20 21 20 19 19 25 26 24 24 26 27 28 29 32 34 38 40 39 40 45 52 55 57 58 61 63 66 72 70 69 71 72 72 70 69 66 67 64 59 54 50 43 39 39 37 37 37 40
21 22 24 24 22 21 24 32 27 26 27 28 30 32 35 36 38 41 41 43 46 51 56 60 65 67 68 71 70 71 71 71 72 72 71 71 72 67 63 58 51 45 44 43 44 44 44 41 39
27 24 24 22 23 35 26 39 43 35 30 32 34 35 37 39 43 44 48 52 56 60 63 66 69 69 68 69 70 71 74 74 76 77 76 74 75 65 57 52 46 48 46 43 42 41 38 37 34
31 26 27 26 25 28 28 24 51 42 38 36 39 40 43 45 48 50 54 58 61 63 65 68 67 66 67 66 70 74 76 79 88 86 76 73 68 59 54 49 46 46 44 41 41 41 42 42 42
26 28 27 29 33 37 41 30 48 52 44 38 42 45 48 49 51 53 58 61 64 65 64 66 67 68 68 73 76 78 78 75 71 64 63 61 55 47 46 45 48 48 52 51 47 48 48 45 44
30 34 45 50 47 52 42 28 46 40 39 41 46 47 50 53 56 60 64 68 65 66 64 64 68 71 72 72 68 62 61 63 64 63 58 49 46 47 50 52 54 55 57 58 57 58 54 58 53
34 35 44 44 46 44 38 34 52 41 38 41 44 48 53 57 59 62 61 62 63 61 63 64 67 68 68 64 63 64 63 65 62 58 55 55 53 50 52 51 49 52 53 58 60 61 55 57 63
37 38 31 40 46 43 34 41 48 48 49 46 48 51 56 58 58 59 61 65 60 61 63 61 62 61 62 65 66 68 70 68 65 64 62 52 49 50 50 54 52 53 56 60 61 66 64 64 70
36 33 45 43 53 40 35 33 48 58 53 56 53 56 57 59 63 64 63 62 61 63 63 63 65 68 74 76 74 72 73 72 65 60 56 54 53 49 48 52 60 62 62 67 68 69 73 76 81
43 47 42 38 43 49 45 40 48 49 50 50 54 58 61 60 63 64 64 64 67 64 66 68 70 71 71 75 76 71 65 63 63 61 61 55 52 47 47 48 52 60 65 71 79 80 88 93 95
36 41 41 46 48 51 54 46 50 50 53 57 60 61 61 60 64 65 66 69 70 70 69 68 67 71 72 73 68 65 66 60 63 60 48 46 45 48 53 56 62 69 80 85 94 95 91 94 95

GFSSGP_prec_cthk_015.txt.gz
RH
10 10 11 12 14 25 39 54 57 61 53 59 54 53 55 58 63 70 78 69 63 50 48 47 43 41 42 40 41 40 36 31 31 30 27 23 19 16 15 16 17 16 15 15 15 16 17 15 13
17 15 11 12 18 35 46 56 57 54 59 58 57 55 43 48 53 59 63 64 49 45 45 43 43 43 44 43 40 33 28 27 25 23 20 18 16 16 17 16 14 11 12 12 12 12 12 13 14
18 13 20 30 36 44 44 56 57 49 50 43 43 37 36 40 43 49 60 49 46 42 42 46 45 44 40 32 25 23 23 23 22 20 18 15 13 14 13 10 11 11 10 9 9 9 8 9 11
21 19 22 36 40 40 53 54 52 53 52 44 27 37 41 45 47 44 46 41 35 38 40 38 34 27 20 18 19 21 21 20 19 17 13 12 14 14 10 12 13 12 11 11 10 8 8 8 9
23 18 32 38 49 55 54 52 55 52 47 43 43 45 57 47 37 33 32 32 25 24 21 19 17 17 18 19 19 17 17 15 13 12 12 13 15 11 13 16 18 18 17 17 17 16 15 15 12
30 30 38 44 55 56 52 49 51 51 53 58 52 40 45 35 26 30 27 25 16 16 17 17 18 18 16 14 12 11 9 9 9 10 13 15 15 16 18 20 21 21 20 20 20 20 20 20 20
31 39 39 40 53 52 46 44 40 46 46 53 49 42 38 35 24 26 23 21 17 18 18 18 18 16 11 7 6 5 7 7 9 12 14 21 25 27 29 29 29 29 29 29 29 29 29 28 28
37 35 44 46 48 45 42 28 27 33 37 39 35 37 36 30 21 22 22 20 20 21 23 23 20 19 14 10 8 8 10 14 20 23 28 32 34 35 39 41 40 39 36 35 34 32 33 34 35
35 36 40 41 38 38 31 21 22 25 28 29 27 28 29 25 21 22 22 23 26 26 28 26 20 16 18 18 22 21 23 24 27 32 37 38 39 38 40 41 38 36 35 35 34 33 33 33 34
29 28 31 29 31 30 22 15 12 20 22 26 26 27 28 28 21 19 21 23 28 31 30 28 22 18 21 26 30 30 33 34 36 37 39 41 43 44 43 42 41 40 40 39 37 35 34 34 33
25 24 25 26 24 22 19 11 12 14 14 14 19 27 27 25 21 20 22 24 26 30 33 29 23 24 29 29 34 37 41 39 40 46 45 43 46 46 45 43 40 39 39 40 39 37 34 34 34
25 25 22 21 20 17 10 9 9 11 13 15 19 23 26 27 24 24 26 33 41 41 45 44 35 21 29 34 38 39 43 45 47 46 45 43 46 47 46 46 44 43 42 40 39 38 36 35 34
26 24 22 23 19 13 8 8 11 13 16 17 19 25 28 30 31 30 35 38 48 47 50 46 44 37 30 40 46 44 43 45 44 45 46 45 46 48 46 44 44 44 43 42 40 39 37 36 34
22 14 13 13 7 5 7 10 12 13 14 17 21 24 27 32 35 36 39 46 45 49 53 54 60 63 49 41 42 41 41 43 44 46 48 48 50 51 52 50 48 48 46 46 43 41 38 37 35
15 10 11 10 10 11 11 15 19 20 18 19 19 23 29 33 36 41 41 42 46 55 56 61 78 73 77 62 49 48 50 48 48 50 51 54 58 58 58 56 52 50 49 47 46 44 42 41 39
13 19 23 21 26 20 19 26 26 25 25 23 18 21 26 32 42 42 44 46 46 46 62 74 79 58 74 79 73 60 57 54 53 57 60 59 59 61 62 60 55 54 55 54 51 50 45 44 43
30 33 32 34 26 21 23 24 27 27 27 24 22 24 26 33 42 47 47 47 52 56 53 59 60 60 68 73 77 70 59 60 62 64 66 68 66 63 64 62 59 62 63 62 58 54 51 44 40
35 34 36 34 24 20 24 27 32 30 30 30 29 26 31 35 46 51 48 48 52 52 54 55 56 63 68 70 67 63 64 66 68 67 68 65 63 63 66 70 66 65 66 67 60 50 43 36 31
35 30 33 31 25 24 21 29 31 31 31 31 27 29 33 37 40 44 48 48 56 73 65 63 64 63 65 66 63 69 71 73 70 73 71 67 66 66 69 69 64 56 53 47 47 42 38 33 30
33 31 31 24 22 21 21 28 30 29 31 33 32 34 37 38 41 46 49 57 62 65 69 71 62 60 60 64 67 72 75 74 71 69 65 67 70 70 71 63 56 50 48 45 43 41 38 38 40
27 30 32 25 22 19 24 33 32 32 35 40 39 44 39 37 40 43 46 50 56 57 58 60 59 60 62 67 71 72 70 64 60 62 68 72 73 68 58 54 54 53 50 48 48 47 47 47 48
26 26 25 22 21 26 30 43 38 37 42 43 47 45 44 44 43 43 50 49 49 50 52 54 57 61 65 68 65 61 58 61 64 66 66 64 60 59 59 58 58 54 53 47 43 44 47 49 50
26 25 22 22 25 28 31 43 53 50 49 47 51 50 52 51 47 43 42 43 47 51 54 57 61 64 64 58 53 54 55 56 56 55 57 60 61 63 60 56 51 45 47 49 48 46 45 47 50
24 27 29 33 32 43 42 47 58 56 58 55 56 58 61 56 49 46 45 46 49 53 58 59 57 56 58 58 56 55 54 53 54 56 56 56 58 56 53 49 47 46 45 43 43 43 40 43 48
29 38 52 58 64 62 48 52 67 63 56 56 58 60 58 56 54 54 52 55 55 54 56 57 56 56 55 55 55 58 58 58 59 58 56 57 53 49 47 42 36 34 34 35 38 39 43 43 45
32 34 52 57 70 62 44 56 60 57 59 65 67 65 64 62 61 58 56 60 64 66 64 61 59 59 56 57 56 55 58 58 61 62 62 56 51 45 43 41 34 30 32 35 38 42 46 50 50
36 31 29 44 45 51 49 57 62 64 66 66 69 71 73 69 62 61 60 62 63 62 64 63 60 60 59 60 62 64 69 68 65 63 56 50 50 41 37 31 28 31 34 36 43 46 49 53 58
30 28 41 46 50 45 46 62 67 64 64 67 67 70 70 62 64 69 69 67 65 64 62 60 61 62 65 63 62 62 64 62 56 53 50 42 37 34 26 26 31 35 39 45 47 52 55 61 69
34 37 35 35 47 56 59 52 52 59 63 63 58 60 61 63 65 66 66 62 59 59 57 57 59 59 55 53 54 53 47 44 44 46 42 41 38 29 32 34 34 37 39 44 48 52 52 51 47
27 31 35 50 47 61 64 51 44 53 60 64 71 70 66 67 68 65 60 58 58 56 55 54 50 48 46 43 40 42 53 54 57 54 57 67 51 54 54 49 48 46 43 47 48 45 44 41 43

GFSSGP_prec_cthk_018.txt.gz
RH
21 25 18 23 40 38 45 55 53 56 58 57 60 62 65 67 63 74 73 66 64 64 55 47 44 40 41 40 38 35 33 28 23 21 19 16 15 14 14 15 13 10 9 11 11 12 12 13 13
16 13 22 17 25 43 50 58 60 63 66 64 61 60 63 73 64 67 67 63 57 55 48 46 41 40 42 40 35 31 26 20 20 18 17 15 12 10 10 7 8 8 8 8 8 8 8 10 12
20 17 14 19 18 39 52 58 64 62 61 61 61 59 59 68 62 54 56 60 57 52 47 46 43 41 41 33 25 19 17 18 18 17 14 11 10 10 7 9 10 10 10 11 11 10 9 9 8
21 21 30 32 32 40 49 52 54 56 59 59 49 48 48 40 40 42 44 45 45 44 45 45 43 34 27 18 17 18 18 17 16 12 10 9 10 8 9 12 15 16 17 17 17 17 15 15 15
36 16 35 40 43 43 52 58 49 53 58 57 48 49 46 51 37 40 40 38 38 38 40 34 28 18 16 18 18 16 15 12 9 8 10 11 10 11 14 16 17 18 20 22 22 24 24 24 23
34 31 42 58 59 56 61 62 55 56 55 52 49 46 39 42 26 31 32 28 28 23 20 18 17 17 16 14 11 10 7 7 7 9 11 12 16 19 20 22 24 26 28 29 30 31 31 32 32
23 38 44 41 63 62 58 56 53 52 50 52 50 39 37 38 27 28 26 15 16 17 17 18 17 15 13 7 5 5 6 8 11 14 19 23 25 27 28 31 30 30 29 30 31 31 32 33 34
34 37 42 46 63 59 55 51 48 46 46 44 37 29 30 27 25 25 23 17 18 18 19 21 21 17 12 8 8 9 13 17 21 25 28 31 32 32 32 33 33 32 33 32 32 32 33 33 33
41 39 44 47 49 52 48 39 37 40 37 30 28 26 24 22 21 21 20 20 20 23 25 24 19 19 19 18 19 22 24 26 28 32 34 35 38 39 36 36 36 36 36 35 36 35 35 35 34
35 33 36 46 45 42 38 34 28 29 30 30 29 27 26 22 21 20 21 22 23 24 26 26 18 19 21 25 27 29 32 36 37 39 37 37 40 40 40 40 38 36 37 37 37 35 36 36 35
32 28 27 31 35 31 30 24 18 15 21 16 17 21 24 24 26 24 20 19 25 33 38 36 28 20 21 27 34 36 38 39 40 40 41 40 40 41 41 41 38 37 36 37 37 37 37 37 39
26 24 23 26 26 24 23 18 9 9 14 15 18 21 25 28 24 20 20 30 39 42 45 44 37 32 31 29 35 38 39 41 42 42 42 39 41 42 42 44 45 44 41 40 39 39 38 37 36
27 26 24 23 21 19 19 10 7 10 14 18 21 24 24 28 28 26 28 32 39 42 46 49 47 42 44 35 44 46 43 47 48 48 44 41 43 45 47 50 50 49 47 43 41 41 39 36 36
27 24 17 21 23 20 10 8 10 13 15 21 22 23 24 29 32 32 33 36 38 40 48 50 56 57 57 53 54 58 59 57 54 52 52 49 48 50 52 53 51 51 49 47 45 44 42 41 39
23 21 8 12 14 6 7 11 16 19 22 24 24 23 26 29 33 34 36 36 39 41 46 44 55 63 61 62 62 64 62 63 58 54 52 56 56 60 60 58 54 53 52 52 50 50 50 49 46
16 14 18 23 21 17 12 21 27 24 24 26 26 25 26 30 35 43 48 46 46 47 53 57 65 65 67 62 67 64 61 63 59 57 62 61 63 63 63 57 57 56 56 59 59 55 48 48 50
26 25 26 25 28 25 24 28 26 27 25 29 30 28 30 35 40 45 48 48 49 52 60 73 83 74 74 71 63 61 63 62 64 68 70 71 72 66 62 63 64 60 63 61 56 51 44 39 36
33 29 26 28 30 26 29 27 25 24 29 27 27 28 31 32 40 48 48 50 54 57 67 75 75 79 83 79 64 63 62 73 77 77 74 72 69 69 70 71 70 68 64 56 46 41 38 35 33
36 34 32 34 33 31 34 35 30 30 33 36 38 38 37 38 43 50 56 60 61 71 77 76 81 76 70 72 68 69 75 79 80 78 77 72 73 72 69 72 68 58 50 46 44 42 40 40 39
40 37 37 32 30 28 30 32 37 37 39 39 38 39 38 49 50 52 58 67 81 79 75 68 65 69 70 67 74 78 79 79 80 78 74 71 69 71 68 61 56 54 51 51 49 47 44 40 39
39 40 37 36 33 27 29 34 36 39 40 41 45 49 51 57 56 60 62 64 63 61 62 60 60 61 67 71 75 77 77 77 73 68 67 68 64 61 58 55 55 54 52 49 42 38 38 40 41
29 35 37 34 30 25 29 46 42 45 44 44 45 47 52 59 57 58 57 55 52 50 50 52 56 60 62 63 65 67 62 57 55 56 54 54 54 53 52 53 53 49 40 34 35 37 40 43 42
25 25 25 24 25 27 34 44 49 49 48 48 55 58 60 58 59 58 55 51 48 48 49 49 52 55 54 54 51 50 51 52 50 52 52 53 55 56 57 54 43 38 38 35 35 36 38 36 36
24 25 31 32 32 40 40 47 53 51 51 58 61 64 60 59 57 51 49 49 48 49 50 49 51 53 55 55 54 53 51 51 53 55 62 64 70 59 58 53 42 37 34 31 33 33 35 36 37
28 35 49 54 56 56 47 55 57 56 60 63 65 61 61 60 55 57 57 56 51 51 54 57 59 61 62 57 53 54 57 60 62 64 61 76 74 56 53 45 39 31 25 26 27 28 31 34 38
29 33 51 55 62 61 49 60 61 60 62 69 61 59 64 65 68 65 63 65 61 60 60 61 60 60 58 57 58 58 60 62 61 57 55 52 47 42 45 47 33 28 28 29 28 32 36 39 42
33 32 32 43 47 52 51 51 53 55 61 64 68 79 75 70 66 62 67 71 72 70 64 63 61 59 57 56 57 57 55 50 46 41 38 38 38 44 51 45 40 40 38 40 40 46 47 47 47
24 26 36 40 42 46 48 55 62 61 66 65 60 63 63 63 65 72 74 76 73 68 62 61 62 60 57 55 52 47 41 37 36 42 43 46 50 55 62 62 61 58 61 52 58 60 56 51 42
29 31 32 35 43 50 59 51 45 53 55 56 60 60 62 66 74 79 81 79 76 68 63 60 59 56 52 48 44 38 39 40 41 46 49 51 53 67 78 78 77 67 72 64 61 59 53 43 47
26 29 33 43 38 52 53 49 47 49 50 55 60 63 68 72 77 78 74 72 66 62 60 56 53 49 46 41 41 43 44 41 45 47 44 50 68 71 80 76 68 66 73 68 60 53 45 42 39

GFSSGP_prec_cthk_021.txt.gz
RH
28 31 24 26 37 37 37 42 60 57 60 65 70 69 73 74 75 82 80 74 69 67 57 54 54 45 40 38 38 34 30 26 19 18 18 16 15 11 10 8 7 7 7 7 8 8 8 10 11
29 22 36 29 37 40 52 58 63 67 67 65 67 75 77 80 73 76 81 73 68 55 56 51 46 38 40 40 37 32 24 18 18 18 17 14 10 8 5 7 8 9 10 10 11 11 11 10 10
37 20 27 21 35 47 56 62 67 66 70 69 67 73 74 79 75 64 65 63 61 62 57 54 43 38 40 40 32 22 18 18 18 16 13 9 8 6 8 11 13 14 15 16 16 17 17 16 15
40 26 18 26 22 37 53 55 60 69 68 64 73 68 65 62 58 56 52 49 50 50 50 45 41 39 37 30 19 19 19 17 14 10 8 10 8 9 13 17 18 18 19 21 22 23 24 24 24
43 27 24 32 42 43 48 60 62 64 65 66 64 67 64 64 58 52 45 44 46 46 45 44 41 31 23 17 18 17 14 9 7 8 9 10 14 18 21 24 25 25 25 26 26 28 28 28 30
39 29 37 67 58 56 65 64 59 65 65 63 65 64 62 54 50 43 40 40 42 43 41 33 25 17 17 17 14 10 6 5 7 11 16 22 24 25 27 28 28 28 29 28 28 28 29 30 30
38 28 41 52 61 61 62 61 68 63 62 60 57 52 56 49 43 34 31 37 35 27 20 17 17 16 15 10 6 6 6 9 14 21 25 26 29 32 33 33 32 31 31 30 30 29 28 29 30
37 39 41 50 69 67 59 60 64 59 55 51 44 42 45 35 30 26 18 16 17 17 18 17 17 14 11 6 6 8 13 18 23 25 29 33 36 36 34 34 35 34 36 34 34 33 32 32 31
34 42 47 57 62 69 61 56 55 46 41 36 28 30 28 21 23 20 16 17 17 19 20 19 17 15 12 12 15 19 22 24 27 32 33 35 38 38 39 40 40 40 38 37 34 35 35 35 35
34 37 46 52 53 56 51 51 46 39 36 29 26 29 27 21 19 18 16 16 19 20 21 19 18 17 18 19 23 25 29 31 35 37 33 34 36 38 37 41 41 42 44 43 41 40 40 40 39
37 36 39 46 50 45 42 39 34 26 23 19 17 21 23 20 20 18 17 16 20 30 32 30 27 26 22 25 26 31 32 33 34 35 35 36 37 37 37 39 42 45 47 46 45 44 43 42 40
34 31 31 37 48 34 28 27 29 14 17 15 17 18 22 24 25 22 19 19 29 39 40 40 34 33 29 30 33 37 40 43 45 47 45 42 42 39 39 43 45 46 48 49 49 47 46 44 42
29 26 25 24 25 26 24 24 15 10 16 19 20 23 23 27 27 26 25 30 34 37 41 43 43 42 42 44 46 48 54 55 56 52 50 46 42 41 43 48 50 51 51 50 50 50 50 49 49
28 27 25 23 23 22 21 13 8 11 20 23 22 24 27 31 31 34 34 34 34 36 43 48 47 50 53 54 55 55 59 58 53 53 50 49 47 50 52 57 56 54 50 50 52 52 52 53 52
27 26 20 14 17 20 15 9 11 17 23 23 25 26 29 36 39 40 39 38 40 41 48 53 56 60 65 68 67 62 61 55 50 51 52 54 61 64 63 64 58 54 51 54 55 55 54 52 49
26 27 18 20 19 13 9 14 17 24 27 26 28 31 33 38 40 41 43 43 47 50 55 70 75 82 82 81 81 77 73 61 57 56 60 67 67 69 66 60 58 56 55 58 56 53 49 42 36
26 20 25 29 28 22 19 24 23 29 29 27 34 36 35 37 39 43 47 52 56 55 62 80 82 87 91 89 84 70 66 63 64 68 70 72 75 72 66 65 63 60 58 52 49 43 37 37 35
24 26 25 28 27 25 23 24 28 24 27 30 36 37 36 36 38 42 51 57 58 66 77 88 92 92 91 86 75 71 71 70 74 78 78 77 74 73 71 69 62 55 51 49 42 38 37 36 34
24 25 29 29 28 27 30 31 32 29 29 36 39 38 41 42 42 49 50 53 62 73 84 88 89 78 75 75 75 74 74 79 81 80 81 78 79 75 68 61 58 55 50 46 44 41 39 35 30
33 32 29 28 32 31 33 36 37 37 37 39 40 44 49 53 58 61 61 70 78 82 77 67 68 74 76 73 70 76 81 79 77 77 77 75 70 65 60 58 56 51 48 48 45 40 33 28 28
38 33 35 36 37 37 34 38 40 44 46 47 50 53 60 62 63 63 70 69 68 67 63 62 59 60 64 67 68 68 68 69 69 67 63 58 56 56 57 57 57 59 55 45 38 31 28 26 26
37 38 36 38 38 44 36 48 42 46 51 56 55 54 61 63 67 67 64 61 59 58 55 54 57 59 61 60 64 65 66 64 64 63 61 60 63 62 60 56 65 62 52 42 29 25 26 28 28
30 30 30 33 39 40 38 44 43 49 54 56 58 60 62 67 63 61 59 58 57 55 56 54 55 55 57 61 60 61 62 64 62 61 60 57 61 61 60 56 51 49 47 34 28 30 33 31 30
27 31 35 38 36 43 40 44 49 49 51 57 61 66 66 71 67 61 59 59 58 60 59 57 58 59 61 63 64 63 59 58 58 58 58 58 54 49 43 39 37 36 33 30 32 33 35 35 36
27 33 45 49 50 50 41 47 47 47 51 58 64 64 69 68 66 64 70 71 70 66 65 66 65 63 60 57 56 57 56 58 56 53 50 46 42 38 37 39 44 44 39 38 40 44 44 50 51
30 35 50 49 57 51 46 54 51 51 55 58 58 57 60 63 73 76 72 69 64 67 66 67 63 56 53 54 55 55 53 49 46 42 36 32 35 39 44 49 47 42 51 52 51 51 58 59 60
30 32 34 45 52 55 51 46 50 50 53 55 56 57 63 78 70 62 60 63 69 71 68 64 59 55 55 54 52 48 44 42 38 34 33 33 37 39 41 45 50 63 64 69 67 62 57 58 53
26 28 35 40 41 43 45 47 50 48 51 54 58 63 63 61 58 60 65 72 71 72 72 69 62 59 57 52 46 44 43 38 37 36 38 43 44 48 53 53 61 67 68 69 68 66 68 59 55
29 28 32 36 42 47 52 46 38 44 46 50 53 51 52 56 62 67 71 74 73 73 72 67 62 62 54 47 42 39 36 37 38 38 41 47 50 54 53 51 63 73 74 75 77 74 65 58 50
25 26 28 37 35 49 49 39 34 41 44 46 49 52 55 59 64 68 72 76 77 76 70 69 66 56 50 44 38 36 35 33 31 37 45 50 44 41 41 43 58 75 74 81 76 71 66 50 50

GFSSGP_prec_cthk_024.txt.gz
RH
30 31 30 34 33 38 35 48 63 63 63 63 65 70 77 85 80 80 77 80 79 74 70 64 56 54 44 39 39 38 33 25 20 20 19 17 13 7 6 7 7 8 10 11 12 12 12 11 10
31 34 31 29 33 43 46 46 67 70 74 75 79 84 81 92 87 83 82 81 80 75 63 60 58 49 41 38 38 33 26 20 19 19 15 12 8 6 8 10 12 14 14 15 15 16 16 16 16
36 36 27 35 38 41 49 66 75 74 72 74 75 77 80 80 83 81 79 72 69 65 62 58 54 45 40 37 34 23 19 19 18 13 11 9 7 9 12 15 17 18 19 20 21 21 22 22 23
39 37 28 34 31 34 50 71 67 75 71 75 77 73 75 75 79 69 64 63 60 57 56 55 52 42 38 32 20 18 18 15 11 9 9 8 12 15 18 20 22 23 23 24 24 25 25 26 26
38 39 25 31 35 46 50 65 72 70 73 72 68 66 76 68 66 60 60 60 56 54 55 52 46 37 27 19 17 16 13 7 7 8 12 17 20 21 22 24 24 26 27 27 29 30 30 29 28
38 41 29 56 48 46 50 62 73 77 70 67 68 63 64 58 56 58 56 52 52 53 48 47 37 26 17 16 15 10 6 6 10 18 22 23 26 26 27 27 29 29 28 28 28 28 28 27 26
40 38 32 62 57 49 58 66 74 78 71 68 68 54 51 47 51 47 42 44 44 53 45 31 21 17 17 14 8 6 7 13 20 24 27 31 31 31 31 31 32 33 34 33 32 31 30 30 29
42 38 37 57 69 63 65 63 72 65 61 57 53 47 42 34 38 34 38 41 42 30 20 19 17 15 12 7 6 8 14 20 24 28 31 33 32 32 33 33 35 37 38 38 38 36 35 34 33
43 40 39 51 66 68 64 64 68 57 49 48 40 34 29 28 28 26 27 23 18 17 17 17 15 12 9 8 10 17 21 26 31 34 35 35 33 34 35 34 37 37 39 40 43 41 39 39 37
43 39 39 52 60 68 61 63 58 53 44 39 34 31 29 23 22 16 14 14 16 17 19 18 17 15 14 16 19 23 26 32 36 36 37 37 38 37 37 37 39 43 44 44 45 44 43 41 42
36 36 38 55 60 59 52 51 54 42 31 25 24 24 24 21 19 16 15 15 16 22 27 23 21 19 20 22 25 30 34 40 40 43 47 48 48 46 44 44 44 46 47 47 47 48 47 45 45
36 37 38 46 50 45 41 42 40 31 20 19 20 20 21 22 20 17 17 16 25 32 38 37 35 31 27 31 36 39 45 50 50 56 54 50 49 49 49 47 47 50 52 51 48 46 47 48 48
36 36 30 35 43 41 35 33 29 20 20 21 22 23 25 26 27 26 23 22 39 45 45 45 45 45 44 43 50 52 55 60 61 58 51 47 48 51 50 51 54 57 55 50 48 48 50 51 50
32 30 30 30 35 30 28 25 15 13 24 23 24 27 31 33 34 35 35 37 44 48 52 54 54 50 51 57 59 64 65 68 70 61 55 53 53 57 59 58 61 62 59 56 53 52 52 52 48
29 30 28 20 19 24 24 14 10 19 28 26 26 29 33 36 37 41 42 43 47 50 52 59 61 64 67 70 77 79 82 80 69 60 58 59 62 67 66 67 67 64 63 62 58 56 52 47 41
30 29 18 18 17 18 17 13 18 28 30 30 31 33 35 38 39 42 42 46 48 50 54 61 69 81 84 88 89 86 85 80 74 71 67 67 73 75 75 70 70 66 70 68 56 48 44 41 37
30 29 29 24 19 19 13 16 23 34 36 33 32 35 36 38 42 45 47 51 56 59 59 68 79 84 94 91 83 84 87 86 79 73 76 84 85 78 78 71 73 70 62 52 48 47 45 40 36
26 27 28 24 24 24 22 31 31 31 40 36 35 39 42 44 46 50 54 57 59 62 65 74 84 88 94 93 86 83 80 76 77 80 86 81 75 80 73 74 67 54 50 48 47 46 43 38 33
25 27 28 27 24 28 34 37 37 33 38 38 40 42 45 47 51 54 56 61 63 67 79 95 90 90 87 82 79 75 75 79 84 79 70 71 68 67 63 57 52 52 51 49 47 46 43 39 34
30 30 33 30 30 30 37 38 38 34 37 38 40 43 45 49 58 59 59 64 74 85 89 78 75 73 69 64 67 71 73 66 63 61 60 59 58 55 51 50 50 50 50 51 48 41 35 32 28
33 31 33 34 38 38 39 43 42 39 38 39 42 45 49 53 60 64 69 72 73 71 67 64 61 57 60 61 56 56 56 57 58 59 59 57 54 52 54 54 54 52 47 40 33 27 22 21 22
40 39 36 35 39 44 39 49 46 46 45 46 49 54 55 57 61 64 64 64 65 61 55 54 55 59 59 57 57 59 60 61 61 58 58 58 59 59 57 52 44 39 36 31 27 24 24 26 29
32 33 32 34 37 38 40 46 42 47 49 50 54 55 57 58 58 59 65 64 61 58 60 65 66 64 62 62 62 62 63 63 61 62 62 61 56 50 49 42 38 36 34 33 30 30 30 32 36
27 30 33 37 38 44 37 38 40 44 44 49 54 57 56 55 58 69 71 65 64 67 75 70 71 71 70 69 64 64 62 60 59 58 54 50 46 37 33 31 30 29 31 29 35 34 34 38 38
28 33 46 49 52 50 39 42 36 39 44 51 55 57 59 60 59 61 65 72 80 76 74 72 72 70 69 66 62 60 58 55 51 46 42 36 32 31 30 31 35 37 37 38 46 46 49 50 50
30 34 47 46 57 50 43 47 43 43 46 52 56 58 58 58 61 67 79 78 66 67 69 69 70 69 66 63 57 55 49 46 44 41 38 36 37 36 35 39 42 44 46 47 46 47 50 55 52
32 35 38 50 52 56 50 43 43 44 45 48 49 52 55 57 62 65 63 59 61 65 68 69 69 67 64 57 56 51 48 46 41 39 38 37 37 37 41 43 47 48 48 48 55 59 64 62 62
34 33 35 41 38 37 42 42 44 40 41 44 47 49 54 58 56 57 59 60 61 63 65 67 68 66 60 61 56 50 46 42 41 38 39 36 37 39 41 41 41 45 47 52 59 65 69 68 67
32 30 32 35 41 44 48 41 32 36 39 42 46 49 53 55 56 57 56 59 61 65 68 72 68 65 69 61 52 49 47 43 42 40 36 33 31 29 29 36 43 46 47 63 65 66 71 76 74
27 27 28 35 31 46 45 35 28 33 38 41 46 49 52 54 54 56 61 63 66 68 72 65 70 74 63 57 54 51 48 44 40 36 31 30 29 28 30 38 42 51 55 54 66 70 74 74 68

GFSSGP_prec_cthk_030.txt.gz
RH
24 22 22 25 29 28 36 40 49 61 68 69 64 66 66 63 64 69 77 77 81 85 80 76 79 69 60 52 49 43 33 24 20 18 15 9 7 8 10 12 13 15 15 16 16 16 16 17 17
22 20 24 27 26 30 35 36 56 69 70 69 67 73 69 67 72 72 77 81 85 83 78 78 75 67 59 53 47 36 24 23 20 15 10 8 9 11 14 15 16 17 19 19 20 21 21 21 21
20 21 28 30 26 31 36 57 62 64 70 76 77 79 76 75 76 81 86 85 87 88 83 79 73 66 61 51 40 27 23 22 15 12 9 11 13 15 17 20 22 23 23 23 23 22 21 21 21
21 25 29 34 32 34 48 69 62 64 66 72 84 84 83 83 89 81 88 80 90 91 88 76 66 64 63 43 32 24 22 15 12 8 12 16 18 21 23 23 23 24 25 24 23 22 23 22 22
25 29 34 38 37 33 47 67 68 71 73 78 76 80 86 83 78 76 82 86 96 94 87 73 68 72 52 35 27 22 15 10 9 15 20 23 25 26 26 26 26 27 27 26 26 25 25 26 24
28 30 35 39 53 47 47 63 68 75 70 69 71 69 73 78 66 76 96 98 94 87 78 70 70 67 38 29 23 16 10 10 18 23 27 28 27 28 27 29 30 29 28 28 27 28 29 28 28
29 31 39 53 60 57 49 58 63 70 72 69 72 70 69 68 64 87 86 82 78 78 75 75 67 44 31 25 18 11 10 19 26 29 30 29 29 29 30 31 32 33 35 36 36 34 33 33 33
29 35 48 59 59 56 59 62 66 68 66 70 72 64 65 58 64 67 69 66 67 71 74 72 47 33 29 20 11 9 17 28 32 34 34 33 34 34 36 37 38 43 45 45 43 42 38 38 36
26 29 43 63 60 59 63 68 66 65 71 74 71 60 44 52 50 54 62 61 61 66 64 39 35 31 26 19 10 15 28 33 38 40 39 39 46 46 47 45 48 50 48 47 47 46 43 38 36
26 32 38 44 55 56 62 68 72 75 71 67 58 49 37 42 44 50 53 55 57 50 32 31 29 22 15 16 15 27 36 43 45 47 46 53 52 52 48 47 47 48 46 45 44 46 43 42 40
33 41 38 49 55 60 61 64 64 60 56 45 43 41 35 41 45 51 45 46 34 31 31 28 20 17 17 22 28 37 45 48 48 49 57 59 58 56 55 52 54 47 48 51 50 49 46 44 44
39 40 39 51 59 61 53 55 68 60 45 34 32 31 29 35 35 36 33 31 31 33 31 23 20 21 23 30 36 41 50 52 58 61 62 62 66 63 62 61 57 57 58 55 56 54 50 47 45
38 39 47 50 51 47 43 51 52 49 37 30 33 33 31 29 32 32 31 32 36 41 41 35 29 30 33 37 42 45 53 60 66 76 76 72 72 70 69 66 64 66 66 64 62 61 54 53 52
40 39 44 50 47 47 42 36 47 41 36 32 33 35 33 30 29 28 31 39 47 49 49 46 50 45 47 48 54 58 63 69 75 85 94 91 87 79 74 74 74 71 68 68 67 63 59 59 53
38 37 33 39 40 50 33 28 28 34 36 45 44 42 40 40 39 35 36 44 46 54 64 66 65 70 72 67 72 73 77 80 81 83 90 86 86 81 81 81 80 76 68 64 66 61 56 53 49
35 34 31 30 34 45 35 27 24 29 37 42 46 47 49 48 44 42 40 45 48 59 65 70 80 80 82 87 86 91 88 72 78 82 89 90 85 83 86 84 80 69 63 61 59 53 49 46 42
37 35 33 28 28 35 30 20 24 30 39 41 47 48 50 50 48 50 52 54 57 62 69 74 79 78 86 94 89 84 84 89 85 82 79 79 81 82 77 69 62 59 58 56 52 49 45 42 37
38 34 26 24 26 24 26 22 29 36 41 44 46 47 49 48 50 51 54 56 62 67 68 71 78 83 91 80 86 73 75 73 74 70 69 69 64 61 58 58 57 57 56 52 48 44 39 35 32
32 32 35 31 26 25 25 23 38 45 44 46 44 46 46 47 50 49 49 54 62 66 69 77 80 89 82 74 68 65 64 64 66 62 56 54 55 57 58 57 56 55 52 48 43 40 35 33 33
30 29 33 40 39 34 33 31 40 39 43 43 43 41 43 47 50 50 53 59 62 68 76 80 81 75 72 69 60 60 59 63 64 63 63 63 65 64 62 61 59 53 50 47 40 33 31 30 31
37 38 36 39 37 36 34 36 36 36 36 36 39 40 41 45 46 50 54 58 66 72 77 73 73 72 66 60 64 66 68 68 69 67 69 67 66 65 62 56 51 48 42 36 35 34 31 33 30
38 36 35 37 38 39 37 37 35 35 37 36 37 38 41 43 50 54 60 63 65 62 67 75 67 62 62 66 70 70 68 70 70 70 71 70 68 64 59 51 40 35 35 35 36 36 36 35 33
40 39 37 32 32 33 33 33 42 38 37 40 40 40 45 49 55 62 60 58 59 56 56 61 62 64 65 65 66 65 69 72 72 70 72 69 65 54 46 41 38 37 39 43 41 38 38 38 40
39 39 36 39 35 37 33 29 29 34 31 36 42 41 45 50 58 59 54 58 57 56 58 58 59 58 59 61 65 69 71 71 66 67 64 59 54 53 54 49 44 43 42 43 42 45 47 49 47
39 37 37 37 35 31 30 27 21 26 28 33 38 42 48 52 54 54 55 54 55 58 61 60 59 61 64 66 66 65 66 64 62 61 57 54 55 56 54 51 44 45 48 46 46 50 53 57 55
32 34 35 28 32 32 32 30 31 29 31 36 43 45 48 49 50 52 54 57 59 60 60 58 59 63 65 62 58 64 60 63 66 58 56 52 53 51 45 39 42 41 49 51 52 51 52 59 53
32 29 31 34 39 39 29 28 28 29 32 36 41 43 47 47 49 52 55 59 59 59 57 58 62 63 62 58 65 61 66 68 59 53 48 51 48 44 42 43 43 43 48 49 51 50 53 54 50
29 29 31 34 39 29 22 23 23 26 28 32 36 39 42 44 48 53 58 59 57 56 57 61 63 61 59 62 67 72 67 62 55 52 51 47 43 39 38 37 38 40 41 47 51 49 54 56 56
32 30 31 30 30 25 22 17 18 20 23 28 32 37 41 44 46 50 55 56 56 58 61 64 63 62 67 72 74 66 66 59 56 51 47 44 40 39 37 35 34 39 44 48 51 54 57 51 60
29 32 28 26 27 31 29 18 16 18 20 25 30 34 40 45 46 51 53 54 55 59 64 64 63 68 71 71 64 68 59 58 52 47 45 43 44 40 38 38 41 40 45 48 50 50 56 60 68

GFSSGP_prec_cthk_033.txt.gz
RH
23 23 23 24 25 26 28 34 39 58 58 60 60 56 62 67 71 77 81 71 73 78 69 68 73 73 66 57 52 44 32 23 20 17 13 9 8 9 11 13 14 15 16 17 18 19 19 19 19
25 23 23 27 26 29 26 31 50 54 81 74 67 67 63 70 72 74 74 79 82 82 75 75 78 74 63 59 52 37 23 22 20 14 10 9 10 13 14 16 18 19 20 21 22 20 19 19 20
24 24 27 27 29 28 27 55 54 58 65 68 71 69 68 76 81 80 80 81 87 81 82 81 80 76 64 63 48 27 23 22 15 11 10 12 15 17 20 21 22 22 23 23 22 21 21 21 21
26 23 27 30 35 30 34 57 56 60 57 63 69 75 78 80 85 86 85 86 86 89 85 82 86 74 66 60 35 25 23 16 12 9 14 18 21 23 23 24 24 24 25 25 24 24 24 23 23
28 27 28 35 34 33 37 67 63 63 71 68 73 77 85 81 81 79 87 87 90 93 88 86 85 73 71 51 29 23 17 12 9 16 20 24 26 26 25 25 26 26 27 27 27 27 30 29 28
28 28 31 31 33 44 43 57 67 56 59 58 67 71 72 75 81 83 87 90 94 96 97 91 81 78 69 36 26 18 12 10 17 22 27 28 28 27 27 29 30 30 31 32 38 38 38 36 32
29 30 30 31 53 57 51 57 68 72 64 60 68 67 69 78 84 87 92 98 92 96 95 84 81 77 50 29 21 13 10 15 23 30 31 30 30 30 32 32 33 34 36 41 45 44 42 39 36
30 31 33 37 47 66 61 55 61 60 58 80 67 73 67 69 84 83 88 89 97 91 85 91 84 59 35 25 16 11 12 23 29 33 32 32 33 34 36 39 41 44 44 46 46 43 43 40 39
30 31 32 46 67 59 63 60 63 63 55 67 76 62 64 64 70 84 97 92 84 92 96 92 70 48 39 21 13 11 21 30 35 36 35 39 51 49 50 45 45 46 47 46 47 45 42 44 43
30 27 30 48 51 73 64 52 58 60 60 57 52 64 50 52 66 72 83 78 83 87 77 70 49 40 33 25 12 18 31 39 45 47 45 58 56 57 56 46 47 48 49 52 52 50 49 49 47
29 31 42 39 50 56 57 60 58 58 59 59 61 53 42 49 56 68 68 70 74 63 51 45 37 29 28 25 28 36 44 48 51 54 57 61 65 67 66 63 63 63 58 62 59 59 57 53 48
30 32 39 46 58 52 53 61 55 72 61 63 47 39 39 45 50 56 64 63 47 39 38 36 27 25 29 30 39 47 57 57 56 62 65 67 71 80 71 74 72 69 71 68 66 66 61 59 53
35 39 37 57 56 55 57 60 67 71 54 39 38 36 40 44 46 50 49 39 40 37 33 30 28 28 30 38 46 52 56 56 65 72 77 80 80 78 81 78 75 73 73 72 71 67 60 58 55
39 38 48 52 49 56 54 57 64 36 42 40 39 40 43 44 49 47 42 42 40 44 42 35 35 37 41 47 50 60 70 65 66 69 77 83 84 82 83 82 82 82 80 80 72 60 53 54 52
37 40 44 50 47 42 60 35 52 32 43 40 43 48 43 41 37 38 39 41 49 49 49 55 58 55 60 61 63 65 61 65 66 76 79 80 85 86 88 84 82 93 75 73 59 58 55 51 49
38 35 38 42 44 50 51 44 31 35 48 51 48 45 45 39 38 36 41 47 51 55 56 58 61 67 71 72 76 74 71 72 79 77 76 77 86 87 83 84 76 66 61 56 57 54 50 47 41
37 40 36 35 35 40 51 52 25 29 39 49 52 52 51 49 45 43 46 52 59 63 66 69 75 78 78 82 83 86 87 81 77 79 79 85 78 74 70 62 58 56 56 55 51 49 46 41 35
40 39 34 32 29 34 40 38 20 28 40 50 57 54 54 51 49 52 51 54 60 66 68 71 73 74 79 83 72 80 71 69 73 73 72 68 62 57 58 57 55 54 56 54 52 46 41 37 35
41 37 29 32 27 32 32 26 24 28 38 48 55 53 53 51 52 54 54 57 65 67 70 74 74 75 81 78 73 70 72 72 66 62 58 57 57 58 59 60 59 61 62 56 50 45 39 38 37
36 33 40 33 28 26 26 31 26 39 39 43 44 46 48 53 53 58 59 63 65 67 69 71 76 79 78 72 71 70 63 62 64 59 58 60 61 63 63 64 67 65 60 52 47 42 42 39 37
36 37 38 36 34 29 38 38 27 30 38 39 37 42 46 49 52 54 58 61 64 67 72 76 82 75 79 75 65 64 67 63 60 62 65 67 66 66 65 66 65 58 50 47 47 46 44 42 42
43 34 36 37 34 33 30 38 43 37 29 37 41 44 44 48 52 55 59 58 64 68 71 71 68 68 66 62 63 62 63 68 68 68 68 67 66 68 67 61 53 49 50 50 49 52 51 50 48
52 36 37 39 35 49 42 32 47 57 43 35 37 40 45 49 49 51 55 61 68 64 66 69 66 63 58 56 60 61 65 68 68 69 69 69 71 67 60 55 55 56 53 55 56 57 55 50 47
34 35 39 37 39 42 32 42 34 47 45 43 38 41 44 48 48 52 56 60 58 61 64 66 57 58 59 57 58 62 65 65 67 71 66 66 67 60 60 61 58 54 52 58 56 55 49 53 51
38 42 46 50 45 41 38 34 31 34 35 39 37 39 45 44 45 47 50 49 54 59 62 61 57 57 59 58 60 62 61 59 63 66 66 71 60 58 57 53 51 50 49 48 53 50 48 51 54
36 43 49 45 38 33 40 28 33 29 23 30 38 41 45 44 45 45 47 50 52 57 58 56 57 58 59 60 62 60 59 63 68 70 67 57 60 60 53 48 49 49 48 49 49 50 51 54 54
42 35 37 41 39 33 20 32 30 23 25 30 37 40 45 45 45 46 48 51 53 56 58 59 57 58 60 61 61 61 61 71 83 65 58 61 56 50 45 47 48 46 42 41 47 47 53 53 65
31 40 33 31 42 36 29 27 34 29 21 26 35 36 41 44 44 45 47 51 54 57 59 58 57 58 60 60 61 63 70 77 68 56 58 54 48 47 45 47 46 44 44 42 48 50 48 64 61
39 30 27 34 39 36 27 29 23 16 19 22 28 36 36 40 42 45 46 49 52 55 57 57 57 59 62 63 64 70 82 77 63 58 56 49 47 47 49 49 48 48 48 50 44 49 54 54 58
32 36 36 34 35 29 34 21 19 15 18 22 24 29 33 35 38 42 45 49 52 55 56 56 57 61 65 68 65 75 81 65 55 56 51 51 51 51 52 51 51 50 48 43 41 45 46 49 53

GFSSGP_prec_cthk_036.txt.gz
RH
18 23 23 23 22 23 22 20 47 47 58 60 58 57 66 67 72 74 78 83 85 75 69 64 62 63 60 60 58 50 40 23 19 15 10 8 8 10 13 14 16 17 18 18 19 18 18 18 19
18 26 25 24 24 26 25 53 56 53 62 60 55 62 65 66 74 79 81 83 80 77 70 69 71 71 70 66 58 47 27 22 18 12 8 9 11 13 15 18 19 20 20 20 20 20 19 19 18
20 26 25 27 25 25 29 54 49 55 55 57 51 55 63 75 77 80 86 84 82 79 73 73 77 80 74 69 57 38 24 20 15 9 10 13 15 18 20 21 22 22 22 22 22 22 23 23 22
25 27 25 26 28 32 44 50 44 61 58 54 58 60 62 74 77 80 89 94 86 83 78 80 86 81 76 69 55 36 23 17 10 10 13 17 21 23 23 24 24 23 24 25 25 26 29 30 30
27 29 26 25 26 29 34 42 47 50 59 61 63 62 59 67 73 89 91 93 91 87 90 89 90 83 74 63 51 29 18 12 9 13 19 23 24 25 26 26 26 27 27 29 30 35 38 37 38
28 27 30 28 30 43 43 47 45 49 72 60 61 59 53 58 63 86 94 97 97 97 94 92 91 85 70 60 42 23 14 9 13 19 24 26 26 27 28 28 29 30 32 33 38 40 40 40 38
30 30 26 30 34 39 49 56 58 65 73 65 53 68 80 61 70 82 85 95 98 98 95 96 90 81 63 49 34 21 14 11 18 25 27 28 28 30 31 31 33 36 37 41 43 42 41 41 40
32 31 31 30 29 50 63 69 61 72 72 60 57 55 71 69 77 79 83 87 95 93 93 96 90 73 54 46 26 17 12 18 25 28 29 30 30 32 34 35 37 40 41 44 45 45 46 48 44
33 32 30 29 40 63 59 73 66 61 62 58 52 69 65 59 66 82 89 92 95 91 96 93 77 54 42 28 18 13 16 23 29 30 36 41 45 44 44 39 40 43 45 46 48 51 54 54 51
32 34 25 38 53 57 55 81 67 59 54 56 58 85 75 51 66 86 89 91 97 96 80 80 61 44 29 19 14 16 23 28 34 35 45 62 56 53 49 50 48 50 52 56 60 61 59 57 56
29 28 34 41 54 55 50 55 57 56 52 65 58 55 47 56 68 81 90 89 95 89 82 62 50 36 27 18 19 26 31 41 46 55 47 57 51 60 69 65 66 67 68 66 65 65 63 62 56
32 32 35 42 66 56 57 60 59 59 63 60 66 59 45 57 57 77 83 81 74 66 53 40 33 31 31 27 29 35 40 46 49 43 48 52 59 71 70 70 74 74 74 70 71 69 69 64 54
32 39 34 42 46 56 56 63 72 64 57 69 50 35 38 47 51 58 65 68 52 42 33 25 23 27 27 34 44 46 61 51 57 62 58 63 68 72 71 74 74 73 73 72 71 67 66 56 48
32 40 42 44 49 52 58 68 71 52 61 71 38 32 37 43 45 47 44 40 36 35 32 29 27 31 40 47 50 61 69 64 69 66 68 73 71 74 77 73 77 78 76 69 71 60 51 49 46
42 39 44 48 45 57 62 64 40 58 56 41 40 35 35 45 60 44 42 40 37 41 40 40 49 52 57 53 59 59 66 67 68 60 67 72 71 74 74 72 79 77 68 53 48 46 45 44 40
38 42 45 43 43 55 57 73 42 45 44 43 45 46 40 44 43 40 42 44 52 54 52 56 57 61 67 65 65 67 72 69 63 63 70 69 68 69 72 70 65 55 48 45 44 45 45 42 38
40 42 37 44 37 47 56 54 40 40 46 44 45 40 37 35 38 41 42 47 53 53 56 58 64 68 72 75 75 72 72 71 66 69 67 70 68 66 61 51 47 47 48 48 48 49 46 40 33
47 46 45 35 28 39 52 46 35 27 41 51 47 48 45 42 40 41 44 51 57 58 60 67 68 71 73 73 74 70 67 63 64 65 67 65 58 48 47 47 48 49 51 53 53 50 45 39 36
48 45 38 35 30 31 47 44 33 23 33 48 54 55 54 47 47 44 45 48 55 58 62 64 64 66 68 73 74 68 64 60 60 59 55 47 46 50 52 54 54 56 59 57 52 45 41 39 38
47 42 45 37 24 24 35 33 31 21 25 34 45 52 52 46 46 46 47 49 53 54 60 61 67 68 74 78 71 62 58 55 52 46 46 51 53 57 58 58 60 61 60 54 44 40 39 39 39
39 40 43 41 29 23 38 26 35 24 30 34 37 40 42 45 47 48 49 51 56 59 60 62 71 73 73 75 61 55 51 50 47 50 52 56 58 60 59 62 63 60 55 46 42 39 41 44 42
43 49 44 38 42 32 35 46 38 34 34 35 37 36 38 44 49 48 50 52 56 57 60 68 70 70 66 68 58 54 50 49 55 58 58 61 62 61 62 64 57 54 52 47 41 42 46 45 43
45 41 35 35 37 41 40 45 41 44 42 36 40 39 42 45 49 47 49 53 54 57 67 67 62 64 73 62 54 54 59 59 62 64 66 69 63 63 62 57 58 56 52 46 43 47 52 52 49
41 32 32 32 39 61 53 54 54 49 51 52 50 45 42 43 46 51 54 53 52 55 57 61 73 67 62 55 57 58 57 60 62 63 62 67 67 71 63 60 57 52 46 40 44 49 49 51 48
31 41 48 71 67 48 37 37 44 45 50 53 51 47 40 43 45 48 50 53 58 58 60 62 62 59 58 56 54 55 58 61 62 59 63 67 78 74 55 54 50 42 39 41 46 47 49 52 51
45 32 50 72 89 55 45 40 35 31 32 32 39 41 42 44 47 50 51 55 55 53 57 58 57 57 56 55 53 55 56 59 59 59 64 80 74 58 50 48 44 43 42 45 46 47 48 52 49
41 39 42 52 58 44 24 20 31 38 26 21 31 35 42 44 47 48 47 46 48 51 54 56 54 55 54 54 54 55 59 59 59 66 74 76 65 59 46 44 43 43 47 45 44 47 47 49 51
25 33 38 33 38 39 36 33 48 45 32 21 35 34 38 41 44 42 41 42 44 48 49 52 54 57 56 55 56 58 61 64 65 68 72 70 63 53 44 44 46 50 49 51 50 50 45 46 47
38 32 27 30 48 53 43 42 35 31 21 19 27 36 33 37 37 37 38 41 44 48 50 52 57 62 59 56 57 60 64 67 72 66 67 70 70 57 45 48 52 53 56 54 51 48 47 47 48
36 48 43 51 33 39 42 36 30 24 16 20 21 33 35 33 36 37 38 41 43 48 51 53 59 61 60 61 59 64 71 74 76 64 75 74 62 48 49 53 57 58 59 54 53 45 45 45 45

GFSSGP_prec_cthk_039.txt.gz
RH
20 22 23 24 23 25 27 29 46 48 49 61 59 62 62 60 62 69 69 69 74 74 73 73 73 70 64 63 59 52 41 31 24 15 10 7 8 10 13 15 17 17 17 16 17 17 16 17 19
23 26 29 26 23 27 28 37 52 52 54 61 60 63 64 72 71 74 67 70 80 76 75 72 71 72 69 67 62 52 40 32 22 11 10 9 11 13 16 17 17 18 18 19 20 20 19 18 22
25 27 29 25 24 25 37 56 52 51 55 55 57 58 63 69 74 74 73 73 75 76 77 76 75 74 73 68 63 49 40 30 18 10 11 12 14 17 17 19 19 20 20 22 23 24 25 25 26
25 26 27 26 26 28 35 52 49 51 52 55 56 57 60 66 64 66 76 76 79 81 79 80 80 78 77 71 58 46 37 27 16 12 13 15 17 19 20 21 22 23 24 26 27 29 33 34 34
28 27 26 26 25 36 48 57 55 55 52 48 50 58 58 67 69 67 77 82 91 91 83 85 85 88 80 70 55 47 32 24 19 14 16 19 20 21 23 23 24 25 28 30 32 35 37 35 34
31 26 28 31 30 35 50 59 59 62 55 51 51 54 57 58 61 73 81 85 94 96 95 94 94 88 82 66 54 38 24 11 13 16 21 21 23 24 24 25 27 31 33 34 37 39 41 39 38
34 30 30 28 32 46 62 61 66 65 59 56 54 61 67 57 54 65 81 92 99 99 99 97 90 88 75 56 43 28 15 13 16 21 23 25 26 27 27 28 29 33 35 37 39 41 46 45 45
34 32 32 29 33 60 63 67 74 68 63 61 60 62 61 67 59 74 82 92 98 97 94 91 91 81 58 52 41 29 19 18 21 21 27 30 28 27 28 30 34 37 37 41 45 47 51 52 51
36 35 33 29 41 59 63 62 65 67 68 58 63 65 70 75 65 77 87 93 97 94 91 95 89 69 52 48 32 17 17 21 23 28 29 28 31 34 35 36 40 44 48 51 56 57 56 58 55
35 38 29 36 48 57 58 50 56 62 64 67 62 64 70 79 74 80 91 97 96 94 90 80 69 56 44 28 18 15 18 20 21 28 33 34 37 40 43 50 52 55 58 60 63 62 61 60 58
31 32 33 38 51 56 57 53 50 54 56 69 70 77 52 58 71 85 92 94 88 80 78 71 61 46 32 22 19 18 19 22 26 31 42 45 43 48 59 62 64 62 62 65 66 67 62 61 59
28 30 36 50 49 59 59 55 55 56 66 64 75 70 57 58 78 90 89 80 68 64 66 51 42 30 22 18 20 21 25 28 41 43 53 52 53 60 66 66 65 63 67 70 68 69 64 60 52
32 36 44 52 48 57 51 57 55 60 69 74 83 66 54 62 74 82 76 74 58 54 47 42 36 29 25 25 29 29 40 47 55 53 54 58 61 65 67 67 66 68 69 68 66 64 52 44 41
34 42 48 58 53 54 58 60 56 58 67 74 68 55 58 48 58 57 63 54 47 40 40 37 28 30 37 41 44 52 56 60 62 59 66 66 65 71 72 70 68 70 68 66 65 48 39 39 38
45 44 51 52 48 60 51 49 62 57 54 57 55 44 49 52 60 39 37 37 35 36 32 30 30 44 48 51 52 56 63 59 67 59 61 62 68 69 68 66 65 68 61 57 43 38 39 39 36
43 43 49 47 59 57 56 58 55 62 53 44 41 39 44 55 56 45 37 35 37 39 35 38 44 51 55 59 59 67 59 62 65 61 62 60 63 66 62 60 60 55 46 40 38 39 42 41 36
44 44 44 46 49 49 53 50 44 65 50 44 42 38 43 45 43 43 40 37 39 45 44 48 54 57 68 62 63 62 60 64 64 64 64 63 65 62 56 55 46 40 40 40 42 45 45 40 33
42 44 45 43 44 40 42 42 32 42 45 46 40 39 39 37 36 38 38 37 43 51 51 52 55 59 64 62 62 71 66 69 65 60 58 59 60 57 48 42 42 44 47 48 49 50 45 39 34
48 51 47 44 41 39 39 40 34 28 37 39 42 39 40 37 37 40 40 39 43 48 53 56 57 59 69 70 77 75 66 56 55 55 55 50 46 43 44 46 50 52 52 54 53 48 42 36 35
53 48 48 41 37 31 39 41 33 30 28 33 38 42 42 40 37 37 40 43 42 46 50 54 66 71 73 73 71 70 61 55 53 51 44 42 45 49 51 53 52 54 57 56 51 44 39 37 34
49 51 46 43 36 25 35 38 33 29 29 30 37 40 39 39 37 37 39 42 44 47 51 54 63 73 73 69 70 69 56 49 46 42 42 47 51 51 53 55 55 56 55 51 48 44 38 36 37
47 46 49 45 46 40 34 47 42 39 31 30 36 39 39 43 42 44 46 46 46 49 55 58 65 68 67 69 71 57 51 44 42 45 48 53 55 56 58 57 61 61 55 49 48 44 39 38 41
49 46 46 46 46 45 39 43 42 48 47 47 44 42 42 43 43 42 45 49 50 50 57 57 61 60 64 64 58 57 49 48 48 50 51 53 56 57 56 61 67 63 55 49 44 42 39 43 48
41 38 37 42 46 51 42 50 50 42 45 46 49 46 43 45 46 48 52 46 50 52 53 58 57 57 58 61 60 57 54 51 50 53 58 62 64 63 62 66 68 62 56 47 42 36 41 44 44
38 42 54 58 64 57 51 56 49 41 36 34 35 39 44 46 50 53 55 52 51 50 50 53 54 57 63 63 62 57 54 54 55 60 63 64 62 60 66 75 70 67 57 42 36 42 46 45 45
45 43 64 69 75 62 52 55 45 42 40 38 35 36 37 43 49 51 48 50 46 44 45 51 57 58 57 59 60 59 56 54 58 61 63 66 66 69 68 68 66 59 56 50 39 45 47 46 48
46 46 44 56 61 67 44 38 39 35 41 46 33 30 38 42 40 39 41 40 43 48 51 52 55 57 57 57 58 58 58 61 66 67 68 63 77 79 66 56 61 64 48 40 46 52 50 50 54
34 41 52 46 46 43 40 43 55 49 50 39 34 35 35 33 35 37 40 42 45 50 55 54 56 57 56 56 59 63 62 65 70 75 77 80 72 86 78 62 65 58 48 52 57 53 55 61 61
37 35 31 30 42 53 61 49 44 41 33 32 33 30 31 32 34 35 37 38 37 38 41 48 55 57 59 59 63 64 66 69 78 77 73 73 82 88 73 59 60 52 51 61 58 58 54 55 51
33 39 53 52 36 46 50 40 35 35 35 32 26 31 32 35 36 36 36 35 34 36 38 43 52 59 61 64 65 66 67 72 76 72 75 79 84 86 72 50 60 64 64 66 59 63 59 53 52

GFSSGP_prec_cthk_042.txt.gz
RH
23 20 23 25 26 27 30 29 31 45 45 47 54 62 71 73 66 61 63 67 66 63 66 69 75 73 67 68 64 56 45 39 34 23 18 16 8 11 13 14 15 16 16 16 17 19 22 22 23
23 23 25 26 27 30 30 34 37 49 54 54 58 60 67 76 70 66 68 71 68 68 70 73 71 72 69 68 62 54 43 40 33 25 19 11 10 13 14 16 17 18 18 18 19 19 24 25 25
23 23 25 24 29 31 36 48 57 55 55 58 58 57 65 74 73 72 73 73 71 75 79 81 79 72 70 70 63 50 45 38 34 30 24 19 13 15 16 18 18 19 20 20 21 22 23 28 32
24 26 23 26 30 38 40 41 54 55 57 54 59 61 62 66 67 67 68 72 76 76 83 82 80 74 71 70 58 50 44 40 34 24 23 24 16 17 19 19 21 22 23 23 24 27 29 31 31
27 28 26 27 32 40 57 51 57 65 62 61 56 58 63 66 68 68 77 76 70 77 83 90 93 84 74 66 57 51 46 38 26 25 23 20 21 19 20 21 22 24 25 26 28 31 31 33 35
33 28 29 31 37 46 54 62 67 72 68 64 61 56 63 67 69 76 80 83 79 86 94 97 97 89 75 63 58 54 42 33 27 24 20 18 19 21 22 23 26 28 30 31 32 34 36 39 42
35 31 32 32 34 44 46 54 61 67 64 70 67 66 66 64 68 71 79 90 98 96 98 98 97 87 78 74 61 46 30 23 19 16 19 21 22 22 24 25 27 29 33 36 39 41 43 48 49
36 34 30 31 35 45 54 62 57 60 65 66 74 73 71 72 67 66 84 97 96 97 98 94 90 86 76 64 47 33 26 28 28 25 22 22 24 26 26 28 32 35 39 43 48 50 54 54 53
38 36 34 33 39 51 56 55 54 57 58 67 70 68 72 73 72 72 83 92 94 95 95 90 88 78 67 58 46 35 31 25 19 22 26 28 28 30 34 33 38 43 48 51 54 59 59 59 56
38 37 36 35 43 50 54 59 55 56 57 72 75 74 74 74 72 79 84 90 95 91 89 85 85 68 60 46 36 29 25 21 22 26 27 29 32 34 38 42 49 53 54 56 60 63 62 64 61
36 38 36 38 39 48 48 57 57 59 60 66 67 68 62 58 69 77 89 92 91 89 88 83 72 58 45 32 19 18 18 21 24 29 35 39 43 48 53 55 58 59 59 62 63 64 60 59 53
30 31 36 40 43 53 53 54 60 62 62 68 73 67 64 61 73 72 74 60 62 62 69 64 52 44 32 20 18 18 20 25 32 42 45 48 52 55 59 57 59 63 62 62 63 63 61 50 40
33 36 40 47 51 53 51 57 60 67 70 76 79 71 65 64 82 69 64 57 49 52 64 54 38 32 24 22 24 26 29 38 51 53 56 56 54 60 62 62 65 65 62 60 60 58 49 39 35
36 43 41 43 54 55 53 52 55 66 78 77 72 65 70 64 69 69 59 51 41 45 45 48 44 29 26 29 33 38 46 54 57 65 60 54 60 65 65 67 65 59 58 58 58 49 39 36 36
49 46 51 59 61 56 55 51 56 59 64 65 63 55 65 58 59 63 55 48 32 32 37 38 40 41 41 42 44 54 66 65 65 62 59 57 59 59 59 59 60 59 58 57 47 39 37 39 39
45 49 63 61 57 56 55 54 58 55 56 47 34 48 53 66 54 43 38 35 37 41 44 47 46 45 51 60 61 67 64 61 59 59 56 55 56 52 57 57 57 59 55 43 39 39 41 42 41
45 50 50 55 52 50 46 45 49 53 49 47 40 44 50 53 50 45 44 43 45 47 46 48 48 51 59 67 61 60 60 57 58 57 58 53 52 52 56 57 57 48 42 41 42 46 47 44 41
45 44 46 46 49 49 45 41 33 44 48 54 51 50 49 45 43 45 46 46 48 54 44 49 48 49 54 57 61 63 64 57 52 49 49 47 48 50 53 52 45 43 45 48 50 50 48 45 44
47 46 50 49 46 47 44 43 35 34 42 47 50 49 48 48 44 44 46 50 49 48 44 41 44 47 53 63 63 63 64 58 49 47 45 47 47 48 45 44 45 48 52 53 51 53 47 45 41
48 52 52 46 44 43 42 43 46 40 34 41 43 43 46 46 45 45 44 45 44 45 47 45 48 52 60 69 65 64 64 58 52 48 49 49 46 42 44 48 50 53 55 55 55 49 46 45 39
52 52 51 47 46 42 40 38 39 39 32 44 44 38 40 40 43 41 41 40 39 42 47 50 59 63 68 67 64 71 66 62 55 50 47 47 45 47 49 52 54 57 59 62 60 52 47 47 41
50 47 47 46 47 46 40 43 37 32 28 38 54 43 37 39 42 44 46 45 41 42 45 51 63 64 65 63 67 66 65 61 54 51 47 46 46 50 55 56 58 59 64 67 64 61 59 59 49
49 47 51 50 47 46 42 41 36 35 35 39 45 47 41 40 41 42 45 45 46 46 50 58 59 61 61 62 64 67 65 58 54 46 46 48 52 56 59 60 61 61 66 67 65 66 64 59 50
51 52 51 52 51 52 49 44 46 38 33 39 40 44 44 42 48 49 46 49 51 52 53 63 62 61 63 64 65 65 61 57 49 48 50 55 58 60 60 63 68 72 69 69 64 60 52 44 43
48 47 53 56 61 51 50 49 46 46 41 36 39 42 43 45 47 48 48 50 54 52 59 60 58 60 63 62 62 62 60 55 53 55 58 61 64 67 77 84 81 75 74 76 68 53 48 50 52
47 45 55 50 59 53 50 49 47 40 41 37 36 33 35 35 41 46 48 53 55 55 61 57 56 58 60 59 65 60 57 62 67 68 68 76 83 84 82 85 87 81 79 69 64 52 49 53 54
49 47 46 61 61 63 53 40 36 39 36 35 41 26 30 32 38 42 46 50 52 48 53 50 50 53 57 65 67 63 71 73 72 77 83 85 88 79 96 82 73 82 75 72 65 53 54 58 59
47 44 54 58 54 56 39 39 46 42 43 43 32 26 28 32 36 39 41 40 44 45 47 47 49 55 60 59 61 68 76 79 81 86 88 89 83 82 78 82 86 78 70 67 54 59 64 63 62
48 41 34 43 53 50 55 44 42 39 34 36 35 31 23 27 28 28 28 32 36 40 44 46 48 54 61 63 72 73 76 84 86 85 84 82 71 86 80 85 77 65 62 54 64 70 64 63 63
47 40 44 58 41 45 52 42 34 40 37 37 37 36 31 30 29 28 29 30 31 35 39 42 46 50 59 68 69 73 73 73 75 69 71 81 91 77 78 77 70 71 68 75 73 67 72 71 68

GFSSGP_prec_cthk_045.txt.gz
RH
23 22 23 23 28 27 29 31 33 40 47 54 59 64 71 74 71 69 66 68 63 61 64 68 70 72 67 61 61 66 52 45 38 34 31 23 24 19 11 13 14 15 19 21 21 21 21 24 26
20 23 28 26 28 29 32 31 36 37 50 61 62 66 66 74 76 75 75 71 68 67 70 71 77 77 71 66 65 61 47 42 36 34 33 25 23 14 11 13 16 18 20 22 23 23 23 23 24
19 23 28 26 30 35 36 34 49 54 60 59 60 65 73 78 76 77 78 81 77 76 79 80 79 76 67 65 69 52 46 41 37 38 33 25 27 23 16 16 20 22 21 22 22 24 25 27 29
20 24 28 28 34 35 35 41 50 58 62 61 67 68 72 71 72 74 80 81 78 76 80 82 80 74 72 75 62 50 46 43 39 38 36 26 21 20 18 20 21 22 23 24 25 25 25 27 30
22 28 32 32 31 35 45 52 54 58 62 68 64 73 72 70 73 73 75 78 76 84 85 88 90 82 89 73 58 50 49 41 42 42 30 29 29 22 18 21 23 24 25 27 29 29 29 32 34
26 31 38 35 33 41 48 59 65 66 70 78 70 69 72 73 70 72 77 80 88 91 93 91 97 95 85 67 56 51 44 49 42 32 32 34 30 28 27 27 26 26 28 31 36 37 39 42 44
28 36 38 33 34 38 48 52 55 56 64 70 66 70 78 75 71 72 72 76 86 88 93 99 97 88 78 65 60 54 55 46 37 28 23 22 22 22 23 25 26 27 34 38 40 42 49 50 49
31 39 36 32 35 38 53 57 63 64 65 69 66 71 82 77 72 71 71 79 88 98 97 98 97 87 76 71 66 54 41 36 29 26 28 26 26 27 29 28 31 36 39 40 45 53 54 54 54
36 40 37 34 40 47 53 55 61 64 61 67 70 70 75 81 75 71 76 84 84 88 97 96 91 86 82 71 56 42 40 39 32 29 28 29 28 28 30 34 37 41 43 47 55 56 58 57 57
35 38 35 35 40 46 52 54 58 63 66 68 67 73 76 77 74 71 76 83 88 86 92 93 90 87 84 70 54 45 37 28 23 28 29 32 33 34 34 36 41 44 49 52 57 58 62 61 50
35 35 40 38 40 45 52 55 55 55 60 65 69 73 70 62 66 76 80 85 89 93 92 91 91 78 66 53 44 42 38 36 34 34 36 39 40 43 47 50 52 55 56 58 61 59 58 57 44
33 37 44 40 42 45 51 51 54 54 58 67 73 73 62 66 69 72 68 73 96 94 84 82 71 60 48 39 32 29 24 25 29 35 41 44 48 53 55 60 56 58 63 64 61 56 57 49 37
32 41 44 43 48 51 53 54 54 60 69 71 74 75 69 75 66 66 64 62 59 59 59 61 50 50 42 29 26 26 30 31 39 52 58 57 57 57 62 63 62 64 69 64 56 54 50 42 36
47 44 52 49 49 50 50 50 48 66 79 77 77 73 70 76 73 63 52 42 53 55 47 49 36 34 31 27 31 37 46 51 57 63 63 63 59 58 62 63 61 58 60 56 54 54 45 38 37
46 51 47 49 52 48 49 55 56 61 69 74 67 68 67 68 71 61 48 33 35 41 45 45 43 41 38 39 44 48 56 59 65 64 60 60 58 58 60 55 58 59 59 57 55 47 40 40 40
45 47 53 58 54 50 54 56 58 59 59 58 56 57 67 62 59 53 41 34 33 39 45 47 41 38 40 48 53 57 59 65 64 62 63 57 57 58 55 57 61 61 60 56 48 43 42 43 42
43 52 55 57 51 53 54 47 53 60 48 46 47 48 59 52 48 44 41 42 43 44 44 46 42 44 54 60 61 59 64 69 66 58 51 48 55 55 54 56 59 60 54 46 43 43 46 44 38
48 50 49 50 50 54 50 48 45 47 48 47 45 45 47 47 45 46 46 48 54 52 50 53 49 44 51 56 64 66 72 70 61 52 46 47 53 51 50 52 57 49 42 42 43 48 47 40 38
47 49 52 50 47 50 49 49 45 47 43 45 49 51 50 47 47 49 47 49 51 51 47 47 46 47 56 62 71 70 65 65 61 53 50 51 53 48 49 51 42 39 41 45 49 51 48 44 45
42 44 47 46 49 47 48 49 47 51 43 39 40 47 50 51 50 48 46 48 47 46 48 45 44 49 60 65 72 65 65 68 63 60 54 52 50 46 45 41 41 44 47 50 52 53 54 53 53
42 46 51 53 48 47 39 44 43 42 44 43 40 39 44 46 47 47 45 45 45 46 49 48 49 59 60 65 67 67 71 67 65 61 55 49 45 47 45 44 47 50 54 55 56 60 63 60 59
50 50 54 52 48 50 43 47 38 38 38 36 41 43 39 42 48 49 50 52 49 48 50 51 56 57 62 66 67 68 70 75 76 65 58 51 51 47 47 49 53 60 62 65 75 76 73 67 65
54 49 50 48 50 49 48 47 38 36 33 31 39 49 49 46 45 46 45 47 49 57 58 55 59 66 65 63 65 68 70 67 64 62 57 52 49 49 53 57 65 71 77 77 84 86 80 73 72
49 49 52 55 54 54 50 50 43 42 36 35 41 45 48 47 49 51 56 56 54 57 60 60 64 70 65 63 62 63 67 65 71 60 53 51 54 57 64 76 82 82 85 91 91 71 66 71 63
50 52 57 58 62 55 51 49 43 39 40 36 34 36 36 42 47 52 52 52 54 56 59 62 64 66 63 57 60 61 66 65 66 63 59 62 70 75 82 86 89 90 77 91 87 75 76 65 68
51 51 57 50 59 50 45 45 38 39 41 36 33 30 30 35 41 45 50 45 49 56 63 63 67 69 67 56 56 62 66 74 66 70 75 85 93 86 87 86 89 96 89 90 81 80 74 72 62
47 49 44 55 60 63 50 42 36 37 41 40 36 32 27 31 37 37 42 46 49 52 59 60 63 58 57 57 60 61 68 73 73 81 86 95 91 89 97 87 89 90 92 94 75 73 65 56 58
50 47 47 53 50 54 47 41 44 42 37 34 32 36 26 27 31 34 38 41 44 50 55 52 52 54 55 55 60 60 66 70 82 88 94 91 87 96 75 72 86 97 84 71 71 62 62 68 73
49 50 45 44 54 59 59 41 34 36 29 31 36 30 26 23 25 28 28 30 33 35 38 40 44 44 49 53 57 64 68 78 85 85 79 75 80 74 82 91 77 75 74 75 74 75 80 80 76
46 53 50 56 42 48 56 39 27 38 38 36 33 37 35 31 22 24 26 30 31 31 33 35 44 50 57 67 71 74 82 85 85 85 86 88 87 85 81 81 82 82 85 87 83 83 77 73 74

GFSSGP_prec_cthk_048.txt.gz
RH
18 18 20 21 26 29 30 30 31 38 46 54 64 68 67 71 73 72 70 73 68 74 69 70 74 74 71 68 62 56 49 48 43 39 35 32 28 24 24 17 13 15 18 19 19 22 25 26 25
18 18 22 24 27 29 32 33 31 41 46 49 63 71 79 77 80 80 76 78 77 72 71 72 76 77 77 72 65 57 51 47 43 38 37 34 32 23 20 19 18 19 19 20 21 22 24 24 25
20 21 24 27 28 29 33 32 37 50 54 55 62 67 74 80 78 76 79 83 83 78 79 79 80 83 80 75 65 56 49 51 40 40 38 40 26 26 28 27 22 20 21 24 23 23 24 25 27
22 22 23 27 28 28 30 38 46 56 57 60 65 69 71 72 72 68 78 84 86 84 81 83 80 80 81 77 65 51 47 48 41 40 39 36 36 32 25 24 20 23 26 24 24 25 26 28 30
22 24 26 29 27 30 39 47 55 54 61 63 68 76 75 71 69 69 74 79 82 81 82 84 86 92 87 78 64 49 55 43 45 44 41 42 35 36 35 31 26 26 25 26 27 30 33 35 36
24 25 30 33 28 34 41 50 57 61 65 64 69 77 80 75 75 71 70 74 81 84 88 91 93 94 92 77 62 60 46 49 48 48 44 34 37 33 28 27 28 30 32 31 34 39 42 43 42
25 29 35 33 31 33 47 55 60 63 65 70 76 79 81 78 73 69 70 72 80 83 95 98 98 96 86 73 66 52 51 53 54 43 43 43 42 35 31 32 34 35 32 35 42 47 48 49 49
26 31 38 33 33 41 53 61 62 64 66 67 69 75 75 79 79 75 70 70 68 77 87 94 95 90 80 71 59 53 56 59 49 42 38 36 29 28 29 31 32 34 38 44 49 53 51 53 54
27 35 41 35 35 42 50 57 59 62 63 67 76 76 73 76 77 74 73 74 74 89 99 97 93 87 78 69 68 68 62 49 36 35 41 38 32 31 32 34 37 39 45 48 52 56 57 56 54
30 38 39 34 37 40 48 53 58 61 65 72 72 72 75 74 68 69 77 78 76 80 90 94 87 82 84 83 74 63 51 46 45 39 37 33 38 37 38 38 41 44 48 54 58 55 59 57 48
30 40 39 38 38 42 50 58 58 62 61 67 72 71 71 70 69 67 72 76 80 84 89 93 90 89 87 81 69 56 49 37 33 32 36 39 42 44 46 46 50 55 57 61 59 60 58 51 41
31 38 41 43 43 46 52 58 59 60 60 62 70 71 63 67 71 67 72 83 89 89 91 93 93 89 77 64 48 41 43 41 43 44 44 44 49 49 53 60 60 60 63 63 64 64 51 42 37
32 44 44 51 48 53 55 56 59 61 63 66 75 74 72 70 70 67 66 71 83 80 81 75 73 70 60 50 42 42 37 38 39 48 53 60 60 61 61 67 65 63 62 61 59 55 44 41 38
40 43 49 48 53 54 54 55 55 58 65 71 80 79 74 79 71 61 61 60 56 54 57 58 53 47 38 31 32 35 39 48 60 64 72 69 63 63 63 61 63 59 59 60 58 51 45 42 38
44 50 48 53 51 51 48 50 55 55 62 73 81 75 77 75 68 54 43 54 54 56 56 45 44 39 39 41 42 46 55 60 66 68 70 65 61 62 63 61 59 58 58 59 58 49 46 41 41
46 48 53 57 59 50 51 54 54 58 54 61 66 68 71 70 62 53 48 47 49 55 57 53 51 50 45 44 46 52 60 61 63 69 63 66 66 66 59 57 57 56 56 58 54 47 44 43 44
50 52 54 60 57 52 51 47 51 56 49 52 55 60 57 57 51 46 46 43 47 51 55 53 51 50 50 49 51 51 51 59 71 70 56 58 52 51 55 51 55 54 59 53 46 45 46 47 44
50 50 53 57 54 53 52 50 51 51 57 56 47 45 46 47 44 47 51 53 52 53 53 51 45 44 45 46 50 57 64 68 70 66 56 52 50 51 52 51 53 56 55 44 44 49 50 46 42
44 48 48 51 49 51 51 49 50 56 54 56 59 43 41 44 46 52 50 49 49 49 48 45 44 45 47 49 57 65 65 73 77 66 62 54 51 51 51 50 53 54 46 43 48 52 47 47 45
44 47 49 49 50 49 48 49 48 52 52 47 49 51 46 46 47 50 50 48 45 45 45 43 45 49 55 61 64 67 69 69 75 69 66 59 55 54 53 54 53 46 44 47 53 50 53 57 63
47 47 48 48 46 46 45 46 44 43 46 46 47 42 46 44 44 42 43 45 45 47 46 46 45 52 58 59 65 62 64 75 74 74 73 72 61 56 54 53 45 46 47 51 55 62 66 71 73
49 47 46 50 52 53 44 44 36 39 41 40 40 44 38 41 45 48 49 53 53 53 51 50 52 55 58 60 60 58 64 71 73 80 75 63 62 56 53 49 49 53 59 66 71 75 80 76 81
49 48 48 49 53 50 48 46 42 39 36 33 35 46 51 44 47 47 48 51 55 57 56 59 58 59 63 63 60 59 66 78 79 82 75 76 69 63 59 58 63 67 69 75 80 85 86 94 90
49 51 51 54 53 53 46 45 46 43 39 36 32 39 49 49 46 46 49 53 59 61 58 63 66 63 68 70 56 56 64 71 75 82 81 76 69 67 66 70 75 77 81 89 85 86 95 85 80
50 52 59 61 65 58 51 51 44 41 41 38 36 38 41 41 42 46 50 57 60 57 62 65 66 66 65 68 64 57 67 73 78 79 82 75 71 72 75 83 90 88 92 93 88 82 81 86 82
51 52 62 55 64 53 50 46 32 38 41 43 39 35 32 31 34 40 49 51 53 56 63 71 68 65 73 73 69 71 67 78 82 82 87 79 81 83 85 89 94 92 84 78 85 87 78 71 71
53 55 53 63 62 64 48 39 31 36 39 42 40 36 30 26 26 30 39 45 47 49 52 61 68 65 61 57 61 62 71 76 81 84 89 85 85 85 95 90 86 76 80 89 92 80 73 70 69
54 52 53 56 54 50 46 42 38 36 39 39 36 34 31 26 25 28 31 32 38 40 41 44 46 52 51 53 57 63 66 73 76 78 78 85 89 83 83 81 83 88 97 89 81 78 76 76 80
57 53 55 57 59 60 60 46 34 35 37 35 36 32 29 28 25 25 26 27 27 30 35 38 39 42 47 59 65 68 71 74 77 85 87 88 87 88 91 93 94 87 87 86 88 83 87 81 78
46 48 50 61 55 61 61 43 28 28 37 35 32 36 38 35 27 23 22 24 25 29 33 37 43 55 68 71 72 78 84 88 88 86 85 88 92 91 90 95 89 86 86 92 91 93 84 82 80

GFSSGP_prec_cthk_051.txt.gz
RH
19 17 18 22 23 25 25 26 30 36 44 55 57 62 63 71 72 74 77 80 83 78 77 79 76 71 70 67 62 56 50 46 39 39 32 32 30 30 27 23 19 17 19 20 21 22 21 22 22
19 18 20 23 24 24 24 27 28 35 46 51 57 64 68 75 77 79 81 88 86 83 81 83 78 76 76 73 67 59 51 44 41 40 39 37 32 33 24 24 21 18 20 21 22 22 22 23 25
20 20 21 23 26 25 25 27 31 43 47 48 58 70 70 89 81 77 79 86 85 84 81 84 81 82 81 80 72 58 49 44 38 44 42 35 36 34 28 30 27 22 20 21 23 24 25 27 28
19 21 22 24 27 26 26 30 45 47 52 60 63 71 76 75 76 73 73 78 82 82 83 82 82 83 83 80 73 58 50 43 44 39 39 37 35 36 38 36 33 25 23 25 27 31 31 31 32
20 20 24 27 29 29 29 38 55 53 54 63 69 77 77 76 71 70 72 77 81 84 86 85 86 88 86 79 74 64 50 46 47 42 44 40 40 38 34 34 30 27 26 29 31 33 34 36 39
22 22 25 30 32 31 38 46 58 59 60 65 69 68 76 75 75 77 74 75 80 94 96 92 91 91 88 80 71 62 53 53 49 46 46 47 46 42 41 40 37 34 33 33 35 38 41 42 43
23 23 26 34 35 33 44 58 59 64 62 65 67 66 78 78 81 79 78 78 84 87 93 97 95 93 87 80 64 58 57 53 50 48 50 47 43 42 40 36 34 33 35 40 43 44 48 48 47
24 26 32 36 33 37 52 58 64 62 66 66 69 70 76 78 80 78 77 78 81 84 90 95 95 95 86 82 67 63 60 54 54 54 48 53 52 45 40 40 37 38 40 42 45 50 52 52 50
26 28 40 37 35 43 48 52 59 63 64 68 70 70 69 84 85 79 75 73 76 76 78 84 95 90 88 83 67 64 60 60 58 55 50 44 43 42 41 36 36 39 42 49 54 53 54 57 51
29 32 40 38 38 42 45 49 57 62 66 66 71 73 77 79 78 71 68 74 81 81 81 89 89 90 91 83 83 66 69 69 56 47 46 48 45 41 41 40 41 46 50 55 57 58 60 56 48
30 36 40 40 41 44 46 53 58 61 63 63 67 70 71 72 68 68 67 70 80 86 84 87 95 92 91 84 79 85 74 54 51 51 46 44 42 44 47 49 52 58 59 62 63 61 63 56 41
33 37 39 43 46 48 52 56 58 60 58 64 68 68 64 66 63 60 72 76 84 87 91 91 88 87 89 91 89 77 64 57 47 43 42 47 50 52 52 55 62 63 66 66 63 59 60 48 37
33 43 42 44 46 54 57 55 58 60 60 71 72 69 64 67 64 55 66 76 87 90 91 88 89 91 91 85 73 59 48 43 45 48 50 47 51 56 62 66 68 67 65 64 60 57 55 43 39
40 47 45 43 48 57 58 59 56 56 64 68 77 73 72 73 71 57 58 64 71 76 78 76 79 78 70 62 54 52 48 41 38 45 53 61 69 69 66 71 68 63 60 58 57 58 47 43 40
44 50 52 53 59 55 54 55 53 56 60 70 81 79 83 80 71 57 61 57 56 62 60 57 55 52 43 38 38 41 43 47 56 65 74 77 71 66 68 70 66 59 57 54 55 55 46 44 40
47 47 54 57 63 58 56 53 57 64 58 63 69 73 80 70 64 50 56 59 55 51 55 55 51 45 39 38 43 52 56 63 67 69 78 78 74 77 76 67 60 55 54 53 55 51 46 42 41
44 45 46 57 61 61 58 53 57 62 54 54 65 68 69 65 60 49 51 51 55 55 54 52 53 53 51 49 46 51 52 54 62 68 77 70 68 67 59 58 53 53 53 54 53 47 43 42 39
42 43 45 54 58 61 58 51 54 57 60 52 56 55 58 53 46 44 47 49 54 58 58 56 56 60 59 54 51 49 53 58 63 73 73 61 56 54 51 55 54 53 54 53 49 42 42 42 41
43 42 47 51 53 50 50 51 50 57 60 59 49 43 45 47 48 48 52 55 53 55 55 53 52 50 51 49 51 54 55 59 68 84 79 67 58 54 52 54 53 52 53 50 46 43 45 46 52
45 43 47 50 50 49 48 47 44 48 52 53 54 49 43 45 49 48 49 50 50 49 48 49 51 54 53 55 55 59 61 64 73 89 74 79 70 62 57 56 53 53 52 51 49 53 53 58 61
43 42 43 49 49 51 47 43 41 44 47 47 48 50 47 46 45 45 46 47 48 47 46 47 47 50 58 61 61 63 65 67 75 77 83 82 77 70 65 64 61 59 57 54 60 62 63 70 72
41 40 42 50 51 47 47 46 44 41 42 41 45 43 42 41 41 41 41 43 45 45 48 48 47 48 57 62 61 64 64 65 72 79 85 90 84 73 73 74 68 65 64 64 70 71 75 80 84
43 44 42 44 49 50 49 44 38 41 38 38 36 46 50 43 43 45 47 48 49 50 51 51 54 57 58 62 66 66 63 63 72 87 90 84 85 82 82 75 69 73 71 71 79 82 87 91 93
50 48 47 50 51 53 48 45 41 41 38 37 31 41 49 53 51 47 50 54 55 55 55 57 56 64 67 68 72 74 62 57 64 73 84 87 87 86 82 77 79 80 78 80 88 94 96 91 88
51 53 55 55 56 53 51 51 44 40 40 37 36 35 38 45 53 52 53 53 57 61 63 62 63 66 68 70 78 76 71 65 65 73 91 91 90 90 87 86 87 87 90 94 93 91 88 91 88
51 53 59 56 55 48 50 48 35 32 37 42 39 39 37 40 46 48 49 54 57 64 65 61 68 72 68 69 77 77 74 67 67 78 95 95 94 94 92 91 91 93 93 88 87 90 91 87 83
52 55 53 60 65 61 47 40 36 35 38 38 38 41 40 34 28 35 41 44 51 57 56 62 63 67 70 67 62 59 56 63 75 83 94 92 95 96 95 94 93 93 93 95 91 94 91 83 78
52 55 60 61 60 57 45 42 37 36 35 34 35 34 37 37 29 24 26 33 40 47 49 49 51 53 54 51 50 51 62 74 77 87 93 92 95 97 97 92 96 99 96 97 95 91 85 89 90
59 58 61 58 56 52 53 44 38 36 35 35 38 39 33 28 26 22 24 27 28 31 33 36 39 41 41 45 54 71 76 78 81 89 90 93 97 95 95 97 96 95 91 98 93 94 95 89 83
51 53 56 62 55 57 55 45 37 35 34 37 36 36 35 33 35 32 26 22 25 25 29 31 34 39 46 59 68 71 77 83 86 90 91 93 94 95 97 95 98 94 95 89 92 97 90 81 79

GFSSGP_prec_cthk_054.txt.gz
RH
16 17 16 19 22 22 25 32 30 32 37 43 51 58 61 65 73 72 72 74 75 77 76 73 72 70 68 67 66 64 61 54 44 37 32 30 28 27 29 27 26 25 22 21 20 21 20 21 21
17 17 20 20 20 27 26 31 30 39 43 49 49 55 64 66 79 79 86 74 78 83 86 79 76 75 72 67 66 64 59 48 38 34 33 34 35 32 31 30 29 28 26 23 22 21 24 24 23
17 18 23 22 24 28 28 33 32 44 45 49 54 62 66 70 84 78 78 83 83 82 88 85 79 79 78 75 70 64 55 47 39 36 38 36 35 36 34 32 31 30 29 25 25 25 28 28 27
18 19 20 21 26 29 28 30 37 48 51 53 58 61 65 70 72 62 74 78 83 87 91 91 85 86 84 80 73 64 56 51 42 40 44 40 37 39 38 35 34 34 31 28 27 29 32 31 30
19 20 24 24 24 26 27 30 41 56 55 53 56 64 67 75 70 70 69 79 86 90 95 90 87 88 86 79 73 67 58 51 47 49 46 39 42 44 43 41 38 37 35 31 30 34 36 33 34
22 21 23 29 28 27 33 36 51 62 62 58 58 60 68 72 70 71 70 71 89 97 91 86 86 85 86 83 74 65 57 52 50 48 48 47 48 45 43 40 41 40 37 36 36 39 37 38 37
24 24 26 27 31 34 42 53 59 65 63 62 61 64 69 70 74 72 77 77 79 85 94 87 92 95 87 85 69 62 58 57 51 51 52 49 50 48 48 48 45 43 42 40 42 42 43 44 41
25 25 28 35 34 39 50 56 62 60 64 64 63 67 69 69 72 76 77 77 81 83 87 97 98 95 84 73 71 69 64 54 54 54 54 53 51 48 48 46 45 43 40 43 44 47 48 52 47
25 28 38 39 36 43 54 53 56 61 66 65 68 69 68 70 78 80 81 79 82 85 87 91 96 92 81 84 84 67 60 59 58 58 58 57 56 56 51 46 44 44 45 47 48 51 55 57 46
28 32 39 39 37 43 45 46 55 61 64 63 66 70 72 72 78 75 77 76 73 78 84 84 87 90 88 86 83 75 75 68 63 64 63 61 58 53 48 47 48 46 48 52 55 58 60 59 47
30 31 37 41 40 41 42 45 55 60 62 62 63 66 71 72 70 66 69 72 74 75 75 82 85 86 87 85 91 92 80 73 76 72 61 56 52 51 50 45 49 56 60 60 61 63 63 60 49
30 31 35 42 42 45 45 54 57 57 60 57 65 68 67 65 64 65 62 65 72 75 89 82 88 90 93 98 91 86 86 83 71 64 60 56 52 51 53 54 59 62 66 65 66 66 63 54 42
31 35 38 39 47 47 54 55 55 54 60 61 68 71 67 68 61 58 64 79 79 83 86 93 93 96 95 94 89 91 81 75 66 59 57 54 56 56 56 61 68 67 66 64 63 63 58 47 41
38 44 45 42 44 52 56 57 57 54 60 67 75 74 69 68 56 57 64 74 83 89 94 97 94 94 93 92 93 83 71 61 57 56 54 57 54 53 66 71 70 70 64 61 57 57 53 43 41
39 51 53 51 55 58 54 55 57 55 57 67 77 88 84 79 66 57 57 60 67 76 81 88 95 95 92 89 78 70 65 60 57 54 52 54 64 71 68 69 67 66 60 58 54 52 46 44 40
40 48 50 53 58 57 55 57 57 64 58 64 74 84 82 80 68 61 58 53 56 58 65 68 73 80 79 70 57 55 54 47 49 52 63 73 77 71 73 76 74 64 59 52 53 50 46 43 38
39 50 47 53 57 56 56 55 56 62 58 61 69 78 74 74 67 55 58 60 53 52 53 54 55 53 46 46 45 45 50 58 60 68 77 83 84 81 80 72 64 62 56 53 51 50 47 42 39
43 45 45 57 54 54 54 51 49 56 57 59 63 67 70 68 60 53 53 56 58 54 55 56 54 51 48 51 51 55 59 59 61 69 78 84 78 73 75 65 58 59 54 49 50 50 47 42 45
34 41 45 49 51 51 49 51 46 53 56 56 56 57 58 58 51 50 51 51 56 58 60 60 64 65 62 60 57 54 56 60 62 69 74 83 81 74 61 55 55 55 52 49 52 54 51 49 52
37 39 41 45 47 49 51 47 44 46 49 54 53 46 44 51 51 52 58 60 55 53 53 55 54 57 60 61 59 57 56 62 63 68 81 85 86 84 70 67 62 61 57 59 60 61 57 56 58
39 39 42 43 44 42 46 45 40 44 45 44 48 52 44 42 47 49 51 50 51 50 50 51 52 56 59 62 66 66 69 68 65 71 79 88 91 91 86 77 71 69 68 66 67 64 63 61 64
41 40 40 41 43 48 45 50 41 43 43 42 40 40 44 43 44 46 47 46 46 46 47 48 49 51 55 60 68 66 67 70 65 65 79 90 92 94 93 85 80 79 76 73 72 68 69 70 75
46 41 44 43 46 46 43 47 42 38 39 38 38 36 39 39 41 42 42 43 46 48 51 50 50 51 55 59 65 70 71 71 75 71 74 86 86 91 90 89 86 85 86 82 79 74 76 78 86
47 44 46 45 46 47 45 44 43 42 41 36 35 33 40 48 47 44 44 51 51 53 55 55 57 60 61 66 67 71 77 80 72 62 60 67 76 87 92 93 93 92 89 86 84 81 88 87 91
46 51 55 58 55 54 47 44 42 41 38 40 37 34 35 41 45 51 55 54 55 55 59 62 65 71 71 75 77 80 83 84 80 77 70 69 74 83 91 93 97 94 91 90 89 89 92 92 88
48 52 59 61 59 54 47 45 43 35 29 35 41 40 35 39 43 48 57 62 60 60 65 65 70 72 76 79 77 78 85 84 81 77 73 73 84 81 99 94 96 97 97 95 88 89 92 97 91
49 50 53 57 58 55 46 41 35 31 32 34 38 42 43 42 42 45 51 55 60 64 66 69 73 76 77 80 85 81 76 78 78 68 71 79 88 92 98 98 96 96 95 93 91 97 97 97 90
48 52 55 55 62 57 49 41 38 35 30 29 32 35 42 45 44 39 36 43 52 58 63 68 70 69 71 73 73 67 60 58 62 70 77 84 92 96 98 96 97 96 94 96 97 93 92 95 96
50 52 53 56 57 57 53 46 40 37 33 29 33 35 37 37 32 33 30 30 37 42 49 57 58 57 54 53 52 53 55 65 75 79 80 85 90 95 98 96 95 98 94 90 95 97 96 93 98
54 57 55 58 63 56 57 46 41 38 38 36 32 32 36 37 38 37 34 33 37 37 39 43 44 43 45 46 46 53 65 68 73 80 87 90 94 94 94 92 95 93 90 87 92 88 94 92 96

GFSSGP_prec_cthk_057.txt.gz
RH
13 14 17 17 21 24 24 23 22 36 35 43 38 58 49 50 72 87 93 83 74 62 65 66 67 69 68 68 68 68 68 66 57 46 35 31 31 28 25 30 33 31 27 26 22 21 21 21 21
17 16 17 20 24 23 22 21 35 32 42 66 46 39 47 50 65 73 74 87 75 66 67 73 71 76 74 74 70 70 69 62 52 42 34 33 32 29 32 34 35 33 29 25 23 24 23 24 26
14 16 20 28 27 24 23 33 35 43 47 38 49 40 73 59 51 64 70 70 64 76 63 73 73 76 80 79 77 75 67 59 50 41 36 36 35 31 35 38 38 37 33 31 29 27 28 28 29
17 20 20 19 27 24 23 33 38 54 51 47 46 71 43 51 53 51 64 74 71 80 74 72 68 77 82 78 76 71 65 56 48 42 40 40 40 38 39 40 42 43 37 37 35 33 33 31 31
18 21 24 33 27 26 29 29 36 51 64 60 41 44 75 51 53 49 55 65 70 91 93 87 80 87 81 76 75 69 60 53 48 45 42 45 42 42 40 41 44 44 41 42 43 36 34 33 31
25 24 28 24 29 28 28 37 47 45 68 46 43 58 61 64 58 58 60 65 72 96 95 92 89 92 89 82 74 69 60 54 50 48 46 50 45 46 46 46 49 44 45 46 45 40 36 34 32
23 32 30 28 27 29 33 53 56 65 67 46 46 50 70 54 57 66 62 69 76 75 87 96 98 95 92 86 80 70 66 60 55 50 46 54 48 50 51 51 50 46 48 50 46 43 39 37 34
21 27 32 29 31 38 51 49 57 58 69 55 49 67 79 62 62 67 69 73 78 79 95 94 91 98 92 86 80 72 71 63 60 50 54 56 53 53 53 54 48 51 58 54 54 49 44 40 38
21 28 33 35 34 38 46 47 64 58 57 56 64 68 68 68 69 70 72 80 80 82 83 84 86 87 92 86 81 78 80 63 59 58 60 62 60 59 59 52 53 53 56 55 47 51 49 48 40
23 34 35 36 34 38 38 46 48 59 69 64 68 66 69 71 72 71 73 82 84 84 88 84 79 82 89 79 79 89 85 71 65 64 66 68 67 68 61 56 53 47 51 53 54 53 57 56 47
35 33 37 35 39 37 38 42 45 55 53 45 76 67 68 70 73 72 73 75 80 85 85 82 83 86 84 79 77 85 90 77 71 73 76 75 74 74 62 54 52 59 58 57 61 59 62 61 49
29 38 37 38 36 40 48 50 56 58 69 61 59 65 68 72 67 70 65 62 67 75 80 82 80 83 77 81 98 94 88 82 79 79 80 78 73 69 59 59 58 60 66 65 66 66 66 63 45
34 33 38 42 38 42 47 56 57 56 53 57 62 67 70 67 66 59 55 65 77 74 83 80 84 88 84 89 94 91 87 85 82 84 81 72 71 68 66 63 65 67 69 67 67 62 58 50 39
39 30 46 41 40 42 43 61 51 60 50 54 63 70 70 65 55 50 59 71 85 88 88 84 91 95 92 96 95 94 92 89 88 81 72 70 73 69 67 66 72 73 71 69 63 55 54 44 38
29 34 58 49 46 46 47 63 64 55 52 56 62 72 76 71 63 53 58 61 73 85 94 95 95 97 98 96 91 93 91 84 78 72 71 72 72 67 65 72 76 76 74 67 59 53 50 43 39
32 44 50 68 66 46 45 78 76 56 57 63 66 74 85 80 66 56 54 58 63 72 85 94 97 95 95 93 92 89 87 74 68 71 72 66 65 64 76 76 77 75 70 61 56 51 49 45 41
38 43 49 54 55 49 46 66 68 51 52 61 74 75 77 79 75 58 59 57 53 58 63 68 77 85 84 85 83 77 74 62 66 64 63 58 63 77 75 78 81 77 67 58 56 51 50 46 43
35 46 40 48 59 48 53 51 56 52 50 58 62 68 71 71 67 55 64 58 57 52 50 54 55 65 74 73 63 59 60 60 63 67 70 81 85 81 80 81 79 69 60 54 51 49 50 53 49
31 41 41 48 57 49 47 41 50 65 49 52 56 58 61 65 61 59 56 59 58 57 55 52 53 54 59 61 64 64 61 60 63 64 68 74 81 82 78 71 64 57 55 57 54 51 60 61 57
27 38 39 40 39 39 43 48 52 53 46 52 51 45 48 56 49 46 51 55 58 58 56 58 56 55 58 63 59 61 59 59 61 65 70 73 78 80 76 69 76 68 67 68 66 63 66 66 65
36 40 42 43 51 38 38 40 49 46 45 45 44 56 44 41 45 48 53 56 55 55 56 54 57 58 60 64 64 66 67 66 70 70 70 65 83 84 91 91 91 86 83 76 76 74 74 75 70
45 44 42 45 44 43 52 48 51 49 46 49 50 44 47 44 44 41 44 47 48 48 50 51 53 58 61 64 68 71 71 69 71 71 69 68 70 83 89 93 98 97 90 82 84 87 84 83 77
43 48 41 41 46 44 49 39 47 40 39 47 48 49 46 41 42 44 39 40 44 46 46 48 51 56 59 62 64 68 70 71 74 76 77 70 70 80 82 83 92 98 97 94 94 94 90 88 81
43 43 39 43 44 50 43 46 49 53 39 45 43 41 45 48 41 42 46 48 44 46 51 53 55 56 60 64 68 68 75 72 74 77 79 71 68 68 78 88 90 97 96 98 97 96 91 88 86
42 47 54 63 52 50 48 43 41 50 41 37 43 47 43 45 48 53 52 53 53 49 52 55 57 60 66 72 70 75 78 80 79 86 87 81 84 81 77 84 91 99 97 99 98 96 97 94 91
47 48 56 63 62 53 54 36 38 41 35 33 34 42 42 43 42 47 53 56 59 62 63 62 68 70 73 75 84 90 91 88 83 78 79 82 80 78 79 87 92 88 96 98 97 98 97 93 94
45 54 49 57 58 55 46 38 41 38 32 29 33 40 44 39 42 50 54 53 55 64 68 69 72 77 78 78 81 79 80 87 77 71 72 74 79 84 86 89 96 96 94 98 98 97 97 96 96
40 56 55 51 64 61 43 41 40 41 34 29 32 36 43 44 46 47 50 53 53 57 63 68 74 79 83 79 79 77 78 76 75 68 65 72 79 83 87 91 93 95 97 97 96 97 98 97 95
41 47 51 53 53 63 55 41 43 41 34 32 30 33 35 40 44 48 49 56 61 59 63 62 66 72 74 75 71 68 67 63 63 60 67 76 77 79 86 93 94 97 94 86 94 98 91 91 86
58 51 46 58 58 59 55 54 49 44 40 38 34 33 35 36 41 43 37 34 42 50 60 63 63 66 70 71 70 63 63 59 63 67 65 65 66 69 74 81 96 86 80 86 86 78 84 82 86

GFSSGP_prec_cthk_060.txt.gz
RH
11 12 12 16 21 23 23 23 23 20 31 46 40 47 58 49 49 47 55 59 78 96 92 72 68 68 67 65 66 64 63 63 58 46 35 32 30 29 37 32 30 30 28 26 23 22 21 20 20
13 17 16 17 23 27 24 26 28 30 42 49 45 42 45 44 46 41 54 52 49 58 87 81 72 67 65 68 69 67 67 67 58 44 36 35 33 35 34 33 34 35 31 27 27 24 23 24 25
14 17 19 26 31 27 24 28 31 34 38 41 40 45 52 50 86 58 54 46 50 58 68 76 71 75 75 73 74 74 72 67 56 42 39 39 37 37 37 36 35 36 33 33 32 30 28 27 25
18 20 23 24 24 28 28 29 28 34 37 53 39 56 51 67 94 64 57 47 63 73 71 78 80 83 88 86 88 84 77 67 52 42 40 42 41 41 42 40 37 38 38 37 39 38 36 29 24
20 21 28 30 30 29 25 26 27 27 39 44 49 57 48 50 75 66 61 64 77 86 80 89 87 82 84 86 90 88 75 63 50 45 44 42 43 45 47 45 40 41 41 44 42 40 36 33 26
26 27 31 28 29 31 27 25 25 28 45 40 47 89 61 48 56 62 65 64 74 82 91 92 95 93 94 96 95 83 71 56 50 49 47 46 48 47 48 48 46 45 47 51 44 41 38 30 26
21 28 33 30 27 32 31 28 36 45 49 60 65 90 94 76 65 66 67 69 73 76 76 89 98 97 96 99 93 79 65 56 54 52 50 51 52 53 51 49 52 52 55 50 46 45 41 32 30
21 24 29 32 28 29 28 37 43 38 53 69 54 61 77 56 63 69 67 75 74 78 79 80 79 85 96 95 97 85 73 64 59 56 60 56 57 52 55 58 57 58 52 51 52 51 43 35 31
20 29 35 35 35 32 30 30 29 44 64 61 64 67 66 64 68 65 70 76 74 73 74 77 76 76 82 87 92 90 82 74 63 64 62 55 58 58 59 60 59 57 55 57 57 56 47 40 39
25 30 35 36 31 32 31 28 34 38 59 67 97 63 69 71 71 69 71 75 75 76 74 76 79 80 84 81 85 85 89 82 75 71 63 62 63 63 65 62 64 60 63 60 54 48 53 45 46
27 30 33 34 35 31 26 30 35 42 54 51 63 55 62 64 63 64 68 69 70 73 74 78 85 89 89 85 85 85 82 88 81 77 71 68 68 72 71 67 66 64 59 61 56 55 58 56 49
34 27 33 35 35 31 31 41 50 58 71 49 54 59 61 61 62 63 65 63 62 60 68 71 89 86 90 80 85 85 84 91 78 81 80 79 79 73 75 70 63 63 68 61 62 67 65 59 49
34 37 30 37 44 35 34 37 52 86 85 52 54 58 60 58 56 53 50 54 65 73 73 74 81 87 84 85 85 81 87 91 87 88 82 82 74 75 73 66 65 69 65 68 67 64 59 51 38
32 33 33 47 52 42 41 48 49 67 75 55 56 59 58 54 47 46 48 51 64 76 80 85 84 84 85 82 89 93 95 93 88 85 82 79 77 77 71 70 70 67 70 69 69 64 52 46 39
28 28 38 45 44 42 53 60 57 61 82 69 59 60 64 65 53 44 51 53 59 74 86 87 86 86 89 89 92 96 93 93 88 83 83 81 80 73 75 73 70 72 76 75 70 57 50 48 39
29 34 43 49 47 45 62 61 62 58 61 79 55 60 67 69 62 52 48 49 57 69 86 91 90 91 95 96 95 95 92 83 85 84 79 77 77 73 69 65 68 80 80 71 63 58 52 48 41
39 38 40 50 49 54 60 53 60 65 62 66 51 56 70 69 65 57 51 48 52 59 68 78 85 90 93 93 86 82 85 79 80 76 75 69 64 63 61 73 75 80 78 69 58 54 51 49 46
39 38 40 51 53 48 46 47 54 60 82 63 51 45 57 61 64 57 54 49 48 50 55 60 66 71 75 75 76 80 82 69 65 68 71 70 65 59 66 76 80 82 75 61 56 55 53 52 54
37 32 39 48 46 40 35 40 47 54 72 56 50 43 52 63 60 60 56 51 49 50 48 48 52 55 56 58 58 61 70 58 55 60 61 64 75 81 84 81 82 75 63 59 59 62 62 64 62
32 23 29 38 47 41 33 38 44 50 68 52 47 43 44 54 53 46 49 54 49 45 48 48 47 48 56 57 53 58 54 51 50 54 61 66 69 79 85 84 84 75 77 74 68 75 77 76 72
30 35 35 43 52 48 35 33 40 43 52 44 46 41 43 48 45 44 46 47 46 46 46 46 43 42 45 52 53 54 56 56 56 58 60 61 67 80 83 81 80 83 88 92 89 87 84 85 83
44 46 37 40 48 41 46 46 45 44 50 50 46 46 41 41 46 39 42 46 45 44 44 42 42 44 46 53 56 53 56 61 63 63 64 60 58 61 68 80 83 87 88 89 92 92 94 91 88
37 46 44 45 37 39 43 52 56 44 47 54 56 58 52 40 38 42 40 41 44 44 43 43 45 48 52 50 59 64 67 67 65 66 67 68 66 62 61 69 68 80 82 86 92 97 96 96 92
37 43 40 36 32 45 38 49 41 49 49 45 47 51 53 48 40 37 41 44 47 48 45 46 49 51 54 58 65 72 78 76 74 74 75 80 82 74 69 77 78 78 79 88 94 98 97 96 98
33 43 49 61 59 49 41 42 44 51 47 46 47 46 51 56 45 42 46 46 49 51 51 52 51 53 54 63 73 80 77 77 81 83 83 91 79 75 74 77 79 80 86 92 95 98 98 98 98
34 40 49 60 81 68 56 49 38 42 44 43 34 32 47 49 52 49 49 51 51 50 53 56 57 57 60 64 74 79 77 72 85 87 83 76 77 77 75 82 84 86 91 96 94 93 94 98 97
42 53 42 53 65 71 59 47 36 39 39 36 31 32 37 45 49 50 54 57 57 54 50 51 57 59 63 67 75 76 78 63 70 73 83 82 78 72 75 77 78 84 89 92 92 91 93 96 97
30 41 59 49 68 67 46 36 51 46 40 33 29 33 39 37 42 46 55 60 58 55 52 52 56 60 67 68 70 74 75 81 66 71 91 82 70 72 76 79 76 75 77 82 89 88 86 87 84
36 36 49 55 53 58 58 58 53 50 41 35 35 33 31 37 38 42 49 58 63 66 65 55 56 65 67 69 72 72 74 77 89 78 64 66 73 68 67 65 63 66 64 76 93 98 90 82 73
36 44 39 53 55 57 58 56 48 49 45 41 39 34 36 36 35 36 36 47 62 65 64 62 58 62 63 76 74 83 84 80 75 69 66 72 65 62 61 63 61 60 63 69 73 73 75 68 71

GFSSGP_prec_cthk_063.txt.gz
RH
12 13 13 15 20 20 18 27 27 40 45 47 42 38 38 48 57 67 68 69 70 62 66 75 97 87 77 72 67 69 65 61 54 39 32 32 31 33 29 30 28 27 27 23 20 20 21 23 25
13 16 17 19 19 22 19 26 31 37 39 42 44 40 45 60 60 67 65 73 63 57 50 51 65 97 91 85 78 73 73 68 55 39 36 36 39 37 34 31 30 29 28 28 25 25 25 26 28
14 18 21 20 24 25 28 32 34 31 38 45 48 47 56 66 62 62 60 61 81 56 44 50 72 94 88 88 87 82 78 71 55 42 40 41 42 39 38 34 30 29 30 31 30 29 28 29 31
17 19 22 23 26 26 27 28 28 32 33 42 47 56 58 64 65 61 56 57 68 55 50 60 92 80 91 88 80 81 85 71 52 41 41 45 43 42 41 39 35 35 36 36 34 32 30 32 35
22 21 24 27 27 31 29 30 35 37 42 40 40 62 64 60 63 63 56 66 80 70 67 76 85 81 82 86 86 81 82 68 52 45 44 48 48 47 42 42 40 42 42 39 37 35 32 35 35
21 23 30 31 28 31 31 34 38 37 38 43 43 47 55 58 55 56 68 73 78 84 80 95 97 93 87 96 94 91 86 67 54 49 48 50 52 50 46 44 45 47 47 41 37 37 34 35 40
21 24 26 26 27 30 31 32 39 41 47 52 55 55 52 52 60 67 71 69 72 79 87 87 95 98 98 99 98 95 80 68 58 54 53 57 54 53 48 48 51 51 53 48 46 45 38 36 37
20 26 26 29 33 35 34 34 39 37 51 62 65 70 64 57 63 74 72 70 68 73 77 82 80 80 86 95 97 97 89 74 63 58 58 63 59 56 55 52 54 58 59 57 51 44 41 43 38
21 26 29 31 37 37 36 38 38 42 54 56 59 75 66 62 74 78 74 75 69 70 71 71 71 77 78 79 89 91 86 61 63 61 68 66 67 60 57 58 62 66 69 60 51 47 45 42 41
21 25 26 27 36 33 31 35 42 51 57 62 59 71 81 75 66 69 72 71 70 65 64 65 71 78 82 86 82 85 83 72 70 73 75 75 68 64 61 65 69 68 67 65 65 56 49 46 44
27 24 24 26 32 31 30 36 42 52 63 63 68 70 70 79 71 65 65 65 64 59 56 62 65 70 77 83 76 77 78 72 80 86 81 79 70 67 69 68 70 71 72 70 61 61 54 49 46
32 30 29 24 31 36 35 35 37 44 52 60 74 66 70 68 65 64 62 57 57 59 58 57 64 68 75 78 80 81 77 73 76 75 73 71 74 74 72 72 67 72 73 70 68 61 61 57 51
29 30 29 35 34 37 46 41 40 42 45 60 71 63 59 57 53 50 50 51 53 61 66 70 70 70 86 80 83 80 82 80 74 71 72 79 79 75 73 70 66 71 75 73 63 68 65 57 40
26 27 29 30 34 39 48 44 46 55 53 58 77 78 67 62 53 47 48 49 54 61 75 78 82 80 78 83 75 80 77 78 80 76 79 82 81 78 74 69 66 73 74 68 71 69 59 48 38
25 26 29 36 40 41 43 43 51 62 67 69 74 78 80 75 63 50 44 49 56 66 76 82 81 82 79 80 82 84 81 83 83 84 85 86 81 78 72 67 70 74 71 73 76 71 54 45 45
30 32 34 34 40 45 42 48 54 60 66 68 64 72 78 79 66 50 48 52 57 68 80 84 81 81 79 79 83 88 87 88 85 88 87 82 79 73 70 71 69 70 74 80 78 68 55 47 41
28 37 39 41 46 53 46 46 54 61 60 59 56 63 66 71 65 53 50 52 53 60 70 79 86 84 82 83 85 84 87 89 88 90 86 78 72 71 72 70 69 70 78 80 72 60 53 47 45
34 36 43 47 49 48 49 46 55 55 57 57 57 58 58 64 62 56 51 50 47 51 57 63 73 79 81 81 82 83 80 79 76 75 76 75 72 67 64 65 68 74 78 80 69 56 56 55 53
32 35 35 37 42 47 46 48 63 57 53 52 50 52 55 54 62 57 47 45 43 43 45 46 51 59 61 65 68 64 61 63 66 69 69 68 68 70 67 62 72 79 83 69 62 60 62 67 72
40 39 31 36 41 47 47 40 52 58 51 54 45 50 45 49 49 43 45 40 39 37 41 42 43 42 44 45 47 49 50 51 53 54 55 61 66 72 73 80 81 82 81 79 75 73 72 79 86
41 33 26 32 44 45 47 44 57 55 57 57 51 54 49 42 43 40 42 38 37 36 34 32 35 38 41 44 47 52 58 56 54 52 55 55 58 60 69 78 86 88 89 85 85 86 87 89 92
38 36 40 38 48 46 45 48 51 55 54 54 55 61 52 41 45 40 35 37 34 32 32 32 34 36 42 45 45 47 49 52 50 49 52 56 56 57 59 65 77 85 80 83 85 85 86 90 90
32 41 43 46 46 40 41 46 43 51 51 53 60 68 63 49 43 37 33 38 37 33 32 34 36 37 38 40 44 48 47 45 44 50 56 61 62 59 60 64 70 77 80 78 78 87 91 91 98
33 40 41 41 42 48 31 45 43 51 50 50 59 54 48 46 44 38 35 37 39 41 39 38 38 40 40 44 50 57 62 63 66 69 67 68 76 79 82 78 75 76 80 83 87 91 93 95 95
41 41 52 58 54 51 43 50 40 44 45 44 45 44 44 40 48 43 40 38 40 43 44 46 45 44 48 52 52 55 61 67 72 78 75 72 70 76 80 86 89 88 88 83 86 91 97 94 94
39 44 52 54 69 68 50 52 48 49 40 35 42 41 38 44 47 43 41 41 37 40 44 46 46 45 46 50 54 56 67 71 74 73 76 73 73 74 78 84 87 89 84 79 79 80 85 86 89
45 44 42 50 57 73 64 52 51 49 47 41 40 40 41 42 44 42 40 45 49 49 41 39 41 43 47 50 54 58 66 68 72 64 68 78 79 86 81 78 78 74 73 72 67 66 63 75 87
42 40 52 58 72 78 58 58 57 56 49 41 40 39 37 44 45 43 41 43 44 44 45 44 41 41 45 51 55 58 59 61 66 74 77 94 96 87 82 78 64 65 63 64 60 58 69 75 78
44 41 43 49 59 76 64 60 52 50 48 44 40 39 36 35 39 44 43 43 46 43 45 49 56 48 50 56 51 55 63 73 82 78 94 84 80 73 78 66 64 62 62 62 60 59 64 63 60
43 45 35 52 53 70 72 60 49 50 50 43 41 40 35 32 31 32 44 47 44 41 48 48 54 61 64 65 65 66 81 91 91 97 93 91 76 72 68 65 65 64 62 57 59 54 62 58 66

GFSSGP_prec_cthk_066.txt.gz
RH
12 13 14 15 16 18 19 25 29 29 36 47 45 46 51 58 57 69 75 70 70 74 78 75 79 76 91 89 78 77 77 72 55 37 32 32 30 29 30 30 28 27 25 23 21 22 23 24 26
14 15 18 18 20 22 23 26 30 30 35 47 44 43 50 64 61 63 68 68 75 72 72 73 76 70 76 95 88 80 78 70 51 40 37 36 36 33 34 31 30 27 25 25 25 27 27 27 29
16 19 21 22 28 30 30 28 31 36 42 44 42 48 52 54 57 58 59 68 71 66 65 65 67 70 59 65 95 85 84 73 53 46 43 40 37 37 35 34 31 27 26 28 31 33 33 30 30
18 19 20 25 27 27 30 31 32 36 47 42 42 45 44 53 59 62 64 62 62 63 58 61 59 63 68 77 80 92 92 75 55 48 49 44 39 37 38 36 36 34 33 35 34 36 34 33 33
22 22 23 25 26 29 31 32 44 47 45 44 42 45 45 40 43 63 66 65 58 59 60 61 69 75 76 80 98 95 87 76 57 53 52 45 42 41 41 41 42 40 39 38 38 37 36 35 36
22 23 25 29 28 31 34 46 47 42 45 44 44 46 46 41 44 50 55 61 58 64 78 77 82 95 99 98 94 92 84 83 67 56 54 48 44 44 44 47 47 44 42 40 40 40 40 37 40
24 22 24 28 30 32 38 43 44 40 40 41 39 45 48 48 48 56 57 58 61 66 82 83 96 84 94 93 98 96 83 66 56 60 57 51 48 46 49 52 51 46 45 43 39 42 44 46 44
22 23 26 31 30 33 37 44 44 43 43 41 42 51 56 52 50 54 64 67 68 68 77 91 89 94 91 87 98 98 92 66 61 63 64 58 51 52 54 57 52 49 49 48 50 48 48 49 41
23 26 28 29 29 29 37 41 46 46 43 44 43 50 50 52 50 56 64 71 70 71 76 81 85 87 76 79 93 89 94 72 68 69 71 62 55 56 60 59 56 55 55 52 56 50 50 52 46
22 24 28 27 28 30 39 37 43 44 44 42 51 49 54 55 55 54 56 63 71 70 72 71 68 73 78 79 85 86 93 90 79 76 76 65 57 60 60 63 61 60 60 60 55 54 56 51 46
23 24 27 27 31 33 38 39 41 40 40 39 41 44 49 54 53 52 59 62 66 68 68 65 64 65 69 72 82 88 79 84 84 80 79 71 63 64 66 67 64 65 70 66 63 63 54 51 46
23 25 27 31 33 36 39 40 41 40 35 42 51 49 51 55 53 52 55 61 65 58 53 60 60 62 72 79 86 83 76 79 74 78 83 78 72 69 68 67 72 73 71 65 66 65 59 52 48
23 24 25 33 36 40 44 49 51 46 50 59 63 59 53 53 50 47 48 50 55 53 59 63 69 70 69 76 86 82 80 68 71 77 84 80 77 73 67 72 70 71 72 68 67 65 64 56 48
20 22 23 27 33 40 45 48 47 45 53 60 62 60 59 56 56 46 45 47 50 56 66 76 76 84 78 82 82 78 78 72 78 77 75 78 79 75 72 74 69 70 69 70 66 66 63 57 45
19 22 28 32 38 39 45 50 50 45 54 64 59 56 57 64 62 47 44 43 47 62 76 84 83 85 92 94 88 89 78 76 79 81 76 79 80 78 75 70 66 67 70 69 66 70 65 53 46
21 27 33 37 40 42 47 52 49 47 57 57 53 50 57 61 61 51 44 46 55 64 74 83 88 90 90 88 89 89 85 80 78 79 76 75 81 80 76 69 68 69 73 71 73 73 67 53 45
24 28 30 35 40 44 48 48 47 47 56 56 56 45 49 56 58 49 44 51 55 59 70 82 88 88 88 88 89 90 92 87 83 77 75 78 83 80 74 71 70 70 69 70 78 74 64 51 46
28 32 32 33 38 47 52 54 47 49 55 57 52 42 42 50 56 51 47 47 50 57 63 75 86 89 86 85 85 89 90 82 83 81 82 82 78 76 69 71 67 63 68 74 78 75 56 50 49
32 36 34 29 39 43 48 56 50 47 56 60 55 41 42 44 58 54 44 43 43 48 54 61 73 78 78 74 75 79 77 80 83 82 77 75 73 72 69 64 63 66 72 72 73 66 59 60 64
29 33 32 29 34 43 47 50 47 44 51 61 62 46 39 42 47 50 42 39 38 40 43 46 51 57 58 57 60 68 68 70 71 69 67 72 73 73 71 68 66 62 69 76 77 73 68 73 75
38 37 32 35 30 39 41 47 55 46 48 61 62 59 42 39 40 39 40 38 33 34 35 38 40 41 43 46 48 52 54 56 52 54 56 61 62 65 69 70 78 77 80 81 78 82 84 84 84
44 35 35 35 40 46 44 47 53 50 50 57 55 58 55 39 44 40 33 32 31 28 28 32 35 37 39 40 42 44 44 47 49 51 58 55 56 59 62 64 69 77 78 78 79 81 80 83 88
43 34 38 37 45 46 43 44 40 45 50 53 52 56 61 57 45 38 36 34 31 29 29 31 36 37 37 37 39 42 43 41 44 49 51 53 55 55 54 57 57 63 69 71 81 85 86 89 91
42 43 36 36 43 48 40 46 39 41 43 49 47 54 58 53 54 39 36 39 36 36 33 32 34 35 36 36 40 45 48 49 50 50 53 55 58 63 65 66 67 65 69 78 80 82 80 82 87
44 51 48 48 49 48 39 43 37 34 38 40 43 50 51 49 54 44 41 40 38 38 40 39 39 38 39 41 45 48 53 57 58 63 66 66 67 71 80 82 82 86 86 89 84 77 72 71 80
46 50 57 49 54 46 50 50 38 39 41 36 41 44 46 46 48 46 40 40 37 38 40 42 42 42 42 43 48 55 59 70 74 78 80 83 83 78 70 80 80 92 92 92 79 72 69 69 66
48 54 40 51 56 57 51 50 41 41 45 39 41 44 45 42 43 45 44 42 47 48 45 43 43 42 41 44 50 52 61 67 81 83 81 77 80 84 86 85 84 92 90 73 69 66 67 62 67
47 48 54 60 61 65 51 56 55 48 44 42 41 40 40 39 40 40 42 44 46 50 51 52 49 41 42 45 44 50 62 70 71 80 81 90 91 93 93 84 88 88 75 64 61 63 61 55 58
48 53 51 54 60 66 68 56 49 50 47 46 42 42 43 41 34 38 40 42 46 52 58 53 54 59 60 54 52 64 66 68 72 78 91 97 98 94 72 74 79 82 71 63 62 64 54 55 56
48 50 48 56 54 56 61 51 49 46 47 47 46 39 40 37 36 32 33 37 44 49 54 51 57 69 75 81 88 78 78 80 78 90 94 96 78 77 80 77 76 72 69 65 58 53 53 55 60

GFSSGP_prec_cthk_072.txt.gz
RH
14 14 16 16 15 18 19 21 23 23 23 26 32 36 39 42 45 48 51 60 66 74 74 72 75 73 71 72 68 61 62 65 70 64 57 50 46 46 40 36 32 33 33 31 25 22 21 18 17
15 17 18 18 22 22 22 22 22 23 24 28 35 37 41 44 47 48 50 57 64 74 83 82 81 76 72 73 70 67 65 64 66 60 59 55 42 44 38 36 35 34 30 27 29 25 27 24 21
17 19 20 23 27 25 25 23 23 24 26 32 37 41 41 41 43 47 49 53 59 68 81 82 81 81 73 74 76 76 71 69 69 69 53 56 39 39 39 39 36 30 28 34 31 28 29 29 26
20 20 20 25 25 25 23 23 26 27 28 35 37 39 41 42 46 49 51 53 64 66 73 77 86 83 80 78 79 84 86 69 67 72 54 56 35 41 44 41 36 32 29 31 32 34 33 31 25
23 22 23 26 26 24 22 23 31 33 32 33 38 39 40 38 41 48 56 59 59 60 71 73 84 87 89 90 95 88 91 82 70 65 67 59 36 44 50 47 39 34 34 35 35 37 36 33 29
24 23 25 28 25 24 22 24 32 34 35 36 37 39 38 39 41 53 58 60 60 57 60 66 72 70 74 80 81 95 97 92 83 78 57 41 49 47 49 50 40 37 40 40 41 42 41 38 32
24 26 25 27 25 23 22 27 33 35 35 36 36 40 38 40 51 55 57 57 57 65 65 61 68 78 81 84 88 85 87 90 87 80 56 54 46 44 48 43 44 44 45 47 46 45 44 42 40
26 26 26 27 25 23 22 26 28 33 33 36 38 42 40 44 53 57 61 60 65 69 68 69 70 73 73 76 80 81 86 97 93 86 75 57 58 48 46 47 48 46 51 49 48 49 47 44 40
28 28 29 26 24 23 23 25 29 32 38 40 42 46 47 49 52 59 63 64 65 69 75 76 76 75 77 71 75 74 84 98 96 86 70 60 53 46 50 49 51 50 53 52 51 52 49 47 45
28 28 28 23 24 24 23 26 28 37 42 44 48 53 56 62 61 67 66 67 68 66 69 76 78 74 72 76 66 80 97 98 97 94 82 67 65 63 52 51 54 53 55 54 53 52 52 52 54
29 26 27 24 27 26 25 28 34 40 41 40 46 53 59 64 64 66 65 65 66 68 68 71 70 68 67 69 74 93 98 99 98 96 86 74 69 58 53 51 52 56 62 58 55 54 55 58 54
30 26 25 22 26 26 27 31 38 39 36 42 49 55 60 65 63 62 68 65 61 64 64 62 58 58 59 60 67 85 99 96 96 94 83 69 60 56 56 55 52 60 62 59 60 62 68 60 55
28 27 25 24 23 24 28 33 35 36 36 43 50 59 64 65 64 62 61 59 54 52 58 56 52 52 57 61 66 88 97 97 95 88 72 66 63 68 67 63 60 66 64 63 62 69 65 61 57
27 28 25 23 24 25 33 35 38 39 36 40 49 56 59 59 65 67 64 58 55 52 48 52 59 64 68 67 69 82 94 96 94 89 73 73 78 76 76 75 75 72 70 69 71 69 65 61 55
29 29 26 25 26 28 33 36 42 38 38 43 47 53 50 55 65 61 58 52 46 45 51 63 72 77 75 76 73 80 98 97 96 90 81 77 80 86 82 83 84 81 80 78 76 71 65 61 55
32 31 28 28 34 32 36 36 35 37 39 45 45 46 45 50 54 56 54 45 45 48 58 63 78 82 86 81 73 84 97 99 97 91 86 86 89 84 90 89 86 85 84 80 76 73 68 63 62
39 36 31 30 31 37 39 36 33 37 42 44 46 46 42 49 54 56 52 47 47 50 54 68 79 84 87 93 90 93 96 96 96 92 90 93 88 90 90 88 86 83 82 83 77 75 70 69 70
44 38 32 29 31 38 37 36 31 35 40 43 46 51 40 44 50 57 54 46 44 45 52 70 83 91 96 97 98 98 97 96 98 93 93 89 91 91 90 87 86 82 81 82 79 77 78 77 75
40 36 33 33 31 33 36 35 28 34 38 40 43 49 44 40 45 51 51 44 43 41 46 70 87 92 94 95 89 96 96 97 96 97 93 92 92 91 88 86 87 85 78 80 79 78 84 86 83
40 39 37 34 33 38 38 34 27 31 36 36 41 44 44 40 42 46 45 41 43 39 39 56 76 87 93 95 94 93 94 99 97 97 95 92 93 92 90 88 86 84 78 76 77 79 84 86 88
41 38 41 37 34 38 41 39 28 27 35 35 36 42 45 40 36 39 39 40 35 35 36 42 52 64 72 78 85 91 96 97 96 95 93 92 92 92 92 89 86 81 78 74 73 77 84 83 83
43 40 40 38 42 45 42 47 32 27 28 37 37 40 44 45 37 36 33 34 34 29 33 34 41 45 49 53 62 73 81 89 91 93 91 91 90 89 88 89 85 75 73 76 73 72 79 83 85
44 43 41 38 47 47 44 48 34 31 29 31 34 37 40 45 49 46 35 31 31 26 26 32 36 39 42 45 52 60 63 68 74 77 80 81 82 80 81 77 79 74 74 78 78 80 87 91 90
47 45 43 49 53 57 46 47 40 29 28 23 29 35 36 41 47 50 45 35 34 29 26 30 34 36 39 42 44 48 51 57 62 63 66 69 70 74 75 75 77 78 80 80 81 85 86 85 81
49 50 59 62 62 56 45 49 36 26 21 25 28 32 34 37 44 46 45 34 32 37 34 32 35 39 41 42 44 46 52 57 57 57 60 61 61 59 60 65 67 71 72 70 70 70 72 79 85
52 52 63 63 66 56 52 53 41 29 26 28 27 31 34 38 42 40 42 32 34 39 36 36 36 39 44 48 48 49 50 55 60 60 61 63 64 63 65 65 64 65 61 61 66 75 81 89 92
52 56 51 57 63 67 52 46 40 34 22 27 27 28 33 34 35 34 37 35 34 35 37 36 37 39 43 47 48 50 52 55 58 61 64 68 71 72 68 67 71 70 73 73 82 85 95 92 92
46 49 58 65 64 65 56 53 45 37 29 31 32 36 35 37 36 32 34 38 39 42 47 50 49 46 44 46 48 48 49 51 55 56 61 63 68 71 71 72 70 72 75 81 85 90 97 89 88
46 48 52 56 62 62 60 53 42 36 34 34 38 37 37 35 39 34 35 40 43 46 50 53 57 65 61 54 51 52 54 58 60 62 61 58 65 71 75 84 93 96 96 90 89 90 96 93 91
49 51 51 60 60 66 60 46 41 41 40 39 40 41 38 37 40 40 36 35 40 42 45 50 56 57 67 67 62 58 57 60 62 61 66 66 71 75 75 84 91 83 80 95 90 89 93 89 86

GFSSGP_prec_cthk_075.txt.gz
RH
13 14 16 17 16 16 15 17 21 20 21 23 27 32 35 37 38 40 44 48 54 67 70 65 61 61 67 69 66 70 69 66 63 74 70 64 57 47 39 38 33 37 42 41 34 27 26 23 23
15 18 19 19 19 19 18 20 20 20 20 24 31 36 38 38 39 42 45 50 58 64 74 70 65 66 67 65 69 68 69 65 64 68 74 61 55 45 42 37 33 37 39 33 25 24 24 23 23
17 20 20 22 24 21 21 21 20 21 23 26 33 37 39 37 39 41 44 51 58 66 73 85 78 69 85 72 74 68 66 65 65 67 67 62 59 48 41 38 37 39 37 30 31 31 27 25 22
21 22 21 22 24 23 21 21 22 24 25 30 34 33 36 37 38 39 43 52 54 60 72 80 72 76 86 78 76 85 73 70 67 67 66 58 62 48 38 38 40 40 35 37 38 33 33 30 26
23 23 22 24 25 24 21 20 24 28 28 32 35 33 33 34 35 37 44 49 61 68 83 71 72 76 72 72 76 73 78 87 86 76 68 61 61 49 36 41 47 41 42 44 40 38 34 29 28
25 25 24 23 25 24 22 22 26 30 31 33 34 34 31 33 36 40 45 51 59 60 62 88 74 78 75 73 76 77 90 94 83 91 70 58 56 59 37 42 45 39 36 40 43 41 35 32 30
25 26 24 25 26 23 22 25 26 27 30 32 33 34 34 36 34 37 46 52 56 63 66 76 85 83 85 83 86 85 86 97 92 90 77 67 62 61 46 46 42 40 41 44 45 43 38 37 35
27 26 26 26 24 24 22 26 26 26 26 31 35 39 39 43 42 42 46 56 59 66 75 81 85 81 80 81 84 80 80 88 98 91 85 72 71 60 43 42 43 43 45 46 48 47 46 43 40
28 27 27 26 24 23 22 24 25 24 31 36 39 42 47 49 53 55 48 59 61 67 72 81 88 89 90 85 81 80 78 76 89 98 86 78 60 56 57 43 47 48 48 50 52 52 50 48 45
28 29 27 25 23 24 23 24 25 28 36 40 41 45 48 54 57 57 52 59 62 65 68 73 85 85 87 83 80 74 72 83 94 97 94 69 64 62 53 47 52 52 54 54 57 54 52 52 44
29 28 27 25 24 24 23 24 28 33 36 35 41 44 50 58 61 57 55 56 56 59 63 70 76 82 82 75 69 72 80 94 99 99 88 76 75 73 60 52 54 56 57 58 57 59 54 50 51
30 29 28 26 24 25 25 25 29 36 33 35 40 43 52 58 59 56 57 57 61 61 60 65 64 67 67 66 67 67 85 99 99 97 93 80 70 65 62 56 58 60 57 58 61 58 58 57 62
31 29 27 26 24 24 26 27 28 35 35 39 43 45 49 52 50 57 57 57 54 53 51 55 58 52 57 61 65 69 95 99 97 98 87 76 67 65 69 67 66 61 59 59 65 65 65 62 64
29 29 28 26 24 25 26 27 33 35 37 40 46 47 48 44 49 58 60 55 54 53 49 49 52 47 54 61 70 74 94 99 97 92 87 77 72 76 69 67 65 63 67 66 70 68 68 66 63
31 30 29 27 24 25 28 31 36 34 37 41 48 48 48 43 45 52 54 54 49 47 44 48 58 63 67 73 75 79 92 95 96 93 91 88 79 78 77 72 71 73 72 72 75 72 68 65 62
34 34 32 28 27 30 33 31 34 34 37 42 51 51 51 44 44 46 47 46 43 47 50 54 59 71 79 79 84 84 92 98 96 90 84 80 79 79 74 79 84 83 81 79 81 74 73 66 61
35 36 35 31 28 32 33 34 31 36 36 41 47 53 57 48 44 48 49 49 43 47 50 57 68 82 86 87 83 86 87 94 92 89 82 81 81 80 82 86 84 84 85 88 86 82 78 71 66
38 42 36 32 29 31 32 33 32 32 33 36 44 49 55 53 42 47 51 50 42 43 46 59 74 83 94 93 86 88 93 97 95 89 86 83 86 90 90 86 88 91 92 93 87 85 84 79 76
40 37 33 33 33 31 29 31 34 31 33 33 39 45 53 52 44 45 49 47 42 41 44 62 81 86 95 94 93 95 99 98 95 92 84 87 91 93 91 90 94 92 89 92 89 87 86 86 86
42 39 35 35 36 33 31 29 33 33 29 30 35 41 48 51 45 40 41 43 42 39 41 58 80 90 91 94 92 94 95 98 97 96 90 87 90 92 92 92 91 88 87 88 89 89 88 88 89
45 43 39 38 39 33 30 29 33 31 28 28 35 37 44 50 44 36 35 37 41 33 36 46 59 73 79 85 91 92 91 94 97 96 89 88 93 93 94 90 89 88 86 85 83 82 82 86 91
46 44 42 41 42 34 34 32 34 32 28 25 29 35 44 49 49 41 35 31 32 29 29 37 45 50 56 62 72 80 88 87 90 95 92 95 95 93 93 91 89 88 86 85 83 79 77 82 86
44 44 44 42 42 38 32 41 34 35 29 24 26 33 37 44 50 50 45 31 30 27 25 31 39 42 46 51 58 64 80 89 94 97 96 95 96 94 92 91 91 91 90 86 79 77 78 81 85
47 49 49 49 49 50 38 45 33 35 30 22 22 28 32 39 46 49 49 44 31 29 26 29 34 38 41 45 49 57 63 73 81 83 84 82 82 82 84 85 84 87 86 83 82 80 84 83 84
51 52 54 59 58 47 43 48 37 36 32 23 24 27 31 36 41 44 47 45 33 31 31 32 33 37 39 43 45 47 51 56 61 65 66 69 73 75 76 78 79 78 77 77 77 79 76 79 82
53 54 58 56 60 52 50 49 38 36 36 32 26 26 32 36 41 43 45 43 34 30 34 32 35 40 42 43 43 45 50 51 54 57 60 61 65 65 71 73 72 75 76 74 75 76 71 69 69
61 62 55 58 62 62 51 46 40 36 36 34 24 28 34 34 38 42 42 40 34 30 36 33 33 36 40 42 42 45 49 51 52 54 56 60 61 62 63 62 62 63 64 66 69 68 66 69 72
54 54 60 64 62 58 52 52 43 39 42 35 29 29 29 35 35 37 39 32 35 34 37 40 37 35 39 42 43 44 44 47 52 55 57 61 65 65 64 66 66 68 69 71 72 73 71 75 79
54 57 56 54 56 53 53 50 43 41 40 39 33 36 34 38 39 38 38 35 35 42 45 47 49 49 50 50 50 50 48 49 53 58 62 63 64 63 64 71 71 72 75 76 76 79 82 89 96
56 54 51 57 58 63 58 49 45 42 45 45 39 38 41 44 44 43 40 38 39 41 43 47 50 51 55 62 63 60 58 54 55 57 59 61 62 64 60 64 67 69 73 81 89 92 93 95 98

GFSSGP_prec_cthk_078.txt.gz
RH
13 14 15 17 18 15 14 16 17 18 18 19 23 25 31 30 34 37 33 31 37 51 67 63 56 57 61 63 67 65 67 71 72 74 77 74 68 61 51 41 34 44 67 47 37 27 29 30 30
14 16 18 19 19 18 18 18 18 19 19 20 22 29 32 34 32 35 35 36 38 45 57 68 61 59 60 63 66 69 69 73 70 70 71 79 74 61 51 39 37 40 57 46 33 27 27 25 26
16 17 22 22 20 19 20 20 20 20 20 21 28 32 32 33 32 34 35 35 44 46 57 65 67 62 68 77 83 72 70 71 72 70 68 72 72 61 53 41 39 40 45 41 31 25 23 24 25
18 20 21 22 23 22 21 21 20 21 21 24 28 30 30 31 33 34 35 35 46 49 59 74 76 74 78 66 67 93 87 76 70 71 69 69 72 68 62 42 40 41 42 35 25 25 26 28 26
21 22 23 21 23 22 22 20 22 24 24 27 30 33 30 30 31 32 35 36 47 55 65 66 74 87 82 79 76 94 97 89 85 76 74 72 68 64 62 48 35 40 41 31 27 29 30 30 30
24 23 23 22 24 23 22 21 23 24 26 28 29 30 30 32 33 37 34 38 42 53 62 69 70 82 90 93 79 94 90 84 87 93 87 79 70 62 69 53 37 41 43 33 34 34 33 32 30
25 24 24 22 23 24 23 22 24 23 26 29 29 30 33 35 39 40 39 42 42 52 63 73 80 69 82 88 76 84 86 85 88 83 96 90 79 66 78 60 46 44 49 40 36 32 31 32 32
25 25 26 23 23 24 22 21 22 23 25 25 31 32 37 40 42 45 50 50 46 55 65 70 79 83 84 83 83 84 82 87 86 86 89 90 89 70 74 76 56 41 41 44 38 33 35 36 34
25 25 25 23 24 25 22 21 23 24 24 27 35 36 39 41 44 52 54 54 53 59 64 69 76 87 87 84 86 88 88 85 84 92 93 96 87 81 70 71 55 41 44 46 40 39 39 39 39
26 25 25 25 25 25 23 22 23 24 26 32 36 37 39 43 50 56 58 52 55 59 60 66 69 80 86 85 85 90 84 83 85 93 96 98 89 81 81 75 54 44 48 49 46 44 43 44 43
26 27 26 26 24 25 24 23 24 24 26 33 33 35 40 45 48 50 57 52 52 55 58 60 61 66 81 88 89 82 83 83 85 97 98 95 93 88 83 64 52 50 52 53 50 48 50 50 53
26 28 28 27 25 25 24 26 24 25 29 31 33 35 39 43 42 42 54 54 54 58 61 59 63 65 67 76 78 75 75 76 84 98 98 98 96 85 75 67 61 57 55 56 53 54 55 55 57
27 29 31 28 26 24 24 25 25 26 30 32 36 38 41 41 38 44 56 57 53 51 52 54 58 62 64 66 67 65 69 71 86 99 95 94 86 76 70 67 66 65 61 59 60 59 60 59 61
28 30 32 29 27 24 25 25 27 28 32 35 36 39 43 42 38 43 47 49 47 47 46 51 48 47 49 55 58 58 62 68 97 98 95 91 87 82 79 74 67 64 65 64 63 65 66 64 64
28 30 32 32 29 24 26 26 28 32 35 34 36 38 43 42 40 40 42 44 46 44 44 44 45 45 51 57 63 66 70 80 93 97 95 93 90 89 81 76 71 70 70 68 68 68 68 68 69
30 31 32 34 30 26 28 29 33 35 36 34 37 40 41 47 40 39 43 45 45 44 42 43 47 52 60 62 70 70 77 85 94 96 93 90 87 80 78 77 75 77 75 72 71 75 73 73 67
32 29 32 37 34 30 32 29 35 36 36 33 34 38 42 48 49 37 42 45 47 42 42 42 47 54 65 77 77 83 83 88 94 93 90 85 82 81 78 75 76 82 82 80 77 74 73 72 67
34 35 35 36 34 29 30 31 31 33 33 32 33 35 41 44 49 39 40 44 46 42 41 44 52 67 79 79 82 80 81 91 94 93 93 90 90 91 89 86 84 82 79 80 83 81 78 74 71
40 39 35 34 38 34 30 28 28 30 32 32 33 32 37 42 50 42 39 43 43 38 38 41 63 76 82 87 79 84 85 89 92 94 92 92 88 88 82 82 85 84 83 86 87 86 84 82 77
44 41 37 36 39 40 32 28 28 29 34 32 30 32 35 40 48 45 37 38 38 37 33 42 63 81 85 89 89 92 92 96 96 91 85 83 81 82 85 89 88 90 84 84 89 89 87 90 87
43 43 40 40 41 41 35 30 28 28 32 29 28 30 33 39 47 44 36 32 36 33 32 40 50 68 81 87 89 93 96 95 94 88 84 84 85 91 91 92 90 88 84 89 89 89 88 89 92
44 43 41 43 44 42 39 33 27 31 33 32 28 27 31 36 45 42 38 34 32 31 27 33 42 50 56 63 71 80 91 94 89 90 87 90 91 92 93 94 92 87 89 86 87 88 87 87 87
44 43 42 43 44 44 39 38 29 32 34 32 28 28 28 35 41 43 43 42 34 31 22 29 36 43 48 53 58 64 77 89 87 86 88 88 91 93 94 90 91 88 87 86 86 86 83 81 80
47 46 45 46 46 49 40 38 32 30 33 33 28 27 27 34 38 43 44 44 40 32 26 32 35 39 44 47 51 58 66 76 89 92 87 89 88 90 92 92 91 90 90 88 85 85 80 80 80
48 49 53 55 55 48 40 42 35 34 36 35 28 26 28 29 36 41 42 45 44 33 29 31 36 37 40 44 47 52 58 62 75 83 85 82 80 79 82 85 84 83 85 85 85 89 88 78 78
54 54 52 53 53 51 49 47 41 35 37 36 35 28 29 28 33 40 42 46 47 32 28 27 35 38 40 43 45 48 51 55 60 64 66 65 65 67 72 74 75 78 83 86 87 91 93 85 76
66 63 56 55 56 55 50 50 43 37 39 37 36 30 29 30 37 38 39 46 49 37 26 26 29 36 39 42 44 46 50 51 54 56 58 57 58 59 63 67 68 73 74 79 82 84 79 76 77
58 60 64 62 68 65 51 50 47 39 38 40 39 35 33 33 38 40 42 42 46 38 35 29 28 29 36 39 43 46 49 50 52 53 52 53 56 59 60 63 65 67 71 76 77 76 76 76 78
59 61 57 56 59 59 57 50 48 41 41 41 39 36 37 36 39 39 41 43 45 39 37 37 34 30 33 38 43 48 51 53 55 58 60 64 67 67 67 68 71 74 77 76 74 74 77 78 76
49 52 55 60 61 59 57 54 53 45 47 49 48 40 40 42 42 44 45 44 42 41 41 43 45 45 43 42 48 49 51 56 55 57 57 60 65 67 70 73 74 73 78 81 79 79 80 86 84

GFSSGP_prec_cthk_081.txt.gz
RH
11 12 15 18 20 18 17 15 16 18 20 19 17 18 29 30 31 45 51 42 29 33 44 54 60 59 57 58 56 56 62 63 68 72 77 75 70 65 56 47 34 33 54 40 29 32 33 35 32
15 16 18 21 18 22 19 19 20 21 20 17 17 20 23 35 44 35 31 28 30 34 41 55 60 58 57 55 58 62 66 62 69 78 80 80 77 70 64 47 40 40 70 55 31 32 34 34 29
15 19 24 23 21 21 22 23 21 22 19 16 22 27 34 38 41 32 30 30 32 36 39 43 50 59 62 64 62 66 74 71 73 76 80 76 81 75 71 54 55 44 73 63 33 27 29 28 27
19 20 21 19 22 25 22 22 23 23 22 20 23 27 37 28 30 33 31 31 35 36 42 42 52 61 71 68 83 80 82 93 83 80 79 75 77 81 75 61 48 42 53 48 28 23 26 26 26
20 23 23 23 22 23 22 22 21 23 25 27 29 30 38 35 28 31 32 31 34 35 41 45 50 62 64 75 92 95 94 82 96 77 76 76 74 72 68 65 48 48 40 36 26 25 25 27 28
21 23 25 23 23 23 23 24 22 25 28 30 25 29 32 36 30 34 34 35 34 37 38 46 60 71 71 74 83 89 91 82 98 88 88 81 79 69 73 68 52 48 42 32 29 30 29 31 30
22 27 25 24 22 24 24 25 27 25 23 30 37 30 35 38 34 39 36 37 39 40 39 44 59 74 81 78 82 88 90 86 97 91 88 91 91 78 59 80 57 48 43 32 31 34 32 31 30
23 27 25 25 24 23 25 24 26 23 26 24 22 25 37 49 37 38 41 41 44 43 44 48 60 75 76 76 79 87 91 91 98 87 88 77 98 85 65 79 67 54 44 41 38 33 33 31 32
25 24 26 26 26 24 25 24 25 24 22 25 28 26 33 33 35 44 47 46 47 41 46 50 58 65 79 85 79 92 94 90 98 95 87 84 92 96 81 81 77 66 52 44 33 33 35 34 35
25 24 26 28 26 24 26 24 23 25 24 31 34 34 36 33 41 46 48 49 49 43 46 51 56 62 69 79 79 81 88 90 88 92 88 91 95 96 88 84 84 74 60 43 36 35 38 38 39
26 25 27 28 27 25 26 25 25 27 26 30 35 31 35 38 39 46 45 46 47 45 47 49 54 56 59 69 82 85 83 84 89 87 86 93 97 96 93 91 87 72 60 45 40 38 43 46 46
26 27 27 28 28 27 26 25 25 26 27 28 29 29 33 38 41 40 41 51 52 53 49 52 55 56 58 58 71 78 78 78 78 80 87 94 93 97 95 89 86 72 62 49 45 44 55 52 52
27 27 28 29 29 28 27 25 23 26 25 27 29 30 33 38 39 37 40 45 51 56 55 52 55 60 61 60 62 67 69 68 67 72 76 84 98 95 92 91 89 74 65 57 50 57 58 60 57
30 30 30 29 31 28 27 25 24 25 27 30 31 31 33 36 37 37 39 41 44 47 48 49 50 52 56 53 54 57 62 62 61 61 71 86 86 97 94 90 90 74 67 63 59 64 61 63 65
31 30 30 30 31 31 28 25 25 24 27 32 34 33 35 37 39 38 40 43 42 42 47 48 46 45 45 47 47 50 53 53 54 63 69 87 95 97 94 93 85 77 72 69 68 67 62 67 67
33 32 30 30 32 34 31 25 27 26 33 33 36 34 35 34 39 42 37 38 42 44 45 47 46 45 48 52 54 56 56 56 61 70 84 97 95 94 88 93 92 86 81 76 72 71 69 70 71
37 34 31 33 32 33 32 29 35 33 35 35 36 37 34 35 38 43 39 36 42 42 43 45 44 41 48 56 59 69 68 70 77 82 91 94 95 90 87 92 87 78 75 73 77 77 79 78 74
39 36 36 36 38 32 32 33 35 34 32 37 36 40 39 35 39 44 41 37 41 42 40 44 42 50 66 73 75 77 82 83 86 87 93 93 95 94 92 91 89 81 78 80 82 83 83 82 80
46 43 42 40 39 36 33 30 29 32 29 32 37 36 40 37 41 46 45 39 38 38 37 37 43 61 74 81 78 81 83 82 89 89 92 94 94 92 94 93 91 84 86 86 83 82 83 83 78
47 46 43 42 41 38 36 32 29 27 26 28 33 35 40 39 41 43 46 42 32 33 36 32 44 63 80 82 82 79 86 83 81 87 92 94 93 93 92 90 86 85 88 87 86 87 86 86 81
52 49 44 45 45 44 39 36 32 30 27 28 29 30 32 36 39 42 45 38 32 29 32 30 39 54 70 82 83 86 89 91 91 90 93 92 89 89 88 86 83 84 89 89 89 90 90 92 85
57 51 45 47 46 49 43 38 32 29 26 27 32 32 31 30 35 39 44 36 33 28 27 27 34 45 50 57 69 74 81 86 90 91 93 91 92 92 92 89 88 88 90 92 89 90 90 90 86
56 53 49 47 47 51 44 42 33 33 31 33 31 30 30 32 30 36 41 40 39 34 27 23 28 39 46 51 55 60 67 73 84 86 92 89 90 90 88 81 85 90 91 90 89 87 87 86 88
59 53 53 50 49 52 45 44 38 34 34 37 36 33 31 30 31 35 41 43 41 40 29 26 29 34 40 45 49 53 60 67 73 86 84 82 78 84 85 84 91 92 92 90 88 88 88 86 84
56 55 58 57 55 55 45 44 41 35 35 37 36 33 32 30 29 35 40 44 44 41 31 27 30 33 35 41 46 51 55 62 67 77 84 81 80 83 88 92 93 93 93 93 90 87 90 85 83
59 55 54 59 60 54 47 45 40 38 39 37 35 33 33 30 30 28 38 44 45 41 33 25 29 34 35 39 43 49 53 55 62 64 66 66 66 72 79 83 83 83 85 85 85 86 87 84 85
67 57 53 66 63 61 57 50 49 43 40 42 40 38 35 37 29 29 35 42 44 44 36 26 25 31 35 37 41 44 49 52 53 55 58 56 57 61 68 71 73 77 80 82 82 85 87 84 87
68 67 68 66 69 67 54 50 50 48 42 46 44 45 41 37 32 32 37 41 42 44 40 29 25 28 31 33 36 39 44 50 53 53 55 55 57 58 61 63 63 64 69 71 74 78 81 83 86
68 67 74 71 65 68 68 58 53 52 47 49 52 49 41 39 37 36 40 43 45 45 42 33 28 27 32 33 34 36 41 47 55 59 59 62 68 67 68 65 61 61 64 67 71 72 75 76 78
62 60 64 73 71 65 64 65 53 52 51 52 58 48 45 41 40 38 41 44 48 47 47 36 33 29 31 35 36 38 41 46 47 48 55 62 64 63 65 66 63 64 68 70 71 74 77 78 78

GFSSGP_prec_cthk_084.txt.gz
RH
10 10 13 19 22 21 22 20 16 17 19 20 19 17 19 26 26 46 54 42 39 43 33 28 38 45 51 54 57 59 57 56 57 62 68 75 74 64 55 47 38 35 36 33 34 31 31 32 33
10 14 17 21 25 21 22 20 20 21 22 20 17 16 20 26 42 45 44 30 25 28 28 27 41 54 56 58 61 63 64 65 63 66 71 76 78 72 61 50 40 45 48 40 30 29 31 32 35
12 16 20 26 26 24 24 25 24 23 22 19 18 27 29 39 40 41 29 22 23 26 29 31 35 46 53 58 61 64 63 67 76 71 81 79 81 78 69 56 46 52 60 53 30 28 32 30 34
14 19 20 20 21 20 26 26 23 23 23 21 20 22 30 30 33 27 23 25 27 24 29 33 35 41 48 60 67 74 75 74 80 79 86 84 80 77 77 70 60 62 65 72 32 26 33 32 36
16 20 22 24 23 24 24 23 23 23 25 25 26 24 36 37 32 25 24 28 33 32 31 32 37 41 49 58 71 82 82 98 97 98 91 83 79 73 77 74 65 69 67 68 42 31 29 28 29
19 19 21 24 26 24 26 23 23 22 25 28 29 27 32 35 32 30 27 32 33 34 36 39 39 41 48 57 70 79 79 71 90 91 99 89 80 74 77 82 70 66 60 49 33 26 25 26 29
17 20 22 25 27 25 27 24 24 25 28 26 29 30 28 33 37 36 31 27 31 36 40 42 42 43 53 63 76 77 79 79 83 88 88 94 83 78 72 77 72 66 49 42 30 27 30 31 33
17 20 20 24 26 28 26 25 25 25 26 27 26 23 26 38 37 32 26 31 32 36 45 47 46 49 53 64 73 78 75 79 85 89 93 98 95 92 81 74 71 59 51 39 35 32 30 34 36
18 20 20 23 26 28 29 25 24 25 27 26 26 28 29 31 27 29 29 37 34 36 41 41 46 47 55 61 69 77 79 84 85 95 98 97 84 90 94 73 71 74 54 41 37 34 39 31 36
19 21 21 22 28 29 27 28 24 28 27 26 29 33 33 33 32 34 37 42 33 33 38 42 44 49 52 57 65 72 75 87 88 85 98 98 89 91 93 91 75 72 55 44 39 40 39 32 36
20 22 22 24 27 25 27 27 26 26 27 28 31 35 35 34 36 38 41 40 36 36 43 43 46 47 52 53 56 72 79 79 87 83 84 94 96 93 95 95 91 80 68 46 39 39 38 34 41
23 24 24 26 27 27 26 27 26 27 27 28 28 28 27 33 35 38 40 38 38 37 44 49 46 49 50 51 53 61 78 84 85 86 90 90 89 95 95 94 96 88 66 52 42 43 41 37 44
26 24 25 28 28 26 26 28 27 26 26 26 27 27 28 28 32 35 36 37 35 34 38 47 48 50 54 55 53 55 60 74 81 83 82 80 81 89 91 93 97 92 73 59 51 55 47 41 49
28 27 26 28 28 27 28 26 28 26 25 25 27 29 30 30 32 36 36 38 37 37 36 37 42 43 48 55 58 57 56 63 68 72 72 74 74 80 97 98 96 89 75 64 59 58 56 51 54
32 30 30 28 29 31 31 27 27 27 25 25 29 30 32 33 34 33 37 39 35 38 38 37 38 42 45 43 42 45 49 53 61 64 65 66 66 74 88 98 94 87 75 68 68 65 62 60 59
38 35 32 29 31 30 32 26 28 29 25 26 28 32 34 33 32 34 37 41 36 36 43 38 36 40 41 41 41 43 45 51 55 58 62 61 66 78 86 93 92 91 86 76 73 67 66 65 65
41 38 34 32 32 32 33 28 30 32 26 29 35 36 41 41 37 35 37 41 37 37 40 37 34 36 38 41 45 46 47 50 53 55 59 63 83 94 95 95 92 98 84 81 79 72 68 69 70
48 43 40 37 34 38 35 30 30 36 34 34 33 37 40 45 46 38 40 42 39 35 38 36 34 35 45 58 60 62 67 64 66 68 70 77 93 98 97 97 97 97 88 81 79 75 76 76 77
52 49 47 40 38 40 40 33 30 35 35 34 33 32 36 40 46 42 43 42 44 37 36 33 32 35 49 67 66 67 72 73 74 75 81 90 95 98 97 94 95 95 92 82 80 81 82 82 81
57 58 52 45 45 46 42 35 32 32 29 30 30 31 32 37 43 47 41 42 44 37 32 32 29 36 46 68 71 73 73 75 79 81 91 93 93 92 93 94 93 94 96 91 81 82 85 84 82
51 59 52 50 45 46 45 39 34 32 31 31 29 27 29 35 43 45 39 41 44 34 29 28 28 34 43 52 64 75 79 82 85 86 95 94 94 95 95 90 92 92 89 83 79 83 81 82 83
59 55 55 55 54 55 50 44 36 35 34 34 31 29 28 31 37 39 37 39 43 39 32 28 26 33 40 44 49 54 63 73 82 87 92 93 92 89 89 88 88 84 81 79 81 83 83 84 85
67 61 67 66 62 54 49 49 34 33 33 35 30 29 31 31 32 35 35 37 43 42 39 29 27 33 37 39 42 46 53 57 69 78 84 89 89 87 87 87 85 84 80 79 82 84 88 91 89
78 76 73 68 64 59 48 49 39 34 34 37 35 35 33 32 32 33 33 36 42 42 40 30 27 33 37 38 39 44 47 52 56 71 80 84 86 86 84 85 81 76 80 90 85 90 92 92 89
68 75 88 85 71 60 47 47 39 33 34 38 39 38 35 34 35 37 33 33 40 43 41 35 26 30 37 38 40 45 48 50 53 63 76 79 81 81 80 82 81 84 84 85 90 93 93 90 90
70 66 81 80 74 61 49 46 39 34 34 36 38 38 37 35 33 38 35 33 40 43 41 38 26 28 34 38 40 46 47 50 51 54 64 74 77 77 77 82 81 83 82 87 91 91 95 94 92
76 69 61 73 74 88 67 48 48 40 37 37 38 39 38 37 36 39 39 34 38 42 41 39 30 26 30 35 39 44 48 48 50 53 53 54 57 58 61 65 67 70 74 81 84 89 87 92 92
77 74 81 83 84 94 65 56 50 47 43 42 44 47 48 41 39 39 37 32 38 40 42 42 36 27 26 31 34 38 42 50 54 57 57 58 58 55 52 52 56 62 64 71 76 78 79 85 84
75 86 89 85 76 98 89 70 66 57 52 49 53 52 51 46 42 42 38 36 39 42 41 42 40 32 27 27 31 33 37 43 50 57 60 61 63 62 59 60 61 62 63 64 67 68 71 74 78
74 72 79 95 91 79 90 81 67 61 58 56 55 52 53 48 42 43 44 42 41 44 44 45 45 35 30 29 30 32 36 40 45 49 52 54 55 62 62 62 65 67 68 67 68 70 70 73 76

GFSSGP_prec_cthk_087.txt.gz
RH
9 9 12 16 22 22 26 23 22 21 21 20 20 22 20 18 25 40 42 38 37 37 37 34 34 33 37 47 52 57 53 55 57 60 63 61 63 61 50 37 33 36 33 27 28 26 26 25 28
10 12 14 17 22 27 28 21 25 23 22 20 22 20 19 30 31 35 36 32 33 27 22 23 25 33 45 51 59 60 62 65 64 64 64 66 64 71 64 50 41 44 48 39 37 32 30 29 34
10 15 16 20 24 26 27 23 24 23 23 24 20 20 26 33 38 37 30 25 26 27 19 23 27 28 42 57 60 62 64 66 70 71 72 69 66 71 66 58 50 58 57 40 37 35 35 37 38
14 17 17 21 22 22 26 26 25 24 25 22 20 25 29 30 28 28 26 23 22 24 29 31 29 29 32 41 51 58 67 70 79 86 89 82 75 74 69 64 60 63 63 48 37 33 36 34 33
17 20 21 21 19 22 27 28 25 25 26 23 22 25 31 32 31 27 25 24 24 26 30 32 33 35 36 37 42 50 65 76 79 83 86 98 83 82 76 77 68 70 74 64 41 37 35 32 33
18 19 23 22 21 21 23 28 25 25 24 25 24 27 33 33 29 28 27 27 27 27 29 32 36 38 39 39 43 55 62 76 78 86 91 96 97 89 80 75 73 76 71 70 57 37 34 35 36
19 23 22 21 20 22 25 28 26 24 23 24 25 30 39 34 26 25 30 30 26 29 30 32 37 41 43 43 45 56 71 78 83 82 82 82 98 93 79 76 78 75 75 64 58 42 43 38 35
18 23 24 20 21 22 27 26 29 24 25 24 24 26 36 31 29 29 28 23 25 29 30 37 40 45 43 47 51 59 72 82 83 84 83 86 95 97 85 78 83 80 71 62 51 48 34 35 39
21 25 23 17 20 26 28 29 28 24 24 24 25 23 25 30 31 29 25 26 30 33 30 32 38 42 44 48 51 62 73 80 83 87 85 86 88 99 95 83 77 74 71 58 44 36 30 41 48
23 23 20 16 22 29 29 31 28 25 26 24 25 25 27 31 32 29 29 28 30 30 30 31 41 41 45 48 51 54 69 76 81 86 92 93 94 94 92 92 85 67 64 46 39 38 41 43 46
20 21 18 16 22 27 28 27 28 27 26 25 26 28 30 34 32 32 34 26 29 29 29 32 41 44 46 49 51 50 61 73 81 89 91 97 98 98 92 89 90 81 65 52 47 44 40 38 41
24 22 21 18 22 26 28 25 27 27 25 27 27 27 28 30 29 31 36 31 31 31 29 30 41 48 48 47 50 52 54 73 80 85 89 86 94 94 90 88 92 84 71 59 46 39 38 38 50
28 25 24 23 22 25 28 25 25 26 27 28 27 26 26 26 28 33 38 33 31 30 28 27 33 44 48 50 55 52 50 58 75 83 83 86 87 85 88 89 87 87 72 56 46 41 39 45 54
32 30 26 26 26 24 27 26 26 25 29 29 26 25 25 27 27 33 32 29 31 31 28 31 30 35 42 49 52 55 56 55 59 72 82 84 81 77 77 82 88 88 82 64 50 43 43 53 55
35 35 29 27 28 27 28 27 26 26 30 28 25 24 27 27 28 30 33 29 32 34 28 31 34 33 37 42 43 44 47 55 56 61 67 75 74 77 77 75 87 87 83 62 56 51 51 61 63
41 40 37 30 27 27 33 27 26 28 31 28 26 26 27 27 29 35 37 31 34 35 29 33 35 37 35 37 37 40 42 46 51 60 67 70 70 70 72 70 87 90 81 67 67 64 60 62 59
52 51 41 33 30 30 33 30 27 31 32 30 28 27 27 29 35 38 35 32 34 37 32 33 36 37 34 37 46 49 48 44 45 48 58 65 69 70 74 83 85 86 83 81 77 73 68 67 62
53 53 47 40 33 36 37 37 31 32 34 29 29 29 32 29 34 39 37 32 33 37 37 34 33 34 30 42 57 58 57 57 54 52 53 57 62 66 80 89 92 89 83 85 82 80 75 68 67
60 63 57 48 41 48 46 44 36 35 36 32 33 33 30 30 31 35 38 36 34 37 38 34 31 32 29 42 61 63 62 65 62 61 64 63 68 80 89 96 97 92 89 87 84 79 75 74 80
62 70 66 52 43 56 49 48 41 41 37 34 35 33 31 30 32 33 39 37 34 36 38 29 29 29 31 38 56 66 63 64 66 66 72 79 80 92 98 96 94 94 94 89 87 82 81 81 82
63 62 66 58 52 60 58 50 44 38 33 32 33 32 32 30 32 32 38 37 35 35 35 29 26 25 31 38 44 58 66 72 70 68 74 83 91 93 97 97 97 98 96 93 86 82 78 81 80
67 66 65 69 74 82 65 64 51 41 36 35 36 34 30 28 30 32 38 39 35 35 38 34 26 22 29 37 41 44 46 57 69 75 79 87 95 94 95 95 95 94 96 97 91 83 78 80 82
75 73 78 84 79 77 66 69 45 40 36 36 36 32 32 30 30 33 37 35 33 34 37 34 30 23 29 36 39 41 45 51 58 70 81 88 94 95 97 96 96 94 93 92 88 81 81 82 82
85 88 87 84 87 90 65 73 51 36 33 35 38 38 32 31 32 31 35 33 32 35 36 36 32 24 30 35 38 41 44 47 53 62 75 88 92 94 92 89 88 88 87 88 84 81 82 83 84
95 96 98 98 97 80 56 64 52 35 33 36 39 38 35 33 33 36 36 35 33 32 35 37 36 25 29 33 37 40 44 46 51 59 70 83 87 91 88 86 85 82 81 79 79 79 80 83 87
88 95 95 88 89 77 55 60 45 36 35 37 42 40 37 37 36 38 37 38 32 31 36 37 37 27 28 32 36 39 44 46 49 55 65 74 80 81 83 83 82 82 82 80 78 78 84 87 93
90 92 80 94 84 93 73 60 45 43 42 41 41 42 39 40 41 42 39 40 37 31 34 37 37 34 26 30 34 39 41 44 47 51 55 58 62 66 66 68 75 74 74 76 77 84 85 88 92
88 92 90 96 93 95 71 66 60 53 47 44 43 44 43 44 43 43 42 40 35 31 35 38 39 36 28 27 31 32 37 41 50 54 55 55 59 57 56 56 59 62 66 68 72 76 81 82 86
88 97 96 90 86 97 97 87 78 63 58 55 52 52 50 48 49 49 48 45 38 37 36 38 38 38 37 27 28 31 32 36 43 50 57 57 56 58 60 61 63 61 58 61 65 65 69 71 78
88 93 93 98 89 88 98 94 86 79 68 61 57 56 55 53 55 58 57 49 40 41 40 41 43 42 40 35 27 31 34 36 38 42 49 53 52 53 56 62 61 63 64 65 64 61 63 72 72

GFSSGP_prec_cthk_090.txt.gz
RH
10 10 11 14 18 22 24 23 20 19 20 20 20 21 24 26 24 26 24 29 31 35 38 36 35 35 35 35 38 46 50 52 53 53 53 52 50 48 44 36 32 30 31 33 29 32 32 31 30
10 11 13 16 20 25 25 21 20 18 20 20 21 23 26 30 26 26 28 24 28 29 28 27 22 25 32 38 44 50 55 62 56 59 60 60 59 56 47 40 35 31 29 35 33 34 36 33 31
11 13 16 17 22 24 26 21 19 19 22 24 24 23 24 27 28 26 25 26 25 22 20 21 23 26 28 42 49 52 57 57 61 62 63 62 62 63 60 47 46 38 36 38 44 36 33 32 32
12 17 18 21 21 20 23 24 22 22 23 24 22 26 27 28 28 26 23 23 21 21 22 24 28 30 31 33 50 60 60 64 62 63 70 72 74 74 69 53 53 57 51 53 51 39 40 40 39
16 19 22 22 18 21 23 23 23 22 23 26 24 26 27 28 28 27 26 25 23 25 25 26 28 30 34 35 37 40 47 56 63 68 73 77 84 92 79 62 61 66 59 53 52 45 45 43 40
16 20 25 25 18 18 21 24 24 23 24 25 26 28 29 29 26 28 25 22 24 27 25 26 29 32 36 37 38 39 41 53 66 78 91 94 94 87 98 78 65 75 76 59 51 43 38 39 35
18 21 23 21 18 18 22 24 23 24 24 26 27 31 32 32 31 30 27 25 27 24 24 25 27 31 36 40 41 41 46 58 73 81 89 92 87 92 95 97 87 84 87 70 57 45 39 39 37
17 21 21 21 20 16 26 25 25 28 27 25 28 32 34 29 32 31 30 29 26 27 26 25 27 30 36 41 41 46 51 62 73 82 87 89 91 89 94 96 91 86 88 72 62 55 46 43 40
18 23 24 20 19 16 23 25 27 27 27 26 26 27 24 25 30 32 31 30 29 32 29 26 24 30 38 40 43 47 52 64 77 81 83 87 88 86 91 96 92 84 86 76 61 60 52 52 47
21 23 22 18 15 16 24 26 26 27 27 25 27 27 24 26 27 30 29 30 32 35 30 27 24 32 39 42 47 50 55 59 76 82 88 91 91 85 97 98 90 76 83 74 61 55 65 60 51
19 19 19 17 16 18 26 26 26 26 27 25 26 27 26 28 28 31 31 30 30 32 28 28 25 34 41 44 50 52 55 55 71 82 87 91 92 92 98 98 93 77 74 67 60 51 57 64 51
22 18 19 18 17 18 28 28 28 27 26 26 27 28 28 29 30 29 30 30 28 31 28 28 24 30 43 45 48 53 54 53 64 84 88 96 96 97 97 94 93 82 78 68 57 53 60 52 47
24 21 19 19 20 20 25 28 27 26 28 27 28 28 29 27 28 29 32 30 27 31 30 27 23 27 39 45 48 51 53 54 58 87 86 92 90 91 88 90 87 84 71 59 49 40 46 53 54
26 26 23 22 22 23 26 27 26 26 26 27 28 29 29 27 27 29 33 32 30 32 34 29 24 26 30 37 46 53 55 58 59 69 85 84 87 88 87 84 86 89 80 69 60 51 57 52 51
28 28 27 25 24 26 26 24 25 25 25 26 27 31 29 26 27 27 29 33 32 32 35 33 26 27 30 34 40 43 47 53 61 60 68 75 79 85 85 83 77 77 79 68 64 54 46 52 51
32 32 31 26 27 29 30 24 22 23 25 27 28 31 30 25 27 27 28 33 32 29 33 32 29 30 32 33 34 39 43 47 53 63 63 64 70 77 76 75 81 73 84 75 61 51 49 57 56
40 38 33 31 35 37 34 29 24 26 30 29 31 30 28 27 27 28 30 38 35 28 32 33 31 30 33 33 30 44 55 56 51 56 65 71 73 71 67 86 72 78 70 72 64 57 62 61 60
44 42 39 38 40 45 43 40 32 29 35 34 33 30 31 28 26 27 34 37 35 34 33 36 34 30 33 31 36 56 63 60 60 52 57 67 67 76 73 72 73 82 81 69 63 62 66 64 67
45 46 44 44 46 49 54 49 36 33 36 35 34 30 30 28 28 29 32 36 36 38 34 37 33 27 28 28 36 56 62 62 60 60 52 51 73 75 88 67 93 91 84 79 72 63 67 68 71
43 47 47 46 49 61 58 47 41 38 37 37 32 30 29 30 29 31 32 37 36 36 38 36 30 25 25 27 35 49 63 63 66 62 62 62 63 71 72 73 79 95 88 85 81 75 78 77 75
37 45 47 52 55 65 62 56 48 40 42 37 33 30 31 32 31 31 33 36 36 37 40 36 32 25 23 24 35 41 55 65 68 67 68 67 73 78 85 87 93 95 91 90 91 87 86 82 82
45 45 48 56 74 77 74 69 55 47 46 38 33 32 32 33 32 31 34 36 35 36 40 37 37 29 23 23 34 39 43 46 60 70 74 77 86 94 95 98 99 95 93 94 93 91 88 81 78
49 49 52 62 78 84 74 89 53 54 47 37 32 31 32 34 33 33 34 34 35 37 38 38 39 31 22 23 32 37 41 44 48 57 67 82 87 92 94 95 99 96 96 96 95 91 87 80 82
62 67 75 79 90 88 67 82 62 54 46 40 34 33 33 35 34 32 34 36 37 38 39 38 38 32 23 22 32 36 41 43 49 52 63 77 86 94 95 95 96 96 97 96 95 94 90 86 80
72 87 95 98 96 72 60 71 63 49 48 43 41 39 35 34 34 35 37 38 40 38 38 38 39 36 24 22 31 35 40 43 48 54 62 75 86 94 95 96 97 97 98 97 96 94 92 85 84
73 93 96 90 90 78 64 64 55 48 51 49 46 41 36 33 34 35 37 37 37 35 39 37 39 37 29 20 29 35 39 42 46 53 61 71 84 88 92 92 92 92 93 94 93 90 87 84 84
82 96 92 98 92 91 72 64 54 57 58 52 46 47 40 36 36 39 41 41 41 44 42 37 40 38 35 19 26 33 37 39 44 49 57 64 70 78 84 85 83 82 83 84 88 87 85 83 82
79 96 98 99 96 95 74 70 80 68 69 58 52 50 44 41 40 40 42 45 45 46 45 39 41 41 36 25 24 30 33 37 44 48 50 56 61 63 63 62 64 67 69 71 73 74 73 77 79
90 96 97 96 92 96 94 94 88 76 77 66 59 59 53 50 48 46 46 49 49 49 43 40 45 45 41 34 24 27 30 33 39 45 49 52 57 60 62 62 64 64 61 62 63 63 67 68 71
79 96 97 99 92 90 96 83 95 85 80 73 67 61 61 52 48 50 51 53 54 50 45 46 48 47 45 39 32 25 29 31 35 40 47 50 50 52 53 60 63 64 66 64 62 61 62 62 64

GFSSGP_prec_cthk_093.txt.gz
RH
9 9 11 13 16 21 23 21 18 18 17 19 21 22 23 24 25 28 22 25 26 28 28 30 31 32 33 33 34 35 39 45 50 49 49 48 47 46 44 43 44 41 35 37 42 41 42 40 39
10 10 12 15 20 23 20 20 19 19 18 20 20 24 28 28 28 24 25 24 23 21 22 22 24 24 26 32 36 38 42 49 53 54 55 54 54 56 55 50 44 38 33 35 40 40 38 35 34
11 12 14 17 22 22 20 20 18 19 20 20 22 24 26 26 27 28 26 22 23 23 21 19 19 24 29 36 40 44 48 54 54 66 57 58 59 61 61 56 49 40 37 34 33 39 41 40 36
12 14 16 20 22 19 19 21 22 20 20 21 23 26 27 27 26 26 24 22 23 23 21 22 24 26 30 36 41 54 56 54 59 60 60 63 63 62 61 59 54 45 45 38 35 39 42 39 35
12 17 20 22 21 17 16 19 24 23 21 21 24 27 28 29 28 25 24 24 24 22 23 23 23 26 28 33 40 43 55 71 63 81 81 65 67 71 67 70 69 60 51 53 50 43 47 36 35
15 19 24 24 18 15 17 20 24 24 22 21 24 30 31 31 29 26 25 26 25 25 25 24 24 27 28 32 38 43 46 48 54 60 63 71 90 89 86 86 79 75 62 66 67 56 57 45 42
15 20 23 21 19 16 15 21 23 23 23 21 24 30 31 31 30 29 29 28 27 26 25 25 26 27 29 32 38 46 48 49 49 61 72 82 91 87 96 90 86 88 76 71 70 63 64 46 42
15 20 21 20 20 18 13 20 23 23 24 24 23 32 32 30 29 32 31 30 30 29 30 29 26 24 27 32 41 47 50 58 64 66 76 85 90 87 84 88 89 95 92 76 75 71 54 42 40
17 20 22 18 19 16 16 20 22 23 24 27 24 26 26 27 30 32 33 31 31 30 30 32 27 22 22 31 41 48 54 55 58 65 77 81 90 91 89 86 88 98 97 87 73 63 53 43 37
20 22 20 16 16 16 17 22 23 24 25 25 25 24 26 26 29 30 32 30 30 30 31 31 27 23 24 36 41 47 49 52 56 60 78 85 87 88 94 92 89 89 98 94 88 67 60 50 44
20 18 16 15 16 17 16 21 23 24 24 24 25 24 26 28 31 31 32 32 32 32 32 31 27 23 26 37 42 45 50 53 57 57 69 87 91 95 96 93 90 93 98 93 83 70 63 58 50
22 19 18 17 17 17 18 16 22 24 24 23 23 23 24 27 30 31 31 31 32 32 31 31 27 22 26 38 44 48 51 52 54 54 67 91 96 98 97 94 92 95 97 87 82 74 64 66 63
27 23 21 20 20 19 18 16 18 23 24 22 22 23 23 25 28 32 31 32 32 34 31 30 28 21 24 34 42 46 49 50 52 55 67 93 99 98 98 94 94 96 94 83 82 70 59 64 67
26 26 24 23 22 22 20 18 18 23 23 22 22 23 23 25 28 32 32 32 32 35 32 29 29 24 23 29 34 42 47 51 54 55 62 85 88 94 98 96 93 94 90 82 78 69 63 59 64
26 26 27 27 28 25 24 18 19 19 24 24 24 24 25 27 30 31 31 28 30 35 35 28 28 27 24 29 33 35 40 46 52 58 64 71 81 85 89 89 94 94 91 80 74 70 65 60 58
32 30 33 30 31 30 30 19 21 21 23 24 25 25 26 28 29 32 32 30 33 40 39 30 30 29 26 28 31 34 35 38 45 53 63 67 75 80 88 91 90 83 87 79 66 62 59 57 56
36 37 34 34 35 38 33 22 24 25 25 25 26 27 27 32 30 32 32 31 32 40 40 31 33 34 32 27 30 30 31 44 54 51 58 68 72 77 82 83 84 76 82 81 78 74 74 71 70
41 40 38 38 38 40 36 31 29 29 27 29 27 28 26 28 29 30 33 31 33 40 42 36 34 37 35 29 27 27 37 58 63 62 62 60 73 75 78 87 84 80 77 65 72 70 71 69 66
41 43 45 44 45 46 44 38 32 31 29 33 29 28 28 28 30 32 32 30 34 39 43 41 36 38 32 26 24 28 36 57 61 60 61 67 64 73 84 75 75 98 94 72 71 67 66 68 69
37 42 44 45 47 47 47 42 34 31 30 34 34 30 30 30 30 31 31 31 34 37 40 42 40 37 31 25 23 27 33 53 60 60 59 58 63 82 74 79 98 87 82 80 83 73 69 70 74
32 36 39 43 46 47 50 42 36 30 35 41 39 35 34 32 32 34 32 31 36 37 38 40 40 39 34 26 23 28 33 42 51 63 60 57 56 56 64 95 83 84 80 91 85 80 79 77 82
46 39 43 44 49 50 53 46 30 33 36 41 39 39 38 36 33 35 32 31 37 36 38 41 42 40 37 27 23 26 31 34 38 50 60 65 64 63 68 82 91 99 78 88 85 83 81 81 77
50 46 48 47 56 65 62 72 27 35 37 39 40 42 40 38 35 34 32 34 37 37 38 42 42 41 39 29 23 25 30 34 37 42 49 57 67 74 81 86 94 90 94 96 92 87 85 82 80
51 54 55 59 65 68 52 69 39 39 38 41 42 43 45 43 38 34 34 37 37 40 41 42 42 40 39 30 22 25 30 32 36 41 48 56 64 77 87 94 95 96 98 96 95 94 90 93 93
64 67 73 79 80 70 57 72 51 42 39 40 42 47 47 46 40 37 37 38 38 40 40 43 41 39 40 32 22 26 31 33 35 39 50 58 66 77 86 87 93 96 97 98 96 94 94 96 93
71 68 77 78 84 79 62 61 51 43 42 45 47 47 50 46 42 39 37 39 37 40 43 43 41 38 39 36 23 27 33 34 35 40 48 56 69 79 89 87 88 88 88 92 95 96 96 91 92
74 77 82 91 96 95 74 61 55 55 54 54 51 51 47 45 40 38 39 39 40 41 39 41 42 42 40 38 25 26 34 35 36 39 48 53 63 73 81 84 86 86 86 87 86 90 91 92 92
75 83 91 96 97 96 75 70 71 78 73 64 60 54 49 46 42 40 42 42 42 48 51 51 54 46 43 40 29 24 30 34 36 41 44 51 57 63 71 73 73 73 76 78 80 84 87 88 87
76 84 92 98 99 97 92 86 92 91 84 75 70 62 52 46 46 47 48 47 48 53 55 55 54 48 45 44 39 24 27 30 33 38 44 47 52 58 62 63 64 65 69 72 71 75 81 82 80
76 81 92 99 98 95 91 80 92 93 87 82 75 70 60 52 52 51 55 54 53 58 61 63 58 50 51 50 45 37 25 29 30 33 40 46 50 51 56 62 65 68 69 65 64 64 68 74 74

GFSSGP_prec_cthk_096.txt.gz
RH
11 9 9 12 15 20 21 20 18 17 17 18 19 21 21 22 27 27 26 27 27 28 25 26 28 29 29 29 28 29 31 35 36 41 44 48 52 54 49 47 45 47 48 44 43 46 44 48 50
11 10 11 15 19 21 17 17 19 18 17 18 19 21 22 26 25 23 25 26 24 23 23 23 22 22 25 26 30 32 34 39 43 45 51 50 56 53 51 48 46 47 44 42 38 44 47 49 48
11 11 13 16 22 21 15 16 17 18 18 18 19 21 22 25 25 24 25 26 25 23 23 22 22 23 26 31 34 37 40 44 48 49 51 56 59 61 56 55 53 47 39 39 39 43 48 49 41
12 13 15 19 21 19 15 16 19 19 19 19 19 22 24 25 25 25 26 24 24 24 22 23 23 25 30 33 35 40 47 50 55 50 68 58 71 65 64 61 58 55 55 42 44 44 43 46 38
13 15 18 21 21 17 14 17 20 20 20 20 20 22 25 26 25 26 24 24 25 25 24 23 23 24 29 33 35 38 46 51 52 77 75 67 93 94 79 67 68 67 68 59 42 44 43 43 45
15 18 23 20 16 16 14 13 16 19 20 20 20 24 24 26 26 26 25 26 27 25 24 25 24 26 27 29 33 37 43 49 50 56 68 70 64 68 92 75 86 86 78 71 67 53 46 45 46
17 21 23 20 18 16 14 13 16 20 21 21 21 24 24 26 27 27 27 29 28 26 25 27 28 27 26 28 33 38 41 47 47 51 58 60 61 69 76 81 83 87 96 86 67 63 55 48 42
19 20 22 20 16 18 14 12 15 19 20 21 21 24 25 24 26 28 29 29 29 28 29 29 28 28 26 27 31 37 44 47 53 63 61 58 66 81 87 88 84 86 93 94 79 69 68 60 51
21 22 23 19 18 17 17 15 15 18 20 21 21 23 23 24 25 28 29 29 30 30 28 29 30 26 24 23 28 36 45 50 58 63 63 66 69 80 85 88 85 82 87 93 88 68 73 64 59
23 25 20 16 16 17 15 13 17 18 20 21 21 22 25 26 26 26 27 29 29 31 29 29 31 27 25 23 27 38 46 48 50 54 57 61 63 81 88 87 85 89 87 87 91 74 79 63 53
24 22 20 18 17 16 15 14 17 20 20 21 22 22 22 25 27 27 28 30 29 32 31 32 31 28 25 23 28 39 46 47 49 54 57 61 65 79 90 93 88 87 95 93 97 85 75 62 53
27 24 22 20 19 18 17 15 15 18 19 22 22 22 22 24 25 25 28 29 30 33 33 34 33 30 26 24 27 36 43 46 51 55 58 62 62 78 93 95 95 94 96 98 97 89 80 61 51
29 27 26 25 24 21 19 17 15 15 17 21 23 23 22 23 24 23 26 31 32 32 33 36 35 33 28 24 25 33 42 48 53 55 56 57 60 84 96 97 98 95 98 99 97 96 79 68 57
29 30 28 27 25 25 23 19 18 15 14 19 23 23 23 23 23 25 26 30 32 32 31 37 37 35 30 25 24 27 37 44 49 51 53 58 61 78 95 99 99 97 98 98 97 94 84 76 64
33 33 30 29 30 29 26 21 20 17 16 15 23 23 24 24 25 26 26 27 30 31 34 38 40 37 31 28 26 26 31 36 40 44 50 55 60 73 93 99 99 99 98 95 97 93 83 68 63
39 39 40 33 30 28 31 22 24 22 21 19 18 25 25 25 26 27 29 27 32 32 33 39 43 33 32 31 28 26 30 29 33 38 43 50 56 66 74 89 96 99 97 96 95 92 83 66 62
41 45 40 36 34 33 33 26 25 25 24 23 22 21 25 26 26 27 27 27 32 34 35 39 39 34 36 35 33 28 31 30 35 48 56 55 53 63 71 78 89 93 97 98 96 91 86 76 71
40 42 41 40 35 36 31 26 30 29 30 28 25 24 24 26 27 28 27 26 32 34 35 38 44 36 36 38 33 28 29 30 38 58 66 65 63 61 72 76 83 95 90 89 88 78 74 72 67
37 40 42 41 41 41 38 34 35 34 30 31 29 27 26 25 27 27 28 27 31 34 35 35 42 41 38 35 30 26 26 31 37 59 62 61 64 67 73 77 84 92 83 82 82 77 80 85 78
34 37 38 38 38 40 40 32 32 33 31 30 28 27 28 28 27 30 30 29 32 35 35 36 42 41 40 36 32 25 25 30 37 50 60 61 69 64 76 74 80 90 96 89 89 74 69 72 79
29 31 31 33 35 36 39 28 24 27 27 27 27 27 29 30 30 31 33 33 34 36 34 35 42 40 42 39 35 25 26 30 35 39 45 64 59 71 70 71 78 95 94 92 93 90 76 81 81
35 34 36 37 41 47 44 42 25 24 21 25 26 29 30 35 33 34 36 35 36 37 36 37 41 42 44 41 38 25 25 28 32 36 40 51 59 59 67 84 90 84 87 96 93 83 80 87 87
46 45 45 46 47 57 55 56 28 27 27 25 24 29 31 38 36 36 36 39 42 40 39 39 42 44 44 42 39 26 26 29 33 37 41 45 50 54 59 66 72 82 89 96 96 88 85 87 89
46 44 43 50 57 63 47 53 36 33 33 34 33 33 32 36 38 38 39 43 42 39 42 41 43 45 44 42 39 27 25 29 33 36 39 44 48 54 60 67 72 79 97 95 98 90 89 89 88
49 52 63 63 68 57 49 60 44 41 43 48 44 40 38 40 42 41 41 42 41 38 40 42 43 45 44 41 40 27 25 30 32 35 39 47 53 59 66 76 86 92 94 94 96 93 89 93 91
59 55 64 73 73 72 65 65 56 59 62 60 53 50 46 45 43 41 41 40 39 39 41 42 42 45 43 42 41 28 25 31 33 35 39 48 54 62 74 83 88 91 97 96 97 97 94 96 95
63 67 63 77 70 84 71 61 58 66 67 65 61 58 54 48 44 43 42 40 40 43 42 41 42 45 45 43 41 31 25 30 32 36 40 48 54 60 67 76 80 84 84 88 91 94 95 95 96
58 66 82 85 86 84 71 71 71 79 79 74 66 62 59 51 47 45 41 41 44 47 45 44 43 43 47 47 42 35 27 30 33 37 40 46 52 58 64 65 69 70 71 73 80 83 86 91 91
65 71 80 84 89 94 89 78 88 92 88 80 73 70 66 58 51 46 46 50 51 50 51 50 49 54 61 58 48 41 28 30 33 36 40 46 49 53 58 60 60 60 62 65 68 72 75 81 82
65 75 79 90 89 94 93 79 79 82 88 82 77 74 77 72 64 59 58 58 61 57 56 60 61 62 66 60 52 45 35 30 32 35 38 45 50 52 54 55 59 62 66 66 68 70 72 72 74

GFSSGP_prec_cthk_099.txt.gz
RH
8 9 9 11 12 14 15 14 15 15 16 17 18 19 20 21 25 24 22 24 21 22 24 24 23 23 23 25 26 28 30 32 36 39 42 46 54 50 45 54 50 48 45 47 47 50 47 46 46
10 10 11 13 13 13 12 14 15 16 16 17 19 21 21 20 22 22 23 22 22 21 21 20 19 20 21 22 26 30 32 34 37 40 42 43 57 48 58 57 52 48 49 50 46 47 46 47 49
11 10 13 14 15 12 11 12 15 16 17 17 17 19 20 22 21 22 23 23 22 20 20 20 20 20 24 27 30 32 35 37 39 43 48 48 61 63 61 64 61 61 57 52 44 39 43 53 56
10 12 14 15 15 15 12 14 16 17 17 17 17 18 21 22 21 22 24 24 22 22 22 22 21 22 24 29 31 31 34 38 43 47 52 53 61 59 72 72 73 65 56 54 54 45 45 53 55
11 13 15 17 15 16 13 16 18 18 17 18 19 19 23 22 23 22 25 24 24 23 22 21 22 22 25 27 30 31 32 36 43 49 57 60 81 88 76 84 97 82 69 70 65 59 51 52 51
14 16 18 14 12 16 14 12 15 17 17 19 20 21 21 21 22 23 25 25 25 25 22 24 25 25 25 26 28 31 33 36 44 54 62 68 65 72 83 69 82 86 84 82 82 76 60 50 45
15 18 18 17 15 15 14 12 11 12 15 19 20 21 21 22 23 25 26 26 27 26 26 26 25 25 28 26 26 29 34 36 41 48 57 61 63 61 61 64 72 77 85 89 87 86 68 56 47
18 19 21 19 15 15 14 13 12 13 16 20 22 22 22 22 24 25 26 27 28 28 28 27 26 26 26 26 24 27 32 37 43 50 63 68 65 62 65 73 78 83 90 85 87 91 87 68 48
27 23 21 18 18 16 16 15 14 14 16 18 21 23 24 24 25 26 26 26 28 28 30 29 29 29 27 27 24 25 30 36 43 53 57 61 61 61 68 73 83 88 88 88 90 89 90 73 54
28 26 22 21 18 17 16 14 13 15 16 18 21 22 22 24 27 27 25 25 28 28 30 30 29 31 28 26 23 25 31 40 48 52 53 57 58 63 63 68 82 88 87 94 91 94 90 82 69
30 25 24 22 19 18 16 15 14 13 15 19 21 22 23 24 26 29 27 26 28 29 31 31 31 31 30 27 23 24 30 41 47 52 52 57 59 63 64 65 83 91 89 96 98 95 91 85 72
30 28 26 24 22 21 18 17 15 14 13 19 21 23 23 24 24 25 27 27 29 31 33 33 33 33 32 30 25 24 29 39 45 49 52 58 61 61 65 70 87 88 94 96 97 96 89 86 70
32 29 28 27 25 23 22 20 18 17 15 17 20 22 23 24 23 23 24 27 30 32 34 34 33 34 35 35 27 25 28 35 41 47 53 55 58 61 64 72 88 91 97 97 97 94 93 84 64
30 29 28 27 26 25 24 21 21 20 17 14 18 19 23 24 23 23 23 24 27 31 35 34 33 36 36 37 28 25 29 34 37 42 50 55 56 58 61 69 83 97 97 97 99 97 95 80 63
32 32 30 28 29 28 28 24 23 23 22 19 14 17 21 23 23 22 22 22 25 28 35 34 34 39 38 37 30 27 27 32 36 40 42 44 47 54 59 69 85 98 99 97 96 98 93 89 69
38 38 38 35 33 32 31 22 24 24 24 23 22 16 14 21 21 22 22 22 26 28 33 36 36 40 38 35 32 30 29 28 35 36 38 42 47 49 55 67 83 96 99 97 99 96 97 90 77
41 38 39 38 36 33 32 25 27 27 28 27 26 24 21 17 22 24 24 23 26 27 31 37 36 39 39 36 33 33 32 29 29 27 38 56 62 63 62 65 76 97 98 96 99 99 97 94 85
35 38 39 38 35 36 33 30 30 29 30 31 31 31 28 24 21 25 25 25 26 26 29 35 38 40 43 39 35 34 30 29 28 30 42 64 68 68 69 68 70 84 99 96 96 97 98 94 80
34 38 39 39 37 37 35 32 32 34 32 31 30 30 29 27 26 22 22 24 25 26 27 33 38 39 43 41 36 31 30 27 28 32 44 62 72 70 69 72 71 75 88 96 96 97 95 93 88
34 35 35 34 34 35 32 27 28 31 29 26 26 26 26 27 26 24 22 23 24 26 28 33 37 41 43 43 38 34 31 24 28 33 40 49 64 70 73 73 81 80 86 88 95 97 94 92 82
34 31 31 31 29 31 31 24 21 21 20 20 20 21 20 21 24 25 25 24 25 26 29 33 37 40 43 46 41 37 34 24 27 32 38 43 59 73 72 82 76 91 85 88 88 91 88 83 78
31 27 26 30 36 37 38 35 22 20 19 19 19 20 21 20 21 24 27 25 25 29 32 36 40 40 42 46 41 38 36 21 25 30 36 41 48 57 78 66 80 75 91 91 93 93 90 81 78
39 38 38 42 45 47 43 39 24 20 18 24 26 27 26 23 21 23 27 26 28 32 36 40 42 41 41 46 44 42 39 23 27 31 36 40 45 50 53 73 85 76 84 95 94 98 96 90 83
44 46 46 49 51 52 39 35 26 28 33 32 34 37 34 27 25 25 29 29 33 35 40 43 42 41 42 48 45 42 39 23 27 31 35 39 46 50 54 56 71 71 89 90 94 95 96 94 89
47 45 53 57 64 43 41 47 33 37 46 54 50 48 44 37 32 30 34 35 37 37 40 45 41 41 43 48 46 43 41 24 29 32 35 37 46 52 58 62 65 69 78 86 92 94 98 97 95
53 49 48 45 56 56 54 50 41 55 59 60 58 56 51 44 39 37 37 37 39 40 45 46 42 42 44 49 47 46 44 26 30 33 35 39 48 53 62 71 80 83 84 84 91 96 97 97 93
62 56 55 61 58 61 46 43 47 58 63 67 66 62 58 54 46 42 37 37 40 44 47 46 43 45 46 51 48 48 45 28 30 34 36 41 49 57 64 73 82 84 84 85 97 96 96 96 97
59 58 67 67 70 68 53 54 54 65 76 79 73 69 67 64 57 51 47 44 44 49 51 49 48 50 49 51 51 50 45 31 32 36 37 41 48 54 58 65 67 70 73 79 83 87 89 90 95
64 62 65 63 72 76 68 65 78 80 84 81 82 81 76 76 71 63 54 51 52 52 56 55 55 52 52 55 53 53 46 33 32 37 38 41 46 51 56 59 59 60 61 63 66 69 73 73 84
58 62 63 67 79 75 81 59 69 74 77 82 78 82 83 84 80 75 67 64 63 62 59 60 54 55 56 53 62 65 50 36 32 37 38 40 44 48 50 54 56 56 59 62 61 61 63 67 68

GFSSGP_prec_cthk_102.txt.gz
RH
6 7 7 9 11 10 11 9 11 13 13 14 15 18 19 21 23 22 19 23 22 17 19 21 23 21 20 21 23 25 27 30 32 39 43 50 52 53 51 52 54 53 53 48 50 49 50 52 53
7 8 9 12 10 11 10 10 12 13 14 15 16 17 18 19 18 19 22 20 19 20 20 18 17 17 18 20 22 26 29 32 35 40 45 47 50 52 51 56 57 59 54 50 54 51 52 52 51
9 10 11 11 11 11 11 10 12 14 15 15 18 19 20 20 20 22 23 20 20 19 18 18 17 17 19 22 25 28 30 31 35 41 45 47 55 51 66 56 64 63 60 57 69 55 53 49 53
10 11 11 10 10 12 12 13 13 13 15 16 17 18 19 21 21 23 21 21 21 20 19 18 18 17 20 22 26 27 28 31 36 42 48 51 51 61 72 76 75 80 75 74 64 63 51 48 56
11 12 11 11 10 12 13 14 15 15 16 17 17 18 21 22 23 23 21 22 22 21 20 18 19 19 21 22 24 27 28 30 33 41 48 56 72 71 77 79 78 80 85 82 72 71 66 55 57
15 13 11 10 10 12 13 13 16 16 15 16 17 18 21 23 22 22 22 22 23 22 21 21 22 21 22 23 24 27 28 29 34 43 63 65 79 75 63 75 72 69 85 84 84 82 83 72 58
18 16 12 10 10 12 14 12 12 14 15 17 18 19 21 25 25 24 24 23 23 23 23 23 23 23 25 25 24 27 28 30 33 37 48 60 64 69 68 64 69 61 69 80 83 85 87 86 73
22 18 16 13 14 12 14 14 12 11 13 15 16 21 23 29 28 25 25 23 23 24 25 25 25 25 26 27 26 27 28 31 34 37 45 59 71 71 66 61 68 72 74 83 85 83 86 88 85
30 24 19 16 16 14 15 15 16 14 13 14 16 20 26 22 27 30 29 25 24 25 25 27 27 26 28 29 27 27 28 30 35 39 47 56 65 64 64 63 62 67 77 82 88 91 94 96 89
31 28 23 22 21 20 18 17 17 15 14 14 16 19 23 25 28 30 30 28 27 25 26 28 30 30 30 30 28 28 28 31 33 43 50 58 61 63 63 64 67 64 75 86 89 95 98 94 94
30 26 28 27 26 25 21 18 18 16 14 14 16 18 20 25 28 31 33 31 30 32 30 30 30 30 31 36 27 26 25 29 33 42 50 58 61 61 60 63 62 61 73 86 90 96 98 94 92
32 27 28 28 28 27 24 22 20 18 17 13 16 18 19 21 25 29 31 34 34 32 31 31 32 30 31 37 30 27 23 28 32 37 47 51 52 54 57 58 59 60 74 84 90 97 97 98 90
37 32 29 29 28 28 26 24 21 20 19 16 13 16 18 21 23 26 29 31 33 32 31 30 33 32 32 34 34 30 23 26 30 33 42 49 52 54 55 60 61 63 79 86 90 99 95 98 88
37 37 33 31 29 28 26 25 24 23 23 21 18 15 18 19 23 26 26 25 26 29 32 33 33 33 34 37 38 35 25 26 29 31 37 43 49 51 58 59 61 67 81 83 91 98 96 96 93
37 36 34 32 30 27 27 23 23 24 25 23 22 19 17 19 21 24 25 25 25 27 30 33 32 34 36 40 40 36 35 28 28 29 35 38 43 47 51 54 59 68 80 88 96 98 97 94 94
38 38 38 35 33 28 27 21 23 22 22 23 23 24 21 19 19 23 24 24 25 25 27 32 31 33 38 41 40 38 39 33 30 28 31 36 42 47 55 54 53 62 80 91 98 99 97 97 97
42 41 42 38 37 32 28 24 25 26 25 24 24 23 24 22 18 18 23 23 24 24 27 31 32 33 36 42 43 39 34 32 30 27 29 34 40 55 63 64 61 63 79 92 97 97 99 98 96
45 43 38 39 37 36 31 29 29 30 28 29 29 29 27 26 25 20 19 23 24 26 28 31 32 34 36 42 48 45 36 32 29 25 26 30 42 59 64 67 66 66 78 96 98 99 98 96 96
41 37 36 36 41 38 33 32 32 33 32 31 29 27 26 26 26 25 23 22 25 26 28 30 32 36 37 41 48 45 37 34 31 25 25 33 45 55 66 61 64 70 76 96 99 99 99 97 96
40 36 34 34 34 33 31 29 28 28 27 25 23 23 23 25 26 26 26 23 23 25 26 27 30 35 35 40 49 49 40 36 33 26 27 33 43 52 70 69 68 75 72 86 96 97 98 98 97
40 37 35 35 32 29 28 25 22 22 20 20 20 21 22 22 23 25 25 26 25 24 24 23 28 36 38 43 50 51 44 38 35 26 27 34 42 50 67 77 77 75 84 78 87 92 95 97 94
40 39 37 32 29 28 35 25 25 22 20 20 22 22 22 22 23 22 23 25 27 27 24 24 30 36 42 46 48 49 43 39 36 27 27 34 38 44 56 69 84 83 87 96 83 93 94 92 90
42 43 35 33 33 34 31 36 27 21 21 30 36 36 35 32 29 27 24 22 24 27 28 27 31 38 44 47 47 52 48 44 40 28 28 34 39 45 53 60 76 81 82 90 87 87 89 94 87
53 52 48 46 41 44 29 30 28 31 32 35 42 39 39 39 37 31 26 22 23 25 29 30 34 41 46 47 48 53 50 44 40 26 32 35 39 45 52 57 68 78 81 83 90 92 89 90 93
55 55 61 66 66 43 33 32 29 38 45 43 44 46 46 46 44 37 30 24 23 26 29 32 39 43 46 46 49 52 51 44 39 29 33 35 38 45 50 57 60 68 81 80 90 92 94 91 95
56 47 44 43 44 41 42 37 41 47 52 50 51 51 49 50 47 42 38 29 26 31 31 39 44 46 50 50 50 53 53 48 40 28 33 35 40 46 49 57 62 65 72 81 91 95 98 97 93
59 55 51 54 49 48 33 33 38 47 52 57 57 56 56 52 52 52 42 35 32 39 42 45 47 51 56 55 53 56 56 50 41 31 33 35 38 47 51 62 70 77 81 79 83 87 93 94 94
57 56 61 56 61 54 38 41 50 57 57 56 61 57 59 57 61 61 52 44 39 48 49 49 50 58 58 56 58 62 59 52 41 33 32 34 38 47 51 59 66 72 77 79 78 82 91 93 96
61 60 57 57 62 60 49 58 61 60 59 59 60 63 66 64 71 70 62 54 48 51 53 54 58 60 59 59 62 66 62 53 41 35 34 35 37 45 51 55 61 63 62 61 65 71 79 86 89
60 58 55 58 66 59 60 46 52 48 47 57 62 71 70 70 73 75 72 65 58 58 59 60 67 65 61 62 67 69 66 58 42 35 35 36 38 43 48 52 53 52 54 56 59 62 67 69 68

GFSSGP_prec_cthk_108.txt.gz
RH
4 6 6 10 11 10 9 8 8 11 13 14 14 13 16 25 28 34 37 28 21 19 15 14 15 16 17 18 19 20 21 22 23 25 27 32 37 42 46 44 44 53 50 58 44 42 40 45 48
5 8 11 11 11 10 9 9 9 13 14 14 12 13 16 22 23 28 29 26 21 15 14 15 15 15 15 15 16 18 20 22 23 26 28 33 39 44 49 47 45 48 53 62 56 48 45 46 50
5 12 17 12 10 11 9 10 12 14 15 15 14 12 14 17 22 23 27 20 18 15 15 15 13 13 14 15 16 18 20 23 24 26 30 34 41 50 51 55 55 60 58 56 61 65 63 50 48
7 14 15 12 11 9 8 12 15 15 16 15 14 18 16 21 22 24 21 19 21 20 16 14 14 13 14 15 17 19 21 23 25 26 30 34 40 48 55 58 62 68 66 65 64 66 70 66 52
16 17 16 12 9 9 10 12 16 16 15 16 15 18 21 21 23 25 22 21 22 22 17 15 15 15 15 16 17 19 21 24 25 26 30 35 42 55 63 65 64 68 71 74 71 72 71 75 65
23 20 20 14 12 11 8 10 12 15 18 18 17 17 23 23 24 29 24 22 23 20 17 16 17 17 16 18 18 20 21 23 24 26 30 39 46 53 63 66 62 66 70 69 68 66 76 77 74
35 25 20 18 15 15 14 11 13 14 15 17 16 17 18 25 25 28 25 23 22 21 17 17 18 18 18 19 20 21 21 23 25 26 29 36 44 46 53 61 63 68 67 65 68 64 82 86 82
37 34 26 20 19 16 14 15 16 14 12 15 18 19 21 25 32 30 30 25 23 22 18 19 19 19 19 20 22 22 22 23 25 27 29 35 39 47 52 61 68 62 59 61 64 69 78 85 84
42 37 29 27 22 20 18 16 16 15 13 13 17 19 24 30 36 33 30 28 26 25 20 19 19 20 21 21 23 24 23 24 26 27 29 32 40 51 55 59 67 62 60 60 66 62 74 83 87
43 39 28 29 28 24 20 18 18 17 16 14 15 18 20 24 30 35 33 27 28 26 24 22 23 22 22 22 23 25 24 24 25 26 28 36 45 51 57 61 66 67 60 61 64 64 73 83 87
41 36 34 32 29 30 28 26 22 18 19 18 18 20 18 18 23 28 32 30 29 28 27 27 28 29 29 27 24 25 24 25 25 25 28 38 44 52 60 65 69 71 67 62 65 71 65 77 86
49 34 38 36 35 34 33 32 27 22 21 20 20 23 21 22 21 22 23 33 33 33 29 30 30 32 30 28 30 30 31 32 31 28 30 35 40 44 55 61 64 66 65 66 65 67 61 72 87
45 38 42 39 39 36 34 32 29 27 27 25 22 20 20 22 24 22 21 25 39 38 35 33 33 31 31 33 31 31 31 35 34 29 27 29 38 42 51 58 58 60 63 65 66 63 63 73 83
38 45 44 43 40 39 38 35 31 27 30 29 27 24 22 22 21 21 19 20 25 36 39 37 35 31 31 33 34 32 31 33 32 29 28 28 33 36 45 49 53 53 53 55 58 63 69 78 85
40 46 48 45 40 40 41 37 32 32 29 27 28 28 27 26 24 20 18 18 21 26 36 43 37 36 32 32 34 33 32 33 31 29 31 30 32 32 42 45 43 45 52 55 59 71 71 78 87
45 50 47 38 46 43 47 31 35 35 33 28 26 26 27 27 26 23 20 18 21 24 27 37 38 36 34 32 32 33 34 35 31 32 30 32 27 28 33 40 42 43 56 63 63 68 71 81 88
45 46 41 41 50 50 46 32 36 36 33 30 30 27 25 25 25 25 22 19 20 24 26 31 38 35 31 32 33 33 35 36 35 34 34 32 25 25 27 35 39 44 57 62 65 64 63 71 85
30 39 48 45 46 50 46 35 38 35 33 31 30 31 29 29 26 25 23 21 19 21 25 31 35 34 31 31 34 34 35 37 38 35 37 32 26 24 25 30 40 47 57 62 64 63 65 69 86
38 48 49 44 46 48 46 41 42 44 37 33 34 33 32 30 28 27 25 23 22 21 24 30 36 35 30 30 31 34 33 36 39 39 40 36 28 23 26 30 39 50 54 63 65 64 70 78 91
37 55 55 58 55 52 55 53 50 46 40 37 35 34 33 31 28 28 29 31 29 25 27 35 38 40 34 33 32 35 37 34 38 39 41 39 34 26 26 31 39 46 50 62 65 65 70 90 98
38 52 64 61 59 52 49 51 50 46 40 35 32 33 33 33 29 31 31 32 36 37 31 30 36 42 39 34 36 39 41 35 39 38 40 42 38 29 26 32 39 46 52 57 63 66 74 93 98
41 50 59 60 62 52 46 45 40 35 32 30 28 27 28 30 31 31 33 35 36 37 37 36 33 36 44 38 35 36 34 33 35 37 41 47 40 28 27 33 38 42 50 54 64 72 78 93 97
38 50 63 62 60 53 48 45 36 38 38 37 38 38 39 38 37 36 36 34 33 33 34 38 40 38 41 34 34 35 40 36 36 38 42 50 44 30 28 33 37 41 48 53 64 80 80 93 97
45 57 65 62 60 62 48 45 38 39 37 42 51 51 48 51 52 52 50 48 41 35 33 32 35 38 37 39 33 37 39 38 37 40 42 51 49 33 29 31 37 40 49 54 62 79 84 84 96
55 61 79 84 87 59 45 47 39 50 51 58 61 59 57 55 53 49 46 46 48 48 43 31 30 38 38 36 34 37 39 42 40 41 42 52 49 34 28 33 37 42 50 56 62 73 81 84 91
50 59 80 68 67 57 50 57 46 56 64 63 65 69 62 59 57 50 46 48 47 48 44 38 29 31 41 38 38 40 44 42 44 44 45 54 48 32 27 31 39 47 52 59 64 78 82 90 91
59 67 64 81 74 74 60 71 77 63 70 72 70 66 74 64 57 47 48 50 52 49 46 43 36 31 41 41 44 46 48 45 48 50 51 57 50 36 28 34 42 48 54 59 65 81 80 89 91
67 66 85 88 95 96 72 79 79 87 77 74 69 66 67 56 53 49 52 52 57 53 49 44 40 32 39 45 47 49 52 50 56 55 57 62 51 37 30 33 42 50 58 67 74 81 84 86 90
89 87 80 74 75 89 65 98 93 88 80 87 78 70 62 57 53 53 54 58 64 62 58 55 51 42 47 50 52 55 56 58 64 61 67 64 56 36 33 36 42 49 56 63 68 71 74 80 86
88 90 83 82 66 73 95 99 95 88 89 81 65 57 56 57 60 62 62 61 69 67 67 68 65 59 53 51 60 64 62 68 71 68 73 66 61 39 36 38 43 47 54 60 64 62 59 62 67

GFSSGP_prec_cthk_111.txt.gz
RH
4 5 6 9 13 12 12 8 5 11 12 16 16 17 18 18 26 38 35 34 25 20 17 16 13 13 15 16 17 18 20 21 21 22 24 26 29 35 41 42 38 38 42 42 44 43 42 42 43
4 6 9 12 14 14 12 6 10 13 12 14 15 15 17 21 25 30 33 26 22 20 17 13 13 14 14 15 16 16 18 19 20 21 24 28 31 36 40 44 41 42 46 47 53 47 41 43 46
7 8 12 16 16 13 11 5 11 13 18 17 16 14 15 22 24 26 24 22 20 18 14 13 13 12 13 13 15 16 17 19 20 22 25 29 34 39 44 45 45 48 51 54 57 53 49 48 51
13 15 16 17 15 12 7 7 14 16 19 18 18 17 17 20 22 23 21 18 17 16 13 13 12 12 13 14 15 16 18 20 21 23 26 31 34 40 44 47 53 57 59 57 56 61 64 64 58
25 24 23 19 15 10 8 8 14 15 18 19 18 18 20 20 20 24 22 19 15 14 14 13 13 13 14 14 16 18 19 20 22 23 26 31 34 43 49 52 56 55 63 64 65 64 65 65 70
31 29 28 24 18 12 9 6 14 16 16 19 18 17 23 23 22 24 24 20 16 14 14 14 14 14 14 15 16 18 19 20 21 23 26 30 35 42 50 50 60 55 57 62 66 65 64 65 74
32 32 29 26 21 16 13 11 12 16 15 18 17 18 20 24 26 26 23 21 19 17 15 15 15 15 15 16 17 17 19 20 21 23 25 28 34 40 46 53 55 55 63 65 66 61 62 69 80
38 40 34 28 27 21 14 15 13 15 13 14 16 17 19 26 27 29 28 25 21 19 16 16 16 16 15 17 18 18 19 20 21 22 24 26 30 37 45 53 56 60 64 59 55 54 59 66 82
44 42 34 28 29 23 21 17 16 16 16 17 15 17 22 23 32 35 34 29 25 21 18 16 17 18 17 17 19 19 20 20 22 23 22 24 28 35 44 53 57 61 64 60 55 57 58 59 73
44 43 25 30 30 29 26 23 18 20 18 17 17 18 22 26 33 38 37 33 30 24 20 18 17 18 18 18 19 20 21 21 22 23 23 23 28 36 42 52 60 62 66 65 59 58 59 60 69
42 37 26 33 34 35 32 27 24 23 23 21 17 18 19 19 26 35 36 35 31 28 24 19 19 18 19 19 20 21 22 23 23 24 24 23 27 34 39 47 56 66 70 70 63 59 60 66 66
34 29 30 35 40 39 36 33 28 28 25 24 21 20 21 19 17 20 29 33 34 30 25 21 21 20 20 21 21 22 23 23 24 24 24 24 27 32 37 43 54 63 65 65 61 62 61 65 64
22 21 34 35 43 42 40 36 32 29 30 26 23 21 22 22 21 22 24 27 33 35 31 27 25 22 21 23 23 22 24 25 27 27 26 24 25 31 34 40 54 61 61 65 60 60 61 65 62
19 19 27 35 41 42 44 37 39 31 33 28 25 26 24 23 23 26 24 23 28 33 38 35 34 30 24 24 24 25 25 26 27 29 28 25 24 28 31 35 43 50 54 57 55 55 56 60 63
24 26 25 28 31 38 47 45 36 38 39 33 29 25 25 26 26 26 25 24 25 26 29 35 40 35 33 26 25 28 30 27 28 28 28 26 27 29 29 32 37 37 44 49 50 54 56 59 68
26 31 30 17 23 34 53 45 36 41 41 36 32 30 28 24 25 26 26 25 26 24 24 29 35 37 36 33 31 27 30 29 29 31 29 27 32 31 29 28 33 35 41 46 51 58 61 65 68
25 34 31 22 31 38 54 43 42 43 44 39 36 34 32 29 26 24 26 26 25 23 23 26 30 34 37 38 37 32 30 30 28 32 32 29 34 33 28 27 30 34 38 43 47 60 65 66 65
30 36 32 28 26 38 46 38 48 46 45 41 38 36 35 32 30 28 26 24 23 22 22 22 29 31 33 38 42 39 33 30 30 32 33 31 31 34 30 26 29 31 35 42 50 58 64 64 64
24 41 40 34 32 44 43 38 49 48 46 43 39 36 34 33 32 31 30 27 25 24 20 21 29 34 38 41 43 38 34 31 31 31 34 35 35 34 32 27 27 30 33 40 52 55 65 68 65
18 29 36 36 40 56 58 59 53 49 45 40 40 39 37 36 34 34 32 31 28 26 25 22 24 29 37 41 42 39 36 35 34 33 35 37 38 37 37 31 27 30 34 42 48 56 62 67 68
22 22 26 38 42 58 76 70 58 53 53 47 44 45 43 40 37 34 34 34 32 30 28 25 25 31 42 47 44 46 44 40 41 35 36 38 39 39 42 36 28 30 37 42 48 53 64 68 70
25 23 26 39 54 78 79 72 53 60 56 47 45 45 47 45 42 39 36 34 35 37 36 35 30 33 41 45 42 41 39 38 35 37 40 42 42 40 46 41 28 31 36 40 46 49 59 67 75
21 25 34 49 80 81 77 69 43 42 44 44 42 45 51 50 45 42 41 38 37 36 36 38 47 50 39 37 35 32 35 37 35 39 44 45 43 43 48 47 31 30 33 37 45 49 58 71 83
40 44 65 63 76 91 56 57 44 44 43 47 51 50 48 46 46 45 44 41 39 39 40 40 39 46 55 51 39 30 33 35 34 38 44 45 44 45 50 51 35 29 32 36 45 51 56 71 81
51 57 82 85 96 69 47 57 45 58 60 61 62 60 57 52 50 49 46 42 40 40 42 42 41 35 42 52 45 29 31 35 33 38 42 44 43 44 51 53 37 32 31 37 47 53 58 71 82
60 53 77 80 79 59 49 51 39 51 65 73 72 68 62 60 61 54 47 43 39 40 39 39 42 35 33 39 42 35 34 39 36 37 40 42 44 46 58 56 39 32 33 39 50 56 61 72 82
53 55 53 74 71 76 50 58 57 68 64 78 80 73 71 73 65 57 52 46 46 49 48 46 39 34 32 34 37 40 37 42 44 43 39 43 47 51 60 57 41 34 36 43 54 57 63 78 85
51 49 64 79 89 93 68 81 91 93 97 91 83 87 85 81 74 67 58 52 57 57 55 53 52 43 38 34 37 41 39 47 55 57 49 47 50 56 61 58 41 35 39 47 56 69 76 82 89
69 71 77 87 93 97 93 99 98 98 97 97 96 91 87 77 66 59 56 53 52 56 58 56 54 52 47 45 45 46 44 51 59 65 55 54 54 60 70 59 42 38 40 47 55 67 74 81 87
86 81 77 97 97 93 98 98 97 98 96 93 87 86 83 74 66 60 58 55 53 56 64 65 66 69 66 67 60 63 64 62 66 73 62 56 62 66 74 62 45 41 40 48 53 61 66 68 71

GFSSGP_prec_cthk_114.txt.gz
RH
4 4 5 7 9 12 13 10 5 5 12 13 16 21 20 20 21 27 25 29 31 24 20 20 18 15 14 15 17 18 20 21 22 23 24 25 27 32 34 36 37 36 36 35 37 43 47 47 49
6 6 7 11 14 15 12 6 6 8 13 14 16 20 20 24 23 23 26 29 27 22 21 19 17 15 15 15 17 19 20 22 22 22 24 26 28 31 35 36 37 37 40 43 44 46 44 42 46
13 13 14 14 18 16 12 6 7 9 14 16 18 19 19 21 23 22 24 22 23 22 21 18 14 14 14 14 15 16 18 20 20 21 24 27 29 32 38 40 41 42 46 49 48 51 48 46 46
20 18 19 24 20 15 10 5 6 9 12 16 19 19 20 19 20 22 18 18 21 20 18 17 13 12 13 13 14 15 17 19 20 22 25 28 30 33 41 45 44 44 47 51 54 55 53 51 53
22 26 27 28 23 17 13 9 7 12 14 15 17 19 20 23 21 20 18 18 19 17 14 12 13 12 13 14 14 15 17 19 20 21 24 27 30 33 41 44 46 49 53 54 56 59 56 61 61
26 29 31 27 18 16 14 12 6 11 16 15 20 23 21 24 23 21 18 18 18 17 15 13 14 13 13 13 15 15 17 19 20 21 23 25 29 34 42 46 47 53 57 56 61 62 63 62 63
33 32 28 25 21 18 18 14 12 10 16 15 17 21 19 22 23 23 22 22 19 18 16 14 14 14 14 14 15 16 16 18 19 21 23 25 28 34 39 45 49 57 56 53 60 63 64 62 62
34 34 31 22 21 19 21 19 14 13 14 16 16 19 24 21 21 23 24 23 22 20 18 15 15 15 15 15 16 17 16 17 19 21 22 24 26 32 37 44 49 53 57 57 61 62 60 58 63
35 36 27 24 26 23 26 26 18 17 16 16 19 20 20 24 24 25 24 25 25 22 20 17 16 16 16 16 17 17 17 17 19 21 22 23 26 28 35 42 48 53 57 62 61 56 53 56 62
32 32 19 24 28 27 29 29 25 21 19 18 18 18 21 24 27 27 26 28 27 25 23 20 18 17 17 18 18 18 19 19 19 21 22 23 25 28 32 39 44 51 55 63 66 64 57 60 62
26 22 16 21 25 28 28 28 33 26 22 21 22 21 22 22 27 28 29 28 27 30 28 23 21 18 18 19 19 19 19 20 20 21 23 23 24 27 31 36 41 47 52 60 66 65 60 60 62
14 13 20 17 23 25 24 31 31 32 23 25 24 26 26 26 27 29 29 28 26 28 29 27 24 21 18 20 21 21 21 20 20 21 24 24 23 24 29 33 37 43 54 60 65 68 62 60 63
11 8 11 13 19 21 27 28 31 37 31 28 29 29 30 29 27 25 23 23 23 24 24 25 25 23 19 21 21 21 22 22 21 21 24 25 23 23 27 31 35 41 49 56 60 64 61 59 62
20 18 14 12 13 17 29 31 45 33 38 34 31 32 31 29 30 29 28 27 25 25 29 33 34 29 24 22 22 23 24 24 23 23 24 25 24 24 26 29 31 37 41 45 51 56 58 62 61
12 20 18 17 15 17 25 32 36 28 43 38 35 33 33 30 28 27 29 31 29 29 28 29 33 40 37 33 25 24 25 26 26 25 26 27 26 26 27 28 29 33 37 38 40 46 50 53 56
15 20 22 12 18 19 27 24 20 30 42 42 38 36 34 31 30 28 27 28 28 28 32 32 33 35 35 36 36 33 27 28 28 27 27 29 28 27 29 30 27 31 35 36 39 41 43 50 58
18 20 22 19 21 25 32 23 15 28 42 44 43 39 36 31 31 31 29 28 26 26 25 27 30 33 34 34 38 38 35 34 30 30 28 28 30 28 30 29 29 30 31 33 37 37 40 50 58
20 24 22 26 22 32 36 30 19 30 41 44 45 43 39 37 35 34 33 32 29 25 24 25 26 26 30 37 37 40 42 41 36 31 30 30 31 31 32 32 32 30 31 33 36 39 43 48 63
26 25 24 23 20 31 38 40 28 39 41 45 48 47 44 41 38 39 36 35 33 29 26 24 23 23 29 34 43 43 41 42 42 35 33 33 33 33 33 34 33 32 30 32 36 40 45 53 59
43 38 27 17 17 34 38 49 45 50 43 42 50 49 48 44 44 41 38 36 34 33 29 28 26 23 24 30 37 47 48 48 44 41 35 35 36 36 35 35 36 34 32 33 36 40 47 52 58
52 43 29 20 13 24 57 48 50 41 40 37 45 48 48 46 46 46 41 38 37 34 32 29 28 24 23 26 39 49 55 66 61 46 38 35 38 40 38 38 41 38 34 32 36 41 47 51 59
79 47 39 21 25 31 79 78 62 57 42 41 45 47 50 52 54 52 47 43 41 39 36 33 34 35 32 28 33 40 45 46 43 42 42 37 39 42 41 41 44 44 40 34 36 40 45 52 58
68 74 50 32 33 55 59 92 51 54 48 50 61 64 61 62 55 54 53 48 45 42 40 38 40 41 47 48 48 36 47 49 45 42 39 42 41 43 42 43 45 50 46 38 37 42 44 51 56
64 60 58 63 61 74 62 82 49 62 52 59 70 74 69 66 63 57 55 51 48 44 42 42 41 43 48 51 60 78 78 65 47 42 41 39 43 42 43 45 46 54 53 42 38 41 45 52 56
65 75 83 80 91 74 68 79 67 68 84 70 75 75 71 68 63 59 55 52 48 45 43 42 42 43 47 49 50 66 69 66 62 45 41 40 41 43 46 46 46 56 57 46 38 41 46 53 58
67 69 73 77 85 71 63 67 62 88 95 89 78 77 73 66 62 59 59 56 51 48 46 44 44 47 49 46 47 49 46 47 58 54 39 41 42 43 50 47 47 57 61 48 39 42 49 56 62
68 71 53 67 80 76 61 75 81 90 94 94 94 84 78 75 70 66 60 57 50 47 46 46 45 42 48 49 45 42 40 42 54 50 44 44 43 46 48 47 50 60 62 49 41 44 53 60 65
76 59 70 80 87 90 72 87 89 88 86 90 88 87 88 80 74 67 62 58 51 47 45 45 46 47 44 43 46 46 42 39 47 56 50 44 47 49 49 49 52 62 61 50 42 46 55 64 75
68 64 70 69 79 90 95 97 92 95 95 96 97 90 93 91 85 72 69 66 58 51 47 50 52 56 55 47 49 51 47 42 44 54 53 47 57 56 51 51 57 62 62 51 46 48 56 66 76
77 68 65 73 78 85 97 97 99 98 98 97 98 97 93 96 88 78 75 68 62 56 52 56 56 61 66 59 52 51 58 57 60 63 61 58 62 67 57 54 61 64 65 53 49 50 57 65 70

GFSSGP_prec_cthk_117.txt.gz
RH
5 5 6 7 8 12 13 9 6 5 5 10 12 14 18 19 21 27 24 25 26 23 23 24 21 19 18 17 19 19 21 21 21 23 24 25 27 28 31 32 33 34 35 33 35 40 46 50 53
10 8 9 11 12 13 12 7 6 4 5 8 11 15 18 23 27 26 26 28 26 23 20 22 22 18 16 16 17 18 19 20 22 23 25 26 27 29 31 33 36 39 40 38 42 43 41 45 45
19 16 15 17 22 16 11 9 5 4 5 11 12 13 16 21 24 24 26 25 25 21 20 20 20 18 17 15 16 17 18 19 20 22 24 27 28 30 32 35 40 41 42 42 46 45 45 45 44
21 20 21 25 22 19 14 12 10 8 8 13 15 14 16 20 20 25 25 23 22 21 20 18 17 16 15 14 15 16 16 17 18 20 23 27 28 30 33 37 39 43 45 44 47 46 48 51 47
22 23 26 29 25 20 19 17 13 10 11 15 16 15 16 20 20 22 20 19 20 20 19 18 14 14 14 13 14 15 15 16 18 19 23 27 29 31 34 38 41 44 46 48 49 52 54 56 55
24 27 31 26 16 18 19 20 17 12 9 14 16 16 19 21 20 20 18 20 20 17 16 16 16 14 14 13 14 15 15 16 18 19 22 26 29 31 34 37 40 43 50 52 52 56 58 59 59
27 30 28 24 21 20 20 22 21 15 10 12 15 15 17 25 22 18 19 20 21 20 19 17 16 15 14 14 15 15 16 17 17 19 21 24 27 31 35 38 40 43 53 57 53 56 58 61 62
28 30 29 23 20 19 21 24 24 20 14 12 15 15 19 22 26 21 20 19 21 20 19 18 18 16 15 16 16 16 17 17 18 19 20 22 25 29 35 37 40 44 49 54 55 59 61 62 63
27 32 24 23 23 21 21 26 28 25 18 15 16 17 18 17 25 25 21 21 19 20 19 18 19 18 16 16 17 17 17 18 19 19 20 21 22 26 32 36 40 44 48 52 55 61 59 60 57
22 27 21 21 21 21 22 24 30 31 25 20 18 17 21 24 25 27 25 22 20 18 19 19 19 20 18 17 18 18 18 18 19 20 20 21 22 24 27 33 38 43 46 50 54 60 60 58 56
18 17 16 18 20 20 20 24 29 36 27 25 23 22 27 27 29 28 26 24 20 20 21 22 22 22 21 20 18 19 19 18 20 21 22 22 22 23 25 29 34 39 43 48 54 59 61 61 58
11 13 16 16 14 17 21 23 27 29 23 31 28 27 32 43 29 29 27 27 26 24 23 24 23 21 22 21 19 20 21 20 20 21 22 23 23 22 23 26 30 37 42 47 53 56 61 63 61
10 8 8 10 11 12 15 16 22 18 21 36 34 32 28 37 44 35 30 31 32 29 26 24 22 21 21 22 21 20 22 22 22 22 22 24 24 22 23 26 29 34 40 45 50 54 58 62 59
15 15 14 12 12 17 17 13 13 7 19 32 39 35 32 29 47 46 44 35 34 30 27 27 28 26 23 23 23 23 23 23 25 25 24 24 25 23 23 26 28 31 35 40 45 48 51 53 54
12 12 10 7 10 13 22 18 13 7 14 24 35 41 35 33 39 50 48 42 36 31 31 29 29 33 34 30 28 26 25 24 25 26 26 26 26 25 25 27 29 31 32 36 39 42 44 48 50
16 16 16 10 12 13 20 21 10 13 15 16 26 42 42 37 34 35 37 42 39 36 35 35 33 36 42 42 41 40 33 26 27 28 29 28 28 28 27 28 30 31 32 33 35 37 39 42 45
21 23 21 14 11 14 20 30 16 17 20 16 20 32 46 43 36 36 34 31 34 39 37 38 36 39 41 43 43 41 40 38 36 33 32 32 31 30 28 29 31 32 34 32 33 36 37 39 41
30 27 22 22 12 18 23 32 22 20 26 20 19 31 48 48 41 41 37 35 33 30 30 28 28 29 30 36 43 45 44 43 42 40 42 37 34 33 30 29 32 34 36 35 33 35 38 39 42
42 47 46 32 20 18 20 27 20 16 33 25 19 27 46 53 45 47 43 39 39 37 32 29 28 28 27 31 33 38 37 48 48 44 46 45 38 36 32 31 34 36 37 36 34 36 39 40 43
38 49 48 43 25 32 28 15 16 23 27 30 26 25 39 52 52 52 49 47 45 40 35 32 31 31 28 26 26 30 32 39 50 50 50 52 44 37 34 34 35 38 41 40 38 38 38 39 45
54 39 34 57 42 46 30 21 12 13 24 28 28 26 32 47 57 60 59 55 46 42 40 36 36 34 32 29 29 31 35 40 56 65 62 58 55 43 38 38 37 40 41 44 40 38 39 42 45
60 40 45 60 69 49 37 45 30 27 26 35 30 40 42 51 58 65 65 58 53 52 46 40 37 37 36 37 38 39 31 34 45 61 64 68 59 53 43 41 40 43 44 45 45 41 41 44 45
54 42 60 82 84 54 31 54 34 48 53 65 54 51 52 56 66 67 66 62 54 53 47 44 43 41 40 42 42 42 46 51 50 46 55 55 57 52 51 46 42 43 45 47 49 44 42 45 45
51 44 75 76 67 65 33 48 63 86 86 86 75 68 66 67 65 66 65 62 57 55 50 47 46 46 45 46 48 47 47 50 63 74 74 60 58 53 53 51 48 44 45 46 51 49 47 46 47
51 66 86 78 79 77 45 64 63 97 95 91 85 81 76 72 68 65 66 63 61 58 53 50 49 48 48 50 50 53 53 57 56 70 68 94 62 54 50 52 49 46 46 48 52 54 49 45 45
44 66 83 80 77 72 67 92 99 93 92 93 87 90 91 88 81 75 74 70 66 63 58 54 51 49 47 47 50 52 55 55 56 66 73 74 70 64 52 52 53 49 51 52 55 58 52 45 45
68 68 60 77 76 92 82 99 91 94 98 98 98 91 94 92 91 85 78 74 72 68 64 61 58 55 52 49 47 46 49 52 50 54 59 58 58 57 54 53 53 51 55 56 57 60 53 45 47
71 76 82 84 78 87 94 92 97 97 97 98 98 98 94 96 96 89 82 79 75 71 65 61 57 54 52 52 49 46 46 44 46 50 53 57 62 61 60 56 52 51 56 54 58 61 53 46 48
80 76 78 75 79 97 97 97 97 93 97 98 98 94 96 97 95 88 80 76 72 68 62 59 55 53 51 51 49 48 46 44 41 39 46 50 60 65 71 60 59 53 54 55 59 61 54 50 50
88 73 66 73 74 88 90 97 98 97 97 93 95 96 98 96 92 92 86 83 76 73 69 63 54 51 57 59 57 56 54 53 55 49 52 54 57 66 76 73 69 59 55 56 62 59 57 52 51

GFSSGP_prec_cthk_120.txt.gz
RH
11 7 6 7 9 12 13 7 7 5 5 7 10 11 13 15 22 24 18 19 20 24 27 27 25 24 22 19 17 17 18 19 19 20 21 23 23 24 25 26 28 31 35 34 33 38 41 47 51
19 15 13 12 11 11 10 9 8 5 4 4 8 12 14 17 21 21 21 21 24 26 26 26 25 24 22 19 18 17 18 19 19 20 22 23 24 25 27 29 32 33 36 38 37 41 44 43 44
21 18 17 18 22 15 11 12 10 7 5 5 8 9 11 17 19 20 20 23 24 24 25 26 25 24 21 18 17 17 18 19 20 20 22 23 25 25 26 30 33 35 35 39 38 44 44 42 42
22 20 19 24 23 21 17 16 15 12 8 8 11 12 13 16 21 22 23 24 23 23 22 23 22 21 19 17 15 17 18 19 20 21 21 23 25 26 26 30 34 37 37 40 40 44 43 45 48
23 21 21 27 25 21 20 21 21 19 12 10 14 14 15 17 24 25 25 24 22 20 19 20 20 20 20 18 16 16 17 18 19 20 21 22 24 26 28 30 33 38 39 41 45 45 47 50 51
23 25 28 25 20 21 21 22 22 21 18 11 12 15 18 19 25 27 25 22 21 20 18 19 19 19 19 18 17 15 16 18 19 19 20 21 23 26 28 31 35 38 39 43 47 49 50 52 53
24 27 26 26 24 23 23 26 25 23 23 15 12 13 15 17 22 30 27 22 21 20 19 20 20 20 19 19 18 16 16 18 19 20 21 22 23 25 28 31 34 38 41 44 49 53 52 55 56
25 26 28 25 23 24 23 25 26 26 24 22 14 14 15 17 20 29 29 24 23 20 19 20 20 19 20 20 19 18 17 18 19 21 21 22 24 25 27 30 33 35 40 44 49 51 52 55 57
22 28 29 26 23 23 23 24 24 25 25 26 22 16 16 17 18 30 27 29 25 22 20 20 19 19 19 19 19 19 19 18 19 21 22 23 23 25 26 29 32 35 40 44 48 51 54 57 55
18 26 22 18 20 21 22 23 20 22 25 26 27 22 19 19 22 27 26 25 23 23 21 20 19 19 19 21 19 19 20 19 19 20 21 23 24 24 26 28 31 35 38 43 47 52 55 59 58
16 19 15 16 18 21 22 21 21 18 21 27 31 27 22 22 32 36 33 24 22 22 23 21 21 21 21 22 21 19 19 20 20 20 21 23 25 25 25 27 29 32 36 41 45 52 58 61 60
10 10 12 13 14 14 15 16 15 14 14 20 29 31 25 23 26 43 42 34 29 25 23 22 23 22 22 22 22 21 19 20 21 20 21 23 25 26 25 25 27 29 32 37 45 51 55 59 60
18 15 12 12 12 12 13 14 14 10 11 12 15 27 28 24 25 32 50 41 37 30 28 28 26 24 23 22 21 21 21 20 23 22 22 23 24 26 25 25 27 28 30 35 41 48 55 56 60
14 13 13 11 11 11 11 10 12 9 13 10 9 12 26 25 26 28 37 51 45 40 37 33 29 26 24 24 23 24 23 24 24 24 24 24 24 26 26 25 26 28 29 32 37 43 48 51 55
14 14 12 10 9 11 13 12 10 8 11 10 10 10 18 27 28 26 30 39 51 47 43 37 32 29 28 28 27 26 26 26 26 27 27 27 26 26 28 27 28 30 31 32 35 38 44 48 50
16 16 16 11 10 10 13 11 9 12 15 14 13 10 11 26 30 29 30 36 52 58 54 46 34 35 35 33 34 35 32 29 29 30 29 29 29 28 29 29 30 31 33 33 33 35 38 42 45
22 21 18 15 14 16 18 15 10 13 12 14 18 15 12 13 32 34 33 38 47 62 62 51 40 38 40 41 39 48 47 44 39 36 32 32 32 32 31 31 30 32 35 35 34 34 35 38 41
35 32 30 28 22 25 25 31 18 10 10 16 14 18 15 13 22 37 43 40 38 51 54 52 43 40 45 50 46 49 50 47 42 42 42 41 40 38 36 35 33 33 35 36 35 34 34 36 40
29 32 34 27 21 25 35 43 37 20 13 12 15 17 19 16 15 40 50 48 44 40 42 46 47 41 41 43 44 42 41 44 49 44 44 42 42 45 41 39 37 35 36 37 38 39 39 39 40
32 37 40 36 31 34 34 46 45 31 16 14 12 13 18 19 20 42 52 54 51 47 43 41 39 37 36 36 35 36 35 38 41 47 50 49 49 52 47 41 39 37 38 40 41 41 44 40 40
40 44 42 48 37 31 43 49 43 22 20 14 10 17 31 32 31 36 59 58 57 50 47 42 38 37 37 38 39 39 39 39 39 41 47 48 57 57 56 48 44 40 39 42 45 44 48 45 41
51 42 45 52 44 54 64 78 40 25 22 43 45 40 43 44 42 40 60 69 65 57 49 46 42 40 40 41 41 43 42 40 37 38 42 53 64 60 61 61 56 49 43 42 48 48 45 48 46
44 49 55 49 53 73 65 82 33 30 57 70 68 48 49 52 50 46 55 68 62 58 57 51 50 46 48 50 50 44 44 44 41 41 42 53 60 69 74 74 62 52 48 47 46 51 49 47 50
48 54 57 45 64 79 52 59 49 94 95 84 77 65 59 54 56 55 56 63 62 73 68 62 60 56 59 56 53 52 51 50 47 44 48 54 58 61 68 70 67 59 55 54 51 53 52 50 50
50 59 61 70 86 76 66 55 80 91 97 95 95 87 75 62 63 64 61 62 63 65 68 70 69 67 67 63 58 56 55 54 49 49 50 51 67 79 81 83 70 60 58 59 57 53 53 53 53
47 51 63 78 84 93 81 86 97 98 97 97 98 98 93 76 71 72 70 66 66 69 75 74 74 70 67 65 63 59 57 55 54 52 54 61 64 68 74 87 71 68 62 59 62 57 55 54 59
61 67 59 65 76 84 91 98 95 92 97 95 94 96 98 93 81 81 80 76 74 76 76 77 75 72 70 69 68 65 61 56 52 53 58 60 62 61 67 72 75 69 63 61 62 60 61 61 60
68 72 89 84 93 88 96 97 96 95 97 97 97 98 93 96 97 91 89 85 80 82 82 78 74 72 71 70 68 66 61 53 50 50 52 53 55 63 60 69 71 71 63 62 62 61 63 64 60
78 80 81 86 88 97 96 96 96 97 97 97 98 98 98 95 97 97 99 94 90 87 83 80 78 77 76 75 70 62 54 51 48 46 45 49 55 60 64 65 68 71 67 63 64 62 63 63 61
87 79 77 85 74 90 96 97 98 98 98 97 97 97 98 98 90 96 97 96 94 91 86 82 79 75 70 67 62 56 54 53 52 50 50 48 50 52 58 63 66 67 68 70 70 71 65 62 61

GFSSGP_prec_cthk_123.txt.gz
RH
18 15 11 9 8 10 10 6 6 5 6 6 8 7 10 13 20 17 18 18 18 18 21 28 28 26 26 25 21 19 18 17 18 19 19 19 20 21 21 21 24 28 32 34 33 36 41 43 50
22 19 17 16 13 10 8 9 8 6 5 4 4 6 10 12 17 17 18 20 19 18 22 28 28 27 26 26 22 20 19 18 17 19 19 20 20 21 21 21 23 28 31 33 34 34 39 44 46
22 19 18 17 16 14 13 13 12 10 8 6 5 5 8 14 18 22 22 24 22 24 26 27 26 28 26 24 22 21 19 20 19 19 21 21 21 21 22 23 25 30 32 33 34 37 44 42 41
23 22 20 19 17 16 16 18 19 18 15 11 8 7 10 11 15 22 25 25 26 27 27 25 24 23 23 24 24 22 20 20 21 21 22 22 21 22 22 24 26 30 33 35 38 39 41 40 41
25 24 21 24 21 21 21 21 21 21 21 18 14 10 11 16 16 23 29 29 29 30 27 24 23 22 23 23 23 23 22 22 22 21 22 22 23 23 23 25 29 31 33 36 38 41 42 43 47
24 25 23 22 21 22 22 24 21 21 21 23 18 13 13 16 18 24 32 33 32 28 25 24 23 23 24 24 23 23 23 22 21 21 22 23 24 24 25 26 30 32 35 37 39 42 44 46 48
21 23 23 25 23 22 23 24 23 23 23 23 21 16 13 15 17 23 35 35 29 28 26 25 24 24 24 24 23 22 22 21 21 21 21 23 25 25 26 27 30 34 35 38 39 42 45 46 50
22 23 26 23 22 22 21 21 21 22 22 23 22 20 16 15 16 21 30 37 30 29 26 24 23 24 23 23 23 23 22 22 21 21 21 23 26 28 29 30 31 35 35 38 39 42 44 46 49
19 24 25 22 20 19 19 18 18 21 23 24 25 25 21 17 17 19 27 37 33 29 26 25 23 23 21 22 22 22 24 23 22 21 22 25 26 28 30 30 32 34 37 38 40 42 44 46 51
16 21 18 17 16 18 19 19 16 17 20 22 25 25 25 23 18 20 27 34 34 29 27 25 24 22 21 22 23 23 23 24 23 23 22 24 26 27 29 31 33 34 36 37 41 42 44 48 51
17 17 16 17 19 18 18 17 18 15 14 16 21 23 26 26 22 23 22 34 39 32 32 31 27 24 22 23 25 25 24 23 24 24 23 24 26 28 29 30 32 34 35 36 40 42 44 48 52
15 13 13 14 13 13 13 13 13 13 12 12 12 19 22 23 23 21 26 27 39 33 31 33 30 27 26 25 27 27 26 25 24 24 25 25 25 26 27 28 29 31 33 34 37 40 44 48 49
23 21 18 16 15 13 12 11 11 10 9 8 8 8 10 18 21 22 24 29 34 39 35 32 32 30 29 28 27 27 24 24 25 24 25 26 25 25 26 26 27 29 32 33 35 39 43 45 46
18 17 17 16 15 15 13 12 13 10 10 9 8 7 7 9 16 21 22 26 29 40 38 39 37 34 34 31 26 26 26 26 26 27 26 27 27 25 26 26 26 28 31 33 35 37 40 43 45
19 18 15 14 14 14 15 12 11 12 12 11 10 10 9 9 11 16 22 23 29 35 43 40 41 40 34 32 28 27 27 27 27 28 28 29 29 27 27 27 26 28 31 34 36 38 40 41 43
19 18 18 14 15 14 14 12 10 11 13 13 13 11 8 7 9 11 18 23 29 33 39 45 45 42 38 33 32 31 29 30 30 30 30 31 32 31 29 28 28 28 31 34 35 38 40 40 40
23 20 18 18 17 19 21 16 16 17 15 14 14 13 10 7 8 9 13 23 28 34 38 45 48 50 44 37 35 38 39 38 35 33 33 34 35 34 32 31 31 31 31 34 36 38 38 39 40
20 21 20 23 20 26 27 23 19 22 19 15 18 15 12 9 8 11 11 20 29 31 36 42 51 60 57 44 41 46 47 45 45 46 42 39 37 35 35 35 35 35 33 34 36 38 38 39 41
21 25 26 19 17 29 26 29 23 16 17 16 18 20 14 9 9 11 12 14 32 33 37 45 53 63 66 53 50 49 51 52 49 48 50 48 46 43 44 44 42 38 37 35 36 38 40 42 42
26 34 28 22 20 29 27 29 20 16 18 30 32 21 18 14 13 20 17 15 29 38 39 51 52 65 60 55 54 56 58 55 54 53 50 47 48 48 46 45 48 43 39 38 38 39 40 45 45
28 37 34 36 26 26 36 28 37 32 39 42 43 39 31 26 23 25 27 25 25 46 44 49 51 63 59 58 58 57 51 49 47 49 48 49 50 51 53 52 55 48 41 40 40 41 44 47 43
37 38 38 36 43 43 38 46 48 48 48 56 52 54 46 38 36 39 42 37 33 53 50 51 43 42 45 49 47 44 40 40 40 41 45 48 51 54 57 59 58 57 54 48 47 46 50 47 46
39 41 39 39 48 48 43 63 45 54 57 84 73 65 64 57 46 57 57 54 50 58 68 58 52 44 41 42 48 48 49 46 48 46 46 45 49 56 62 68 70 73 71 66 58 53 49 48 48
43 45 41 44 50 63 62 83 65 75 89 94 97 98 90 70 56 64 59 59 65 71 77 68 52 47 45 46 47 53 57 58 59 56 51 45 45 49 53 72 74 79 89 86 74 63 53 52 52
53 51 42 49 72 65 65 70 89 94 97 97 93 93 87 73 71 76 66 61 60 71 76 73 62 56 56 56 56 58 63 65 64 64 57 53 50 46 51 60 71 70 77 82 78 73 66 60 58
62 50 49 54 52 52 58 94 96 98 97 97 97 96 98 97 84 78 76 69 62 58 63 75 72 73 73 67 66 67 70 71 70 66 63 60 58 54 57 62 80 71 69 73 78 75 73 69 65
68 56 52 60 59 72 81 97 98 95 97 97 97 97 97 98 90 83 83 81 74 68 66 68 77 82 83 79 80 70 79 79 72 70 67 61 57 58 62 67 72 82 77 77 75 72 69 69 70
68 57 69 72 81 91 91 96 95 94 96 97 97 97 96 98 92 84 88 86 83 80 76 73 74 78 81 75 72 83 77 76 74 74 69 63 60 59 62 69 74 73 68 69 75 72 70 70 69
75 69 71 73 79 87 87 96 97 97 97 97 97 97 97 97 97 98 91 89 88 87 84 84 83 89 83 81 85 86 81 79 75 72 66 59 57 58 63 65 69 72 66 66 69 73 69 69 68
77 77 74 80 73 80 90 95 97 97 97 97 97 97 97 97 97 97 96 98 95 95 92 87 91 91 93 91 89 86 81 75 71 62 56 51 49 51 57 62 68 71 75 74 72 75 73 73 73

GFSSGP_prec_cthk_126.txt.gz
RH
20 18 16 15 13 10 8 5 4 4 5 5 7 7 6 9 12 22 20 17 20 21 17 20 25 26 25 25 25 22 21 21 21 21 21 20 20 21 22 23 25 25 27 28 30 33 37 42 46
23 21 21 19 15 13 12 13 11 7 6 5 4 4 7 10 14 18 22 21 21 23 19 22 28 27 27 26 24 22 21 21 21 21 21 21 21 22 21 22 22 26 27 29 31 30 35 42 44
22 20 21 17 15 15 16 13 12 12 10 8 7 6 6 9 14 18 25 23 25 28 23 26 30 28 25 23 24 24 22 22 22 21 21 22 22 22 21 21 23 25 28 30 32 33 40 42 42
26 25 23 20 17 15 15 15 17 17 18 17 14 9 7 8 15 17 22 27 30 30 32 30 30 28 24 23 23 24 24 23 22 21 22 22 23 23 22 22 24 26 29 31 34 36 39 39 39
26 25 24 22 20 19 20 19 18 18 19 21 21 19 13 12 16 19 24 30 31 32 35 31 30 25 23 24 24 25 24 25 24 22 23 23 24 24 24 24 25 27 30 32 35 37 39 39 42
24 25 24 22 22 20 21 21 20 21 21 21 22 21 18 16 16 19 25 34 33 38 36 30 28 27 26 26 25 26 25 26 25 24 23 24 24 26 26 26 27 29 31 35 35 36 40 41 43
21 20 22 21 23 22 20 22 22 23 23 23 22 22 22 20 19 20 28 33 38 37 32 29 29 29 28 27 26 27 27 27 27 26 25 24 25 27 28 28 30 31 33 34 36 37 38 42 42
19 19 19 20 19 20 20 19 19 21 22 24 23 23 24 25 21 20 29 36 41 39 32 30 29 30 29 29 28 27 27 27 27 27 26 26 27 29 29 30 32 33 34 34 36 38 40 42 44
17 18 17 16 19 17 20 16 16 18 19 22 24 26 26 25 23 21 26 36 44 45 39 37 34 31 30 29 29 28 28 27 28 28 28 28 28 29 30 31 32 41 36 35 38 39 41 43 45
15 15 14 17 18 18 18 16 13 13 14 16 17 24 24 26 25 22 19 28 43 50 44 41 38 34 35 33 31 29 29 28 28 28 27 29 32 32 33 33 33 37 42 38 37 41 41 44 50
19 18 19 20 22 17 16 15 14 12 11 13 14 15 17 22 25 24 20 20 33 50 50 43 41 37 33 32 33 32 33 32 30 27 27 30 34 34 34 35 33 34 36 37 38 40 42 47 51
18 19 20 18 20 18 14 12 11 9 8 9 9 7 8 12 17 25 24 21 26 39 52 45 42 39 36 33 31 29 36 30 29 31 28 33 34 34 35 35 34 35 35 39 40 43 45 45 47
20 19 20 19 18 18 17 15 14 12 11 8 8 8 8 9 12 17 23 23 23 30 46 46 43 41 37 35 33 31 37 34 27 26 27 28 34 34 35 35 34 34 34 36 39 42 43 44 47
20 19 18 17 16 16 16 15 15 13 13 14 14 12 9 9 11 14 19 23 24 28 40 49 46 41 39 34 33 32 31 35 30 27 26 27 30 35 35 35 33 33 33 36 37 38 40 44 44
21 19 17 16 15 14 14 12 13 12 16 15 14 14 12 8 8 9 11 15 23 26 34 45 49 44 38 35 33 32 31 30 29 31 28 28 28 29 31 33 35 29 34 35 36 38 38 44 46
20 19 19 18 17 16 15 12 13 15 15 16 15 13 11 10 8 7 8 11 15 24 30 37 51 49 40 39 37 36 34 28 31 31 31 31 30 30 31 33 34 33 32 33 34 34 35 40 42
22 20 18 18 18 18 17 14 15 15 16 16 17 14 13 11 11 9 8 9 9 17 27 35 49 49 49 42 41 39 35 31 31 32 33 32 34 33 32 33 34 34 31 33 34 35 35 38 40
16 16 15 16 18 18 17 13 16 15 19 19 16 14 14 15 17 13 10 8 12 13 24 31 44 48 52 53 47 44 39 33 34 34 34 34 35 36 36 36 36 36 36 35 35 36 37 38 39
17 15 14 16 21 18 20 16 13 17 19 22 25 25 28 28 23 18 13 14 20 13 15 28 41 49 52 55 49 44 44 40 38 39 40 41 41 41 39 39 38 38 39 38 36 37 40 40 41
17 18 16 18 24 25 21 19 15 18 37 44 39 36 37 34 28 24 24 29 26 19 15 23 37 51 58 61 52 48 46 47 48 51 52 51 50 48 49 49 47 46 46 47 41 40 43 45 44
21 22 21 21 24 24 30 23 24 28 51 54 50 49 51 48 42 39 31 27 23 25 21 22 35 54 62 68 65 59 54 55 52 52 55 52 53 54 53 53 52 51 51 51 47 43 43 47 48
26 25 26 26 27 24 35 33 40 46 47 50 62 68 69 61 52 51 44 33 28 31 30 29 36 48 66 72 78 79 60 57 55 60 57 55 54 55 58 57 61 61 56 57 56 52 48 51 53
30 33 33 30 33 30 34 39 50 52 59 69 73 77 78 76 66 61 57 46 41 45 44 40 40 48 62 80 76 91 88 71 62 59 52 49 47 54 61 61 59 60 61 66 68 64 57 56 60
36 39 36 39 38 44 41 55 62 76 80 78 83 88 82 79 76 80 66 57 56 69 60 54 53 51 56 74 75 70 89 72 62 57 49 48 49 50 55 59 57 59 65 73 77 78 76 73 68
47 49 46 47 60 48 45 57 86 85 84 87 90 90 89 82 73 73 68 68 74 75 71 66 71 68 64 67 72 70 73 62 56 54 52 55 55 54 56 59 59 57 56 70 76 85 77 70 73
54 54 45 50 42 41 45 72 90 96 91 94 94 93 92 88 79 79 80 87 81 82 81 83 88 86 76 72 66 63 61 60 59 55 55 58 60 60 62 64 63 62 64 72 79 81 75 70 75
64 62 50 49 49 58 61 87 92 86 92 96 96 97 97 96 96 81 89 92 84 80 81 82 85 87 78 64 65 61 59 60 57 59 64 63 62 68 66 68 70 72 71 72 78 86 80 80 80
64 70 70 63 64 64 67 82 84 87 93 96 96 97 97 97 97 83 85 94 91 86 76 69 77 88 84 82 75 75 71 68 66 68 65 60 64 71 75 73 71 73 72 75 85 82 87 81 77
82 76 66 62 61 67 67 89 87 93 96 96 96 97 97 97 97 96 87 89 97 86 81 74 70 73 86 82 77 78 71 70 71 68 63 65 70 71 76 77 77 73 71 74 84 85 88 77 67
73 79 69 73 70 66 80 89 88 94 95 95 96 97 97 97 97 97 98 95 98 98 86 83 76 72 71 75 79 69 73 80 79 77 79 80 78 79 79 78 75 72 74 77 79 80 80 76 77

GFSSGP_prec_cthk_129.txt.gz
RH
20 20 19 18 16 12 12 10 7 7 6 7 7 6 6 5 11 25 35 31 23 27 22 18 20 27 27 26 25 23 23 23 23 22 22 21 22 23 24 23 24 24 26 27 28 29 33 38 43
24 23 22 21 17 17 14 14 12 11 10 9 6 5 5 7 12 18 29 31 23 27 26 20 21 28 27 26 24 23 24 25 25 24 22 22 23 23 24 24 24 24 27 29 30 29 32 38 43
22 22 22 19 17 16 18 16 14 11 11 11 10 9 7 7 16 22 20 23 25 30 30 23 24 31 28 25 22 22 24 24 25 24 24 23 24 24 23 24 24 24 27 29 32 31 36 40 40
25 24 24 22 20 20 18 14 14 15 15 15 15 16 13 11 18 18 17 23 26 36 36 28 28 32 30 24 23 22 24 25 25 25 25 25 25 24 23 24 25 26 28 30 31 33 38 40 38
25 26 25 25 22 25 25 20 20 19 19 19 19 21 21 20 20 18 19 24 31 38 41 32 32 31 29 26 25 24 26 27 26 27 27 26 26 25 24 24 26 27 29 31 33 35 39 37 38
24 24 25 24 25 28 26 22 22 22 23 23 23 22 22 26 27 21 24 28 32 39 41 36 35 33 29 28 28 25 27 28 28 28 28 27 26 25 25 26 27 29 31 33 35 36 37 39 39
20 23 23 22 24 25 27 22 21 21 23 25 23 22 24 26 25 24 27 28 38 41 44 43 36 33 32 32 31 28 27 28 28 29 29 29 28 27 26 27 27 30 33 34 36 35 38 39 40
22 21 19 19 19 21 22 21 19 20 21 22 23 24 26 28 24 24 25 34 38 43 44 44 39 35 33 33 32 30 29 29 29 30 29 29 30 29 28 29 29 31 33 35 35 36 37 40 42
19 18 18 17 19 20 21 20 17 18 17 17 22 23 25 26 26 24 22 23 40 46 52 45 42 40 36 34 32 30 30 30 30 30 30 31 31 31 30 30 31 33 36 38 36 35 37 40 43
16 16 15 18 20 22 22 18 15 14 13 14 17 18 21 21 21 24 25 21 25 40 55 53 46 44 40 39 36 30 29 29 30 30 29 29 34 34 36 34 34 35 37 39 37 38 37 40 45
18 19 18 19 22 23 21 16 14 12 10 10 12 13 12 11 11 17 23 25 22 28 49 56 50 49 46 44 41 34 33 32 31 29 30 29 34 38 37 42 37 34 33 34 33 34 37 39 52
19 17 17 18 18 18 17 17 16 15 14 10 9 9 8 8 9 9 17 25 25 24 37 56 58 49 47 47 43 40 38 37 35 33 32 31 34 38 42 40 41 37 35 37 35 37 39 43 48
21 20 21 21 19 18 17 17 17 16 15 15 13 12 10 10 11 10 11 18 26 24 25 39 61 55 48 47 47 40 38 41 39 38 32 32 38 37 38 39 44 37 39 39 40 41 39 46 46
20 21 20 19 18 18 17 15 14 13 14 15 16 15 14 14 12 11 9 9 19 28 27 29 49 59 55 50 46 43 39 41 37 37 37 31 33 38 40 39 39 39 38 44 47 42 40 44 43
18 18 18 17 17 16 17 16 15 16 16 14 14 14 14 14 15 14 13 10 9 18 29 30 41 54 61 54 50 46 41 40 43 35 33 29 32 34 37 41 42 42 39 43 44 44 46 45 44
18 18 20 18 18 17 17 16 14 17 16 14 14 14 14 14 13 14 15 16 10 9 19 31 33 44 55 60 56 50 44 40 42 37 35 30 29 35 35 37 41 40 42 39 39 39 40 42 45
18 19 19 16 16 16 16 16 15 15 15 14 16 16 16 15 13 14 16 19 16 11 9 18 29 34 48 57 63 54 46 38 37 38 36 33 30 33 36 32 32 39 40 39 38 40 40 40 42
18 15 14 14 14 14 16 15 15 17 16 17 21 31 33 35 35 31 25 25 22 17 15 17 22 28 39 51 65 63 52 44 39 38 35 37 34 32 37 37 37 35 42 41 38 39 38 41 44
15 15 14 14 15 16 16 15 18 19 21 35 36 32 33 36 37 31 26 24 32 34 31 27 23 26 34 54 61 71 56 48 40 34 35 38 40 32 34 36 37 34 36 38 39 43 44 42 43
17 19 19 19 19 18 17 16 20 24 39 39 35 35 39 39 37 36 40 33 32 36 35 30 23 21 33 60 61 74 65 53 44 38 34 30 33 34 34 36 42 37 40 41 43 47 52 44 42
21 21 20 20 19 20 21 17 20 26 52 47 43 44 49 55 53 52 50 49 40 35 34 25 24 21 29 49 79 72 72 65 54 41 39 37 40 41 36 38 43 44 45 49 49 54 55 54 46
25 23 21 23 23 23 22 23 37 39 50 49 56 60 62 66 66 66 65 57 46 42 39 30 23 23 29 47 66 66 77 62 51 48 52 51 52 54 55 51 52 54 52 53 53 57 60 62 57
26 26 25 25 26 27 26 36 61 52 57 61 65 67 74 76 73 70 73 75 60 52 42 40 31 30 29 42 54 67 74 71 65 58 66 62 60 64 69 62 65 60 60 61 65 63 69 68 66
27 30 33 32 35 35 39 43 57 68 70 68 69 72 79 80 76 76 74 69 80 68 49 50 43 42 40 38 54 68 81 91 87 80 92 71 64 62 70 65 65 67 63 60 64 65 68 69 83
35 41 47 44 53 46 35 41 68 67 70 71 74 79 80 83 78 80 75 68 70 65 58 61 66 57 50 46 60 64 80 88 94 80 92 96 80 62 62 58 54 61 59 62 64 66 66 72 71
39 44 47 46 38 41 35 54 76 67 69 73 77 84 85 86 81 76 73 76 78 74 75 84 80 73 60 51 67 73 75 86 94 92 83 84 78 67 65 56 52 59 59 67 69 68 69 68 68
49 49 49 49 44 48 55 76 70 68 69 74 79 83 87 87 92 88 78 83 97 94 97 92 99 84 67 62 67 84 84 88 81 80 89 74 77 67 66 63 56 62 61 68 73 72 69 72 74
44 55 62 63 66 63 53 72 74 74 75 76 79 84 89 91 94 85 84 97 88 93 97 98 95 90 85 84 85 90 92 92 88 91 85 74 76 71 66 66 67 65 66 75 70 73 78 82 81
59 61 66 60 60 65 64 80 76 80 78 79 83 87 91 94 95 96 88 96 93 97 87 96 98 98 92 87 83 88 93 90 97 92 85 84 72 63 63 67 66 68 74 77 71 73 77 79 79
53 61 74 73 67 73 79 84 82 82 81 81 85 90 93 95 96 97 97 92 97 89 89 89 91 97 98 92 96 91 87 92 93 87 77 70 71 72 73 72 67 66 73 71 69 75 79 78 78

GFSSGP_prec_cthk_132.txt.gz
RH
20 20 20 19 18 16 13 13 10 7 8 9 7 8 6 4 6 26 44 39 37 28 22 23 18 21 25 22 22 19 19 22 23 23 23 22 22 21 21 24 25 26 28 27 29 31 33 35 38
22 22 22 22 21 18 17 16 12 12 10 11 10 8 7 8 12 17 23 28 37 31 22 24 21 22 27 24 23 19 19 22 24 24 22 22 23 23 22 23 24 25 28 29 30 30 33 37 39
21 22 22 22 20 17 18 18 15 13 12 12 12 12 11 10 15 20 20 18 21 26 23 24 22 24 31 27 24 20 20 21 24 24 24 23 23 23 23 23 24 25 27 30 31 32 34 38 39
24 24 24 23 21 20 24 21 18 18 18 16 15 16 18 17 17 20 16 19 18 30 28 28 24 24 32 30 28 23 21 21 23 24 24 25 24 23 23 23 24 25 27 30 31 33 37 39 39
23 25 27 26 24 23 23 28 20 19 21 20 19 20 23 23 25 24 23 24 24 35 31 34 28 28 32 32 29 27 24 23 23 24 25 25 26 25 24 23 23 25 27 30 33 36 38 38 36
24 25 26 27 26 28 32 33 26 25 24 25 25 25 25 26 28 25 27 24 30 39 37 41 34 31 31 32 30 29 26 25 25 26 26 26 27 26 25 25 25 26 28 31 33 36 38 38 37
22 24 26 26 26 25 30 33 30 28 24 26 26 26 27 29 29 24 25 25 30 41 44 46 41 37 35 32 32 31 29 27 26 27 27 28 28 28 27 26 27 28 29 31 34 35 36 37 39
24 25 25 23 21 22 25 26 27 23 23 24 24 25 28 29 31 25 25 25 32 37 47 46 43 40 38 34 33 33 31 29 28 28 28 27 28 29 29 28 28 29 31 32 34 33 34 35 37
20 20 21 21 21 26 26 26 24 22 21 17 18 23 25 27 28 25 23 24 26 29 44 49 52 43 37 36 34 33 31 30 29 28 29 29 28 28 28 30 29 30 32 35 38 35 33 34 36
18 18 18 18 19 21 24 24 21 16 13 12 13 16 18 17 18 18 18 21 23 25 30 44 51 53 43 38 35 34 33 31 29 28 28 28 29 28 29 30 29 31 35 40 37 37 36 35 36
19 21 19 17 18 19 20 20 19 14 14 12 10 10 11 12 12 10 10 16 22 25 27 37 50 57 53 47 42 38 34 31 29 28 28 29 29 29 30 30 33 34 34 34 35 33 33 35 37
22 21 20 19 19 18 18 18 18 17 17 16 16 14 13 10 11 10 10 10 15 22 24 32 51 60 61 58 49 43 37 32 30 29 29 29 29 32 31 32 34 34 35 35 36 36 34 36 39
22 21 23 22 22 20 19 19 19 18 17 17 16 16 17 18 17 14 11 9 9 13 24 26 34 54 62 60 66 55 43 36 32 31 30 30 30 32 31 34 32 33 34 34 36 38 38 38 41
17 16 16 16 16 16 18 18 18 17 17 17 17 17 17 17 18 19 19 15 10 9 12 26 28 37 53 77 71 62 61 46 39 34 30 31 31 33 36 35 33 33 31 32 37 42 45 47 45
17 16 16 16 16 16 16 17 16 16 16 16 15 15 14 14 15 17 18 19 18 14 11 11 26 31 40 60 77 71 63 54 44 41 38 33 31 33 36 35 35 33 33 31 36 40 44 45 48
18 18 20 17 16 16 15 15 15 14 15 15 14 15 16 18 19 21 23 23 21 23 20 15 12 28 33 49 57 77 68 60 48 43 40 36 33 30 40 39 33 35 36 37 36 37 37 38 41
19 19 20 20 17 13 14 15 15 17 16 16 19 25 27 28 27 25 25 24 21 22 23 21 16 19 30 32 62 59 73 68 60 46 42 35 33 33 38 41 39 39 40 40 39 37 38 38 40
20 19 18 15 12 14 14 14 17 18 16 23 29 31 32 32 30 25 24 24 22 24 25 22 21 20 22 31 41 69 59 72 66 54 44 35 33 33 35 40 41 43 39 40 38 41 42 41 41
17 13 14 14 15 15 15 16 18 18 24 31 33 31 29 30 32 32 28 25 23 20 21 25 22 24 23 27 38 55 76 69 74 65 50 40 33 34 35 38 38 43 41 40 41 41 42 43 43
16 17 19 19 17 17 16 17 18 29 32 34 33 36 38 38 37 36 36 34 35 35 27 24 22 21 20 24 34 48 61 76 71 75 62 46 38 38 35 37 38 38 38 43 43 44 45 48 49
20 22 22 21 17 15 19 20 20 37 37 40 43 45 44 46 46 50 53 51 49 48 43 38 30 21 16 20 28 36 46 64 79 75 70 55 46 36 39 36 40 40 39 40 46 48 48 50 55
22 27 24 21 24 22 18 20 25 46 48 52 50 49 49 54 58 61 60 62 59 59 56 53 47 33 24 17 29 35 46 61 78 64 79 64 49 40 38 37 39 44 43 43 46 50 52 55 56
25 27 24 24 26 25 27 29 43 44 57 60 56 52 56 58 61 65 66 63 64 64 61 58 54 47 33 22 26 35 40 48 74 74 80 72 54 46 41 43 45 53 50 49 48 56 58 59 63
26 25 25 33 32 39 35 35 57 62 62 58 55 55 59 59 65 69 69 64 64 60 61 63 60 50 43 32 30 34 39 46 71 88 95 76 69 60 58 57 54 64 68 66 65 60 66 68 71
31 32 42 44 52 41 33 40 68 64 57 59 59 58 62 65 69 72 71 65 65 59 64 64 63 47 48 43 37 33 45 52 72 94 68 99 83 84 82 84 76 80 75 81 72 71 70 71 71
44 36 43 44 34 38 30 45 74 64 66 64 64 64 67 70 76 75 73 71 67 73 82 75 74 64 64 61 48 41 41 55 71 99 85 82 91 85 56 98 77 75 74 83 76 70 68 68 70
35 38 42 47 41 44 44 66 64 63 67 66 68 70 73 79 82 81 78 70 73 82 86 94 91 96 88 86 69 55 48 48 81 84 94 98 85 91 90 96 83 85 80 67 67 67 63 72 71
32 42 49 51 59 58 44 91 90 76 73 71 71 73 77 83 85 86 84 76 82 89 84 96 93 98 95 98 81 63 56 48 82 80 85 94 96 97 98 97 92 85 77 73 68 67 66 73 72
51 45 48 52 58 67 61 78 79 77 77 74 73 77 81 84 87 88 90 82 90 91 95 94 97 97 98 99 95 73 58 86 78 90 87 98 97 91 90 86 82 86 83 75 70 69 72 72 74
54 54 60 77 63 64 85 88 87 80 76 75 76 83 85 88 90 91 92 91 91 96 94 88 87 88 97 98 99 95 71 73 97 81 77 91 82 96 97 85 91 87 85 82 78 78 78 74 75